[[{"header":{"parameterUnit":"m.s-1","parameterCategory":1,"la1":31.0,"la2":29.5877,"lo1":-88.7671,"lo2":-86.6584,"dy":0.0162,"dx":0.0185,"nx":115,"ny":88,"refTime":"2024-05-29T00:00:00:Z","depth":0,"parameterNumber":2,"parameterNumberName":"U-component_of_WINDS"},"data":[0.0,0.0,0.0,0.0,0.0,0.0,0.0,0.0,0.0,0.0,0.0,0.0,0.0,0.0,0.0,0.0,0.0,0.0,0.0,0.0,0.0,0.0,0.0,0.0,0.0,0.0,0.0,0.0,0.0,0.0,0.0,0.0,0.0,0.0,0.0,0.0,0.0,0.0,0.0,0.0,0.0,0.0,0.0,0.0,0.0,0.0,0.0,0.0,0.0,0.0,0.0,0.0,0.0,0.0,0.0,0.0,0.0,0.0,0.0,0.0,0.0,0.0,0.0,0.0,0.0,0.0,0.0,0.0,0.0,0.0,0.0,0.0,0.0,0.0,0.0,0.0,0.0,0.0,0.0,0.0,0.0,0.0,0.0,0.0,0.0,0.0,0.0,0.0,0.0,0.0,0.0,0.0,0.0,0.0,0.0,0.0,0.0,0.0,0.0,0.0,0.0,0.0,0.0,0.0,0.0,0.0,0.0,0.0,0.0,0.0,0.0,0.0,0.0,0.0,0.0,0.0,0.0,0.0,0.0,0.0,0.0,0.0,0.0,0.0,0.0,0.0,0.0,0.0,0.0,0.0,0.0,0.0,0.0,0.0,0.0,0.0,0.0,0.0,0.0,0.0,0.0,0.0,0.0,0.0,0.0,0.0,0.0,0.0,0.0,0.0,0.0,0.0,0.0,0.0,0.0,0.0,0.0,0.0,0.0,0.0,0.0,0.0,0.0,0.0,0.0,0.0,0.0,0.0,0.0,0.0,0.0,0.0,0.0,0.0,0.0,0.0,0.0,0.0,0.0,0.0,0.0,0.0,0.0,0.0,0.0,0.0,0.0,0.0,0.0,0.0,0.0,0.0,0.0,0.0,0.0,0.0,0.0,0.0,0.0,0.0,0.0,0.0,0.0,0.0,0.0,0.0,0.0,0.0,0.0,0.0,0.0,0.0,0.0,0.0,0.0,0.0,0.0,0.0,0.0,0.0,0.0,0.0,0.0,0.0,0.0,0.0,0.0,0.0,0.0,0.0,0.0,0.0,0.0,0.0,0.0,0.0,0.0,0.0,0.0,0.0,0.0,0.0,0.0,0.0,0.0,0.0,0.0,0.0,0.0,0.0,0.0,0.0,0.0,0.0,0.0,0.0,0.0,0.0,0.0,0.0,0.0,0.0,0.0,0.0,0.0,0.0,0.0,0.0,0.0,0.0,0.0,0.0,0.0,0.0,0.0,0.0,0.0,0.0,0.0,0.0,0.0,0.0,0.0,0.0,0.0,0.0,0.0,0.0,0.0,0.0,0.0,0.0,0.0,0.0,0.0,0.0,0.0,0.0,0.0,0.0,0.0,0.0,0.0,0.0,0.0,0.0,0.0,0.0,0.0,0.0,0.0,0.0,0.0,0.0,0.0,0.0,0.0,0.0,0.0,0.0,0.0,0.0,0.0,0.0,0.0,0.0,0.0,0.0,0.0,0.0,0.0,0.0,0.0,0.0,0.0,0.0,0.0,0.0,0.0,0.0,0.0,0.0,0.0,0.0,0.0,0.0,0.0,0.0,0.0,0.0,0.0,0.0,0.0,0.0,0.0,0.0,0.0,0.0,0.0,0.0,0.0,0.0,0.0,0.0,0.0,0.0,0.0,0.0,0.0,0.0,0.0,0.0,0.0,0.0,0.0,0.0,0.0,0.0,0.0,0.0,0.0,0.0,0.0,0.0,0.0,0.0,0.0,0.0,0.0,0.0,0.0,0.0,0.0,0.0,0.0,0.0,0.0,0.0,0.0,0.0,0.0,0.0,0.0,0.0,0.0,0.0,0.0,0.0,0.0,0.0,0.0,0.0,0.0,0.0,0.0,0.0,0.0,0.0,0.0,0.0,0.0,0.0,0.0,0.0,0.0,0.0,0.0,0.0,0.0,0.0,0.0,0.0,0.0,0.0,0.0,0.0,0.0,0.0,0.0,0.0,0.0,0.0,0.0,0.0,0.0,0.0,0.0,0.0,0.0,0.0,0.0,0.0,0.0,0.0,0.0,0.0,0.0,0.0,0.0,0.0,0.0,0.0,0.0,0.0,0.0,0.0,0.0,0.0,0.0,0.0,0.0,0.0,0.0,0.0,0.0,0.0,0.0,0.0,0.0,0.0,0.0,0.0,0.0,0.0,0.0,0.0,0.0,0.0,0.0,0.0,0.0,0.0,0.0,0.0,0.0,0.0,0.0,0.0,0.0,0.0,0.0,0.0,0.0,0.0,0.0,0.0,0.0,0.0,0.0,0.0,0.0,0.0,0.0,0.0,0.0,0.0,0.0,0.0,0.0,0.0,0.0,0.0,0.0,0.0,0.0,0.0,0.0,0.0,0.0,0.0,0.0,0.0,0.0,0.0,0.0,0.0,0.0,0.0,0.0,0.0,0.0,0.0,0.0,0.0,0.0,0.0,0.0,0.0,0.0,0.0,0.0,0.0,0.0,0.0,0.0,0.0,0.0,0.0,0.0,0.0,0.0,0.0,0.0,0.0,0.0,0.0,0.0,0.0,0.0,0.0,0.0,0.0,0.0,0.0,0.0,0.0,0.0,0.0,0.0,0.0,0.0,0.0,0.0,0.0,0.0,0.0,0.0,0.0,0.0,0.0,0.0,0.0,0.0,0.0,0.0,0.0,0.0,0.0,0.0,0.0,0.0,0.0,0.0,0.0,0.0,0.0,0.0,0.0,0.0,0.0,0.0,0.0,0.0,0.0,0.0,0.0,0.0,0.0,0.0,0.0,0.0,0.0,0.0,0.0,0.0,0.0,0.0,0.0,0.0,0.0,0.0,0.0,0.0,0.0,0.0,0.0,0.0,0.0,0.0,0.0,0.0,0.0,0.0,0.0,0.0,0.0,0.0,0.0,0.0,0.0,0.0,0.0,0.0,0.0,0.0,0.0,0.0,0.0,0.0,0.0,0.0,0.0,0.0,0.0,0.0,0.0,0.0,0.0,0.0,0.0,0.0,0.0,0.0,0.0,0.0,0.0,0.0,0.0,0.0,0.0,0.0,0.0,0.0,0.0,0.0,0.0,0.0,0.0,0.0,0.0,0.0,0.0,0.0,0.0,0.0,0.0,0.0,0.0,0.0,0.0,0.0,0.0,0.0,0.0,0.0,0.0,0.0,0.0,0.0,0.0,0.0,0.0,0.0,0.0,0.0,0.0,0.0,0.0,0.0,0.0,0.0,0.0,0.0,0.0,0.0,0.0,0.0,0.0,0.0,0.0,0.0,0.0,0.0,0.0,0.0,0.0,0.0,0.0,0.0,0.0,0.0,0.0,0.0,0.0,0.0,0.0,0.0,0.0,0.0,0.0,0.0,0.0,0.0,0.0,0.0,0.0,0.0,0.0,0.0,0.0,0.0,0.0,0.0,0.0,0.0,0.0,0.0,0.0,0.0,0.0,0.0,0.0,0.0,0.0,0.0,0.0,0.0,0.0,0.0,0.0,0.0,0.0,0.0,0.0,0.0,0.0,0.0,0.0,0.0,0.0,0.0,0.0,0.0,0.0,0.0,0.0,0.0,0.0,0.0,0.0,0.0,0.0,0.0,0.0,0.0,0.0,0.0,0.0,0.0,0.0,0.0,0.0,0.0,0.0,0.0,0.0,0.0,0.0,0.0,0.0,0.0,0.0,0.0,0.0,0.0,0.0,0.0,0.0,0.0,0.0,0.0,0.0,0.0,0.0,0.0,0.0,0.0,0.0,0.0,0.0,0.0,0.0,0.0,0.0,0.0,0.0,0.0,0.0,0.0,0.0,0.0,0.0,0.0,0.0,0.0,0.0,0.0,0.0,0.0,0.0,0.0,0.0,0.0,0.0,0.0,0.0,0.0,0.0,0.0,0.0,0.0,0.0,0.0,0.0,0.0,0.0,0.0,0.0,0.0,0.0,0.0,0.0,0.0,0.0,0.0,0.0,0.0,0.0,0.0,0.0,0.0,0.0,0.0,0.0,0.0,0.0,0.0,0.0,0.0,0.0,0.0,0.0,0.0,0.0,0.0,0.0,0.0,0.0,0.0,0.0,0.0,0.0,0.0,0.0,0.0,0.0,0.0,0.0,0.0,0.0,0.0,0.0,0.0,0.0,0.0,0.0,0.0,0.0,0.0,0.0,0.0,0.0,0.0,0.0,0.0,0.0,0.0,0.0,0.0,0.0,0.0,0.0,0.0,0.0,0.0,0.0,0.0,0.0,0.0,0.0,0.0,0.0,0.0,0.0,0.0,0.0,0.0,0.0,0.0,0.0,0.0,0.0,0.0,0.0,0.0,0.0,-0.8778,0.0,0.0,0.0,0.0,0.0,0.0,0.0,0.0,0.0,0.0,0.0,0.0,0.0,0.0,0.0,0.0,0.0,0.0,0.0,0.0,0.0,0.0,0.0,0.0,0.0,0.0,0.0,0.0,0.0,0.0,0.0,0.0,0.0,0.0,0.0,0.0,0.0,0.0,0.0,0.0,0.0,0.0,0.0,0.0,0.0,0.0,0.0,0.0,0.0,0.0,0.0,0.0,0.0,0.0,0.0,0.0,0.0,0.0,0.0,0.0,0.0,0.0,0.0,0.0,0.0,0.0,0.0,0.0,0.0,0.0,0.0,0.0,0.0,0.0,0.0,0.0,0.0,0.0,0.0,0.0,0.0,0.0,0.0,0.0,0.0,0.0,0.0,0.0,0.0,0.0,0.0,0.0,0.0,0.0,0.0,0.0,0.0,0.0,0.0,0.0,0.0,0.0,0.0,0.0,0.0,0.0,0.0,0.0,0.0,0.0,-0.8778,-0.8778,-0.8778,-0.8778,-0.8778,0.0,0.0,0.0,0.0,0.0,0.0,0.0,0.0,0.0,0.0,0.0,0.0,0.0,0.0,0.0,0.0,0.0,0.0,0.0,0.0,0.0,0.0,0.0,0.0,0.0,0.0,0.0,0.0,0.0,0.0,0.0,0.0,0.0,0.0,0.0,0.0,0.0,0.0,0.0,0.0,0.0,0.0,0.0,0.0,0.0,0.0,0.0,0.0,0.0,0.0,0.0,0.0,0.0,0.0,0.0,0.0,0.0,0.0,0.0,0.0,0.0,0.0,0.0,0.0,0.0,0.0,0.0,0.0,0.0,0.0,0.0,0.0,0.0,0.0,0.0,0.0,0.0,0.0,0.0,0.0,0.0,0.0,0.0,0.0,0.0,0.0,0.0,0.0,0.0,0.0,0.0,0.0,0.0,0.0,0.0,0.0,0.0,0.0,0.0,0.0,0.0,0.0,0.0,0.0,0.0,0.0,0.0,0.0,0.0,0.0,0.0,0.0,-0.8878,-0.8878,-0.8878,0.0,0.0,0.0,0.0,0.0,0.0,0.0,0.0,0.0,0.0,0.0,0.0,0.0,0.0,0.0,0.0,0.0,0.0,0.0,0.0,0.0,0.0,0.0,0.0,0.0,0.0,0.0,0.0,0.0,0.0,0.0,0.0,0.0,0.0,0.0,0.0,0.0,0.0,0.0,0.0,0.0,0.0,0.0,0.0,0.0,0.0,0.0,0.0,0.0,0.0,0.0,0.0,0.0,0.0,0.0,0.0,0.0,0.0,0.0,0.0,0.0,0.0,0.0,0.0,0.0,0.0,0.0,0.0,0.0,0.0,0.0,0.0,0.0,0.0,0.0,0.0,0.0,0.0,0.0,0.0,0.0,0.0,0.0,0.0,0.0,0.0,0.0,0.0,0.0,0.0,0.0,0.0,0.0,0.0,0.0,0.0,0.0,0.0,0.0,0.0,0.0,0.0,0.0,0.0,0.0,0.0,0.0,0.0,0.0,0.0,-0.8911,-0.9164,-0.9171,0.0,-0.9178,0.0,0.0,0.0,0.0,0.0,0.0,0.0,0.0,0.0,0.0,0.0,0.0,0.0,0.0,0.0,0.0,0.0,0.0,0.0,0.0,0.0,0.0,0.0,0.0,0.0,0.0,0.0,0.0,0.0,0.0,0.0,0.0,0.0,0.0,0.0,0.0,0.0,0.0,0.0,0.0,0.0,0.0,0.0,0.0,0.0,0.0,0.0,0.0,0.0,0.0,0.0,0.0,0.0,0.0,0.0,0.0,0.0,0.0,0.0,0.0,0.0,0.0,0.0,0.0,0.0,0.0,0.0,0.0,0.0,0.0,0.0,0.0,0.0,0.0,0.0,0.0,0.0,0.0,0.0,0.0,0.0,0.0,0.0,0.0,0.0,0.0,0.0,0.0,0.0,0.0,0.0,0.0,0.0,0.0,0.0,0.0,0.0,0.0,0.0,0.0,0.0,0.0,0.0,0.0,0.0,0.0,0.0,0.0,0.0,0.0,-0.9098,-0.9176,-0.9176,-0.9176,0.0,0.0,0.0,0.0,0.0,0.0,0.0,0.0,0.0,0.0,0.0,0.0,0.0,0.0,0.0,0.0,0.0,0.0,0.0,0.0,0.0,0.0,0.0,0.0,0.0,0.0,0.0,0.0,0.0,0.0,0.0,0.0,0.0,0.0,0.0,0.0,0.0,0.0,0.0,0.0,0.0,0.0,0.0,0.0,0.0,0.0,0.0,0.0,0.0,0.0,0.0,0.0,0.0,0.0,0.0,0.0,0.0,0.0,0.0,0.0,0.0,0.0,0.0,0.0,0.0,0.0,0.0,0.0,0.0,0.0,0.0,0.0,0.0,0.0,0.0,0.0,0.0,0.0,0.0,0.0,0.0,0.0,0.0,0.0,0.0,0.0,0.0,0.0,0.0,0.0,0.0,0.0,0.0,0.0,0.0,0.0,0.0,0.0,0.0,0.0,0.0,0.0,0.0,0.0,0.0,0.0,0.0,0.0,0.0,0.0,-0.9144,0.0,-0.9324,-0.9337,-0.9297,-0.9183,0.0,0.0,0.0,0.0,0.0,0.0,0.0,0.0,0.0,0.0,0.0,0.0,0.0,0.0,0.0,0.0,0.0,0.0,0.0,0.0,0.0,0.0,0.0,0.0,0.0,0.0,0.0,0.0,0.0,0.0,0.0,0.0,0.0,0.0,0.0,0.0,0.0,0.0,0.0,0.0,0.0,0.0,0.0,0.0,0.0,0.0,0.0,0.0,0.0,0.0,0.0,0.0,0.0,0.0,0.0,0.0,0.0,0.0,0.0,0.0,0.0,0.0,0.0,0.0,0.0,0.0,0.0,0.0,0.0,0.0,0.0,0.0,0.0,0.0,0.0,0.0,0.0,0.0,0.0,0.0,0.0,0.0,0.0,0.0,0.0,0.0,0.0,0.0,0.0,0.0,0.0,0.0,0.0,0.0,0.0,0.0,0.0,0.0,0.0,0.0,0.0,0.0,0.0,0.0,0.0,0.0,0.0,0.0,0.0,-0.9344,-0.9344,-0.9688,-0.9666,-0.9532,0.0,0.0,0.0,0.0,0.0,0.0,0.0,0.0,0.0,0.0,0.0,0.0,0.0,0.0,0.0,0.0,0.0,0.0,0.0,0.0,0.0,0.0,0.0,0.0,0.0,0.0,0.0,0.0,0.0,0.0,0.0,0.0,0.0,0.0,0.0,0.0,0.0,0.0,0.0,0.0,0.0,0.0,0.0,0.0,0.0,0.0,0.0,0.0,0.0,0.0,0.0,0.0,0.0,0.0,0.0,0.0,0.0,0.0,0.0,0.0,0.0,0.0,0.0,0.0,0.0,0.0,0.0,0.0,0.0,0.0,0.0,0.0,0.0,0.0,0.0,0.0,0.0,0.0,0.0,0.0,0.0,0.0,0.0,0.0,0.0,0.0,0.0,0.0,0.0,0.0,0.0,0.0,0.0,0.0,0.0,0.0,0.0,0.0,0.0,0.0,0.0,0.0,0.0,0.0,0.0,0.0,0.0,0.0,0.0,-0.9112,-0.9164,-0.9444,-0.9927,-0.9599,-0.9411,0.0,0.0,0.0,0.0,0.0,0.0,0.0,0.0,0.0,0.0,0.0,0.0,0.0,0.0,0.0,0.0,0.0,0.0,0.0,0.0,0.0,0.0,0.0,0.0,0.0,0.0,0.0,0.0,0.0,0.0,0.0,0.0,0.0,0.0,0.0,0.0,0.0,0.0,0.0,0.0,0.0,0.0,0.0,0.0,0.0,0.0,0.0,0.0,0.0,0.0,0.0,0.0,0.0,0.0,0.0,0.0,0.0,0.0,0.0,0.0,0.0,0.0,0.0,0.0,0.0,0.0,0.0,0.0,0.0,0.0,0.0,0.0,0.0,0.0,0.0,0.0,0.0,0.0,0.0,0.0,0.0,0.0,0.0,0.0,0.0,0.0,0.0,0.0,0.0,0.0,0.0,0.0,0.0,0.0,0.0,0.0,0.0,0.0,0.0,0.0,0.0,0.0,0.0,0.0,0.0,0.0,0.0,0.0,0.0,-0.9092,0.0,-0.9644,0.0,-0.9593,-0.9357,0.0,0.0,0.0,0.0,0.0,0.0,0.0,0.0,0.0,0.0,0.0,0.0,0.0,0.0,0.0,0.0,0.0,0.0,0.0,0.0,0.0,0.0,0.0,0.0,0.0,0.0,0.0,0.0,0.0,0.0,0.0,0.0,0.0,0.0,0.0,0.0,0.0,0.0,0.0,0.0,0.0,0.0,0.0,0.0,0.0,0.0,0.0,0.0,0.0,0.0,0.0,0.0,0.0,0.0,0.0,0.0,0.0,0.0,0.0,0.0,0.0,0.0,0.0,0.0,0.0,0.0,0.0,0.0,0.0,0.0,0.0,0.0,0.0,0.0,0.0,0.0,0.0,0.0,0.0,0.0,0.0,0.0,0.0,0.0,0.0,0.0,0.0,0.0,0.0,0.0,0.0,0.0,0.0,0.0,0.0,0.0,0.0,0.0,0.0,0.0,0.0,0.0,0.0,0.0,0.0,0.0,0.0,0.0,-0.9098,-0.9675,-0.994,-0.9953,-0.9735,-0.9702,-0.9434,0.0,0.0,0.0,0.0,0.0,0.0,0.0,0.0,0.0,0.0,0.0,0.0,0.0,0.0,0.0,0.0,0.0,0.0,0.0,0.0,0.0,0.0,0.0,0.0,0.0,0.0,0.0,0.0,0.0,0.0,0.0,0.0,0.0,0.0,0.0,0.0,0.0,0.0,0.0,0.0,0.0,0.0,0.0,0.0,0.0,0.0,0.0,0.0,0.0,0.0,0.0,0.0,0.0,0.0,0.0,0.0,0.0,0.0,0.0,0.0,0.0,0.0,0.0,0.0,0.0,0.0,0.0,0.0,0.0,0.0,0.0,0.0,0.0,0.0,0.0,0.0,0.0,0.0,0.0,0.0,0.0,0.0,0.0,0.0,0.0,0.0,0.0,0.0,0.0,0.0,0.0,0.0,0.0,0.0,0.0,0.0,0.0,0.0,0.0,0.0,0.0,0.0,0.0,0.0,0.0,0.0,0.0,0.0,0.0,-0.9351,-0.9666,-0.9873,-0.9967,-0.9586,-0.9357,0.0,0.0,0.0,0.0,0.0,0.0,0.0,0.0,0.0,0.0,0.0,0.0,0.0,0.0,0.0,0.0,0.0,0.0,0.0,0.0,0.0,0.0,0.0,0.0,0.0,0.0,0.0,0.0,0.0,0.0,0.0,0.0,0.0,0.0,0.0,0.0,0.0,0.0,0.0,0.0,0.0,0.0,0.0,0.0,0.0,0.0,0.0,0.0,0.0,0.0,0.0,0.0,0.0,0.0,0.0,0.0,0.0,0.0,0.0,0.0,0.0,0.0,0.0,0.0,0.0,0.0,0.0,0.0,0.0,0.0,0.0,0.0,0.0,0.0,0.0,0.0,0.0,0.0,0.0,0.0,0.0,0.0,0.0,0.0,0.0,0.0,0.0,0.0,0.0,0.0,0.0,0.0,0.0,0.0,0.0,0.0,0.0,0.0,0.0,0.0,0.0,0.0,0.0,0.0,0.0,0.0,0.0,0.0,0.0,-0.971,-0.9943,-1.01,-1.0281,-0.9684,-0.9411,-0.9499,0.0,0.0,0.0,0.0,0.0,0.0,0.0,0.0,0.0,0.0,0.0,0.0,0.0,0.0,0.0,0.0,0.0,0.0,0.0,0.0,0.0,0.0,0.0,0.0,0.0,0.0,0.0,0.0,0.0,0.0,0.0,0.0,0.0,0.0,0.0,0.0,0.0,0.0,0.0,0.0,0.0,0.0,0.0,0.0,0.0,0.0,0.0,0.0,0.0,0.0,0.0,0.0,0.0,0.0,0.0,0.0,0.0,0.0,0.0,0.0,0.0,0.0,0.0,0.0,0.0,0.0,0.0,0.0,0.0,0.0,0.0,0.0,0.0,0.0,0.0,0.0,0.0,0.0,0.0,0.0,0.0,0.0,0.0,0.0,0.0,0.0,0.0,0.0,0.0,0.0,0.0,0.0,0.0,0.0,0.0,0.0,0.0,0.0,0.0,0.0,0.0,0.0,0.0,0.0,0.0,0.0,0.0,0.0,-1.0633,-1.064,-1.0633,-1.0613,-1.0064,-0.9586,0.0,0.0,0.0,0.0,0.0,0.0,0.0,0.0,0.0,0.0,0.0,0.0,0.0,0.0,0.0,0.0,0.0,0.0,0.0,0.0,0.0,0.0,0.0,0.0,0.0,0.0,0.0,0.0,0.0,0.0,0.0,0.0,0.0,0.0,0.0,0.0,0.0,0.0,0.0,0.0,0.0,0.0,0.0,0.0,0.0,0.0,0.0,0.0,0.0,0.0,0.0,0.0,0.0,0.0,0.0,0.0,0.0,0.0,0.0,0.0,0.0,0.0,0.0,0.0,0.0,0.0,0.0,0.0,0.0,0.0,0.0,0.0,0.0,0.0,0.0,0.0,0.0,0.0,0.0,0.0,0.0,0.0,0.0,0.0,0.0,0.0,0.0,0.0,0.0,0.0,0.0,0.0,0.0,0.0,0.0,0.0,0.0,0.0,0.0,0.0,0.0,0.0,0.0,0.0,0.0,0.0,0.0,0.0,0.0,-1.1169,-1.1196,-1.1102,-1.0882,-1.0553,-1.0124,0.0,0.0,0.0,0.0,0.0,0.0,0.0,0.0,0.0,0.0,0.0,0.0,0.0,0.0,0.0,0.0,0.0,0.0,0.0,0.0,0.0,0.0,0.0,0.0,0.0,0.0,0.0,0.0,0.0,0.0,0.0,0.0,0.0,0.0,0.0,0.0,0.0,0.0,0.0,0.0,0.0,0.0,0.0,0.0,0.0,0.0,0.0,0.0,0.0,0.0,0.0,0.0,0.0,0.0,0.0,0.0,0.0,0.0,0.0,0.0,0.0,0.0,0.0,0.0,0.0,0.0,0.0,0.0,0.0,0.0,0.0,0.0,0.0,0.0,0.0,0.0,0.0,0.0,0.0,0.0,0.0,0.0,0.0,0.0,0.0,0.0,0.0,0.0,0.0,0.0,0.0,0.0,0.0,0.0,0.0,0.0,0.0,0.0,0.0,0.0,0.0,0.0,0.0,0.0,0.0,0.0,0.0,0.0,-1.1062,-1.1597,-1.1737,-1.1657,-1.1363,-1.0995,-1.0468,0.0,0.0,0.0,0.0,0.0,0.0,0.0,0.0,0.0,0.0,0.0,0.0,0.0,0.0,0.0,0.0,0.0,0.0,0.0,0.0,0.0,0.0,0.0,0.0,0.0,0.0,0.0,0.0,0.0,0.0,0.0,0.0,0.0,0.0,0.0,0.0,0.0,0.0,0.0,0.0,0.0,0.0,0.0,0.0,0.0,0.0,0.0,0.0,0.0,0.0,0.0,0.0,0.0,0.0,0.0,0.0,0.0,0.0,0.0,0.0,0.0,0.0,0.0,0.0,0.0,0.0,0.0,0.0,0.0,0.0,0.0,0.0,0.0,0.0,0.0,0.0,0.0,0.0,0.0,0.0,0.0,0.0,0.0,0.0,0.0,0.0,0.0,0.0,0.0,0.0,0.0,0.0,0.0,0.0,0.0,0.0,0.0,0.0,0.0,0.0,0.0,0.0,0.0,0.0,0.0,0.0,0.0,0.0,-1.1377,-1.1893,-1.2151,-1.2178,-1.1946,-1.1376,-1.0788,0.0,0.0,0.0,0.0,0.0,0.0,0.0,0.0,0.0,0.0,0.0,0.0,0.0,0.0,0.0,0.0,0.0,0.0,0.0,0.0,0.0,0.0,0.0,0.0,0.0,0.0,0.0,0.0,0.0,0.0,0.0,0.0,0.0,0.0,0.0,0.0,0.0,0.0,0.0,0.0,0.0,0.0,0.0,0.0,0.0,0.0,0.0,0.0,0.0,0.0,0.0,0.0,0.0,0.0,0.0,0.0,0.0,0.0,0.0,0.0,0.0,0.0,0.0,0.0,0.0,0.0,0.0,0.0,0.0,0.0,0.0,0.0,0.0,0.0,0.0,0.0,0.0,0.0,0.0,0.0,0.0,0.0,0.0,0.0,0.0,0.0,0.0,0.0,0.0,0.0,0.0,0.0,0.0,0.0,0.0,0.0,0.0,0.0,0.0,0.0,0.0,0.0,0.0,0.0,0.0,0.0,0.0,0.0,-1.1772,-1.1906,-1.2151,-1.2271,-1.2211,-1.1864,-1.1337,0.0,0.0,0.0,0.0,0.0,0.0,0.0,0.0,0.0,0.0,0.0,0.0,0.0,0.0,0.0,0.0,0.0,0.0,0.0,0.0,0.0,0.0,0.0,0.0,0.0,0.0,0.0,0.0,0.0,0.0,0.0,0.0,0.0,0.0,0.0,0.0,0.0,0.0,0.0,0.0,0.0,0.0,0.0,0.0,0.0,0.0,0.0,0.0,-0.2009,0.0,0.0,0.0,0.0,0.0,0.0,0.0,0.0,0.0,0.0,0.0,0.0,0.0,0.0,0.0,0.0,0.0,0.0,0.0,0.0,0.0,0.0,0.0,0.0,0.0,0.0,0.0,0.0,0.0,0.0,0.0,0.0,0.0,0.0,0.0,0.0,0.0,0.0,0.0,0.0,0.0,0.0,0.0,0.0,0.0,0.0,0.0,0.0,0.0,0.0,0.0,0.0,0.0,0.0,0.0,0.0,0.0,0.0,0.0,-1.2071,-1.2078,-1.2395,-1.2445,-1.2305,-1.2151,-1.1698,0.0,0.0,0.0,0.0,0.0,0.0,0.0,0.0,0.0,0.0,0.0,0.0,0.0,0.0,0.0,0.0,0.0,0.0,0.0,0.0,0.0,0.0,0.0,0.0,0.0,0.0,0.0,0.0,0.0,0.0,0.0,0.0,0.0,0.0,0.0,0.0,0.0,0.0,0.0,0.0,0.0,0.0,0.0,0.0,0.0,0.0,0.0,0.0,0.0,0.0,0.0,0.0,0.0,0.0,0.0,0.0,0.0,0.0,0.0,0.0,0.0,0.0,0.0,0.0,0.0,0.0,0.0,0.0,0.0,0.0,0.0,0.0,0.0,0.0,0.0,0.0,0.0,0.0,0.0,0.0,0.0,0.0,0.0,0.0,0.0,0.0,0.0,0.0,0.0,0.0,0.0,0.0,0.0,0.0,0.0,0.0,0.0,0.0,0.0,0.0,0.0,0.0,0.0,0.0,0.0,0.0,0.0,-1.1797,-1.2325,-1.2378,-1.2656,-1.2643,-1.2318,-1.2305,-1.1911,-1.1096,0.0,0.0,0.0,0.0,0.0,0.0,0.0,0.0,0.0,0.0,0.0,0.0,0.0,0.0,0.0,0.0,0.0,0.0,0.0,0.0,0.0,0.0,0.0,0.0,0.0,0.0,0.0,0.0,0.0,0.0,0.0,0.0,0.0,0.0,0.0,0.0,0.0,0.0,-0.4965,-0.5355,0.0,0.0,0.0,0.0,0.0,0.0,0.0,0.0,-0.1088,0.0,0.0,0.0,0.0,0.0,0.0,0.0,0.0,0.0,0.0,0.0,0.0,0.0,0.0,0.0,0.0,0.0,0.0,0.0,0.0,0.0,0.0,0.0,0.0,0.0,0.0,0.0,0.0,0.0,0.0,0.0,0.0,0.0,0.0,0.0,0.0,0.0,0.0,0.0,0.0,0.0,0.0,0.0,0.0,0.0,0.0,0.0,0.0,0.0,0.0,0.0,0.0,0.0,0.0,0.0,0.0,-1.1997,-1.2204,-1.2425,-1.2703,-1.2757,-1.2636,-1.2318,-1.2305,-1.2004,-1.1342,0.0,0.0,0.0,0.0,0.0,0.0,0.0,0.0,0.0,0.0,0.0,0.0,0.0,0.0,0.0,0.0,0.0,0.0,0.0,0.0,0.0,0.0,0.0,0.0,0.0,0.0,0.0,0.0,0.0,0.0,0.0,0.0,0.0,0.0,0.0,0.0,0.0,0.0,0.0,-0.5566,-0.5766,0.0,0.0,0.0,0.0,0.0,0.0,0.0,0.0,0.0,0.0,0.0,0.0,0.0,0.0,0.0,0.0,0.0,0.0,0.0,0.0,0.0,0.0,0.0,0.0,0.0,0.0,0.0,0.0,0.0,0.0,0.0,0.0,0.0,0.0,0.0,0.0,0.0,0.0,0.0,0.0,0.0,0.0,0.0,0.0,0.0,0.0,0.0,0.0,0.0,0.0,0.0,0.0,0.0,0.0,0.0,0.0,0.0,0.0,0.0,0.0,0.0,0.0,0.0,0.0,-1.1817,-1.2458,-1.2846,-1.2986,-1.3025,-1.2846,-1.2538,-1.2275,-1.187,0.0,0.0,0.0,0.0,0.0,0.0,0.0,0.0,0.0,0.0,0.0,0.0,0.0,0.0,0.0,0.0,0.0,0.0,0.0,0.0,0.0,0.0,0.0,0.0,0.0,0.0,0.0,0.0,0.0,0.0,0.0,0.0,0.0,0.0,0.0,0.0,0.0,0.0,0.0,0.0,-0.5783,-0.5882,-0.5882,0.0,0.0,0.0,0.0,0.0,0.0,-0.1165,0.0,0.0,0.0,0.0,0.0,0.0,0.0,0.0,0.0,0.0,0.0,0.0,0.0,0.0,0.0,0.0,0.0,0.0,0.0,0.0,0.0,0.0,0.0,0.0,0.0,0.0,0.0,0.0,0.0,0.0,0.0,0.0,0.0,0.0,0.0,0.0,0.0,0.0,0.0,0.0,0.0,0.0,0.0,0.0,0.0,0.0,0.0,0.0,0.0,0.0,0.0,0.0,0.0,0.0,0.0,0.0,-1.1568,-1.2599,-1.318,-1.3253,-1.324,-1.3066,-1.2822,-1.2261,-1.1764,0.0,0.0,0.0,0.0,0.0,0.0,0.0,0.0,0.0,0.0,0.0,0.0,0.0,0.0,0.0,0.0,0.0,0.0,0.0,0.0,0.0,0.0,0.0,0.0,0.0,0.0,0.0,0.0,0.0,0.0,0.0,0.0,0.0,0.0,0.0,0.0,0.0,0.0,0.0,0.0,0.0,-0.6038,-0.5777,-0.5906,0.0,0.0,0.0,0.0,-0.2608,-0.1127,0.0,0.0,0.0,0.0,0.0,0.0,0.0,0.0,0.0,0.0,0.0,0.0,0.0,0.0,0.0,0.0,0.0,0.0,0.0,0.0,0.0,0.0,0.0,0.0,0.0,0.0,0.0,0.0,0.0,0.0,0.0,0.0,0.0,0.0,0.0,0.0,0.0,0.0,0.0,0.0,0.0,0.0,0.0,0.0,0.0,0.0,0.0,0.0,0.0,0.0,0.0,0.0,0.0,0.0,0.0,0.0,-1.2158,-1.263,-1.3099,-1.3513,-1.33,-1.306,-1.279,-1.2462,-1.187,0.0,0.0,0.0,0.0,0.0,0.0,0.0,0.0,0.0,0.0,0.0,0.0,0.0,0.0,0.0,0.0,0.0,0.0,0.0,0.0,0.0,0.0,0.0,0.0,0.0,0.0,0.0,0.0,0.0,0.0,0.0,0.0,0.0,0.0,0.0,0.0,0.0,0.0,0.0,0.0,0.0,-0.6207,-0.5031,-0.5683,-0.5562,0.0,0.0,-0.2527,-0.1625,-0.066,0.0,0.0,0.0,0.0,0.0,0.0,0.0,0.0,0.0,0.0,0.0,0.0,0.0,0.0,0.0,0.0,0.0,0.0,0.0,0.0,0.0,0.0,0.0,0.0,0.0,0.0,0.0,0.0,0.0,0.0,0.0,0.0,0.0,0.0,0.0,0.0,0.0,0.0,0.0,0.0,0.0,0.0,0.0,0.0,0.0,0.0,0.0,0.0,0.0,0.0,0.0,0.0,0.0,0.0,0.0,-1.1169,-1.2278,-1.2933,-1.3467,-1.3861,-1.3447,-1.3146,-1.3006,-1.2392,-1.1724,0.0,0.0,0.0,0.0,0.0,0.0,0.0,0.0,0.0,0.0,0.0,0.0,0.0,0.0,0.0,0.0,0.0,0.0,0.0,0.0,0.0,0.0,0.0,0.0,0.0,0.0,0.0,0.0,0.0,0.0,0.0,0.0,0.0,0.0,0.0,0.0,0.0,0.0,0.0,0.0,0.0,0.0,-0.4907,-0.4625,0.0,0.0,0.0,-0.1865,-0.1501,0.0,0.0,0.0,0.0,0.0,0.0,0.0,0.0,0.0,0.0,0.0,0.0,0.0,0.0,0.0,0.0,0.0,0.0,0.0,0.0,0.0,0.0,0.0,0.0,0.0,0.0,0.0,0.0,0.0,0.0,0.0,0.0,0.0,0.0,0.0,0.0,0.0,0.0,0.0,0.0,0.0,0.0,0.0,0.0,0.0,0.0,0.0,0.0,0.0,0.0,0.0,0.0,0.0,0.0,0.0,0.0,0.0,-1.2298,-1.3147,-1.3746,-1.4062,-1.3587,-1.3287,-1.32,-1.2412,0.0,0.0,0.0,0.0,0.0,0.0,0.0,0.0,0.0,0.0,0.0,0.0,0.0,0.0,0.0,0.0,0.0,0.0,0.0,0.0,0.0,0.0,0.0,0.0,0.0,0.0,0.0,-0.4491,0.0,0.0,0.0,0.0,0.0,0.0,0.0,0.0,0.0,0.0,0.0,0.0,0.0,0.0,-0.4638,-0.4121,-0.3549,-0.2968,0.0,0.0,-0.134,-0.1234,-0.054,0.0,0.0,0.0,0.0,0.0,0.0,0.0,0.0,0.0,0.0,0.0,0.0,0.0,0.0,0.0,0.0,0.0,0.0,0.0,0.0,0.0,0.0,0.0,0.0,0.0,0.0,0.0,0.0,0.0,0.0,0.0,0.0,0.0,0.0,0.0,0.0,0.0,0.0,0.0,0.0,0.0,0.0,0.0,0.0,0.0,0.0,0.0,0.0,0.0,0.0,0.0,0.0,0.0,0.0,0.0,0.0,-1.2291,-1.3147,-1.3753,-1.4068,-1.3781,-1.3447,-1.3213,-1.2599,-1.175,0.0,0.0,0.0,0.0,0.0,0.0,0.0,0.0,0.0,0.0,0.0,0.0,0.0,0.0,0.0,0.0,0.0,0.0,0.0,0.0,0.0,0.0,0.0,0.0,0.0,0.0,0.0,0.0,0.0,0.0,0.0,0.0,0.0,0.0,0.0,0.0,0.0,0.0,0.0,0.0,0.0,-0.4261,-0.2136,-0.2713,-0.2626,0.0,0.0,-0.1247,-0.0268,0.0,0.0,0.0,0.0,0.0,0.0,0.0,0.0,0.0,0.0,0.0,0.0,0.0,0.0,0.0,0.0,0.0,0.0,0.0,0.0,0.0,0.0,0.0,0.0,0.0,0.0,0.0,0.0,0.0,0.0,0.0,0.0,0.0,0.0,0.0,0.0,0.0,0.0,0.0,0.0,0.0,0.0,0.0,0.0,0.0,0.0,0.0,0.0,0.0,0.0,0.0,0.0,0.0,0.0,0.0,0.0,-1.161,-1.2298,-1.3367,-1.3975,-1.4075,-1.376,-1.3467,-1.3213,-1.2799,-1.206,0.0,0.0,0.0,0.0,0.0,0.0,0.0,0.0,0.0,0.0,0.0,0.0,0.0,0.0,0.0,0.0,0.0,0.0,0.0,0.0,0.0,0.0,0.0,0.0,0.0,0.0,0.0,0.0,-0.4716,-0.4745,-0.4745,0.0,0.0,0.0,0.0,0.0,0.0,0.0,0.0,0.0,0.0,-0.2662,-0.1806,-0.1498,0.0,0.0,-0.0329,-0.0464,-0.0046,0.0,0.0,0.0,0.0,0.0,0.0,0.0,0.0,0.0,0.0,0.0,0.0,0.0,0.0,0.0,0.0,0.0,0.0,0.0,0.0,0.0,0.0,0.0,0.0,0.0,0.0,0.0,0.0,0.0,0.0,0.0,0.0,0.0,0.0,0.0,0.0,0.0,0.0,0.0,0.0,0.0,0.0,0.0,0.0,0.0,0.0,0.0,0.0,0.0,0.0,0.0,0.0,0.0,0.0,0.0,0.0,-1.1717,-1.2298,-1.3474,-1.4088,-1.4088,-1.3888,-1.3593,-1.33,-1.2991,-1.2275,0.0,0.0,0.0,0.0,0.0,0.0,0.0,0.0,0.0,0.0,0.0,0.0,0.0,0.0,0.0,0.0,0.0,0.0,0.0,0.0,0.0,0.0,0.0,0.0,0.0,0.0,0.0,0.0,-0.4857,-0.487,-0.4857,0.0,0.0,0.0,0.0,0.0,0.0,0.0,0.0,0.0,0.0,-0.1524,-0.1291,-0.0531,0.0,0.0,0.0,0.0,0.0,0.0,0.0,0.0,0.0,0.0,0.0,0.0,0.0,0.0,0.0,0.0,0.0,0.0,0.0,0.0,0.0,0.0,0.0,0.0,0.0,0.0,0.0,0.0,0.0,0.0,0.0,0.0,0.0,0.0,0.0,-0.9239,0.0,0.0,-0.8831,0.0,0.0,0.0,0.0,0.0,0.0,0.0,0.0,0.0,0.0,0.0,0.0,0.0,0.0,0.0,0.0,0.0,0.0,0.0,0.0,0.0,0.0,-1.1688,-1.2311,-1.3487,-1.4088,-1.4088,-1.4082,-1.3928,-1.3586,-1.3099,-1.2362,-1.143,0.0,0.0,0.0,0.0,0.0,0.0,0.0,0.0,0.0,0.0,0.0,0.0,0.0,0.0,0.0,0.0,0.0,0.0,0.0,0.0,0.0,0.0,0.0,0.0,0.0,0.0,-0.4921,-0.4921,-0.4837,0.0,0.0,0.0,0.0,0.0,0.0,0.0,0.0,0.0,0.0,-0.224,-0.1197,-0.0196,0.0,0.0,0.0,0.0,0.0,0.0,0.0,0.0,0.0,0.0,0.0,0.0,0.0,0.0,0.0,0.0,0.0,0.0,0.0,0.0,0.0,0.0,0.0,0.0,0.0,0.0,0.0,0.0,0.0,0.0,0.0,0.0,0.0,0.0,0.0,-1.0903,-1.0164,0.0,0.0,0.0,0.0,0.0,0.0,0.0,0.0,0.0,0.0,0.0,-1.2375,-1.3019,0.0,0.0,0.0,0.0,0.0,0.0,0.0,0.0,0.0,0.0,0.0,0.0,-1.2011,-1.2643,-1.3621,-1.4088,-1.4088,-1.4088,-1.3948,-1.3606,-1.326,-1.2452,-1.1176,0.0,0.0,0.0,0.0,0.0,0.0,0.0,0.0,0.0,0.0,0.0,0.0,0.0,0.0,0.0,0.0,0.0,0.0,0.0,0.0,0.0,0.0,0.0,0.0,0.0,-0.5101,0.0,0.0,0.0,0.0,0.0,0.0,0.0,0.0,0.0,0.0,0.0,-0.3547,-0.3476,-0.1757,-0.044,-0.005,0.0,0.0,0.0,0.0,0.0,0.0,0.0,0.0,0.0,0.0,0.0,0.0,0.0,0.0,0.0,0.0,0.0,0.0,0.0,0.0,0.0,0.0,0.0,0.0,0.0,0.0,0.0,0.0,0.0,0.0,0.0,0.0,0.0,0.0,0.0,-1.1516,0.0,-1.1203,0.0,0.0,0.0,0.0,0.0,0.0,0.0,0.0,-1.312,-1.3554,-1.3434,-1.411,-1.4077,0.0,-1.3267,-1.2525,0.0,0.0,0.0,0.0,0.0,0.0,0.0,0.0,-1.2201,-1.279,-1.3675,-1.4088,-1.4088,-1.4088,-1.3995,-1.376,-1.2941,-1.1771,-1.0218,-0.9871,-0.9137,0.0,0.0,0.0,0.0,0.0,0.0,0.0,0.0,0.0,0.0,0.0,0.0,0.0,0.0,0.0,0.0,0.0,0.0,0.0,0.0,0.0,0.0,0.0,-0.5226,0.0,0.0,0.0,0.0,0.0,0.0,0.0,0.0,0.0,-0.5885,-0.4808,-0.3732,-0.3052,-0.1661,-0.0547,-0.005,0.0,0.0,0.0,0.0,0.0,0.0,0.0,0.0,0.0,0.0,0.0,0.0,0.0,0.0,0.0,0.0,0.0,0.0,0.0,0.0,0.0,0.0,0.0,0.0,0.0,0.0,0.0,0.0,0.0,0.0,0.0,0.0,0.0,0.0,-1.2762,-1.2378,0.0,-1.2358,0.0,0.0,0.0,0.0,0.0,-1.2522,0.0,0.0,-1.4122,-1.4536,-1.4556,-1.485,-1.4874,-1.4576,-1.481,-1.4349,-1.3193,-1.181,0.0,0.0,0.0,0.0,0.0,0.0,-1.2234,-1.2831,-1.3688,-1.4088,-1.4088,-1.4088,-1.4082,-1.3951,-1.2218,-1.0465,-0.8717,-0.8299,-0.7811,-0.7339,-0.7173,0.0,0.0,0.0,0.0,0.0,0.0,0.0,0.0,0.0,0.0,0.0,0.0,0.0,0.0,0.0,0.0,0.0,0.0,0.0,0.0,-0.5225,0.0,0.0,0.0,0.0,0.0,0.0,0.0,0.0,0.0,0.0,-0.4619,-0.5122,-0.454,-0.2152,0.0,0.0,0.0,0.0,0.0,0.0,0.0,0.0,0.0,0.0,0.0,0.0,0.0,0.0,0.0,0.0,0.0,0.0,0.0,0.0,0.0,0.0,0.0,0.0,0.0,0.0,0.0,0.0,0.0,-2.0713,0.0,0.0,0.0,0.0,-1.6158,-1.5526,-1.5614,-1.4421,-1.3768,-1.3574,-1.3574,0.0,0.0,0.0,0.0,0.0,0.0,-1.3654,-1.4155,-1.4629,-1.4995,-1.515,-1.5444,-1.5431,-1.515,-1.5231,-1.4883,-1.4148,-1.3721,-1.2612,-1.0915,0.0,0.0,0.0,0.0,-1.3013,-1.3387,-1.3854,-1.4088,-1.4088,-1.4088,-1.3591,-1.2569,-1.1924,-1.0757,-0.9018,-0.8726,-0.8095,-0.7098,-0.6886,0.0,0.0,0.0,0.0,0.0,0.0,0.0,0.0,0.0,0.0,0.0,0.0,0.0,0.0,0.0,0.0,0.0,0.0,0.0,-0.5019,-0.5345,-0.5593,0.0,0.0,0.0,0.0,0.0,0.0,0.0,0.0,0.0,-0.2743,-0.2783,-0.2639,0.0,0.0,-0.0404,-0.005,0.0,0.0,0.0,0.0,0.0,0.0,0.0,0.0,0.0,0.0,0.0,0.0,0.0,0.0,0.0,0.0,0.0,0.0,0.0,0.0,0.0,0.0,0.0,0.0,0.0,0.0,-2.2148,-2.1052,-1.9769,-1.8704,-1.7747,-1.6465,-1.5936,-1.5896,-1.5065,-1.4656,-1.4603,-1.4609,-1.4278,-1.3655,-1.3427,0.0,0.0,0.0,-1.4266,-1.487,-1.5057,-1.5297,-1.5565,-1.5745,-1.5738,-1.5571,-1.5565,-1.5324,-1.4825,-1.4863,-1.3975,-1.2285,0.0,0.0,-1.2301,-1.314,-1.3701,-1.3939,-1.4168,-1.4255,-1.4262,-1.4148,-1.3435,-1.2099,-1.1477,-1.0484,-0.8979,-0.827,-0.7497,-0.6677,-0.6468,-0.5955,0.0,0.0,0.0,0.0,0.0,0.0,0.0,0.0,0.0,0.0,0.0,-0.4901,-0.4692,0.0,0.0,0.0,-0.4925,-0.5196,-0.5545,-0.5796,0.0,0.0,0.0,0.0,0.0,0.0,0.0,-0.4644,-0.32,-0.1906,-0.1188,-0.1091,-0.1145,-0.1208,-0.0958,-0.0605,-0.0101,0.0,0.0,0.0,0.0,0.0,0.0,0.0,0.0,0.0,0.0,0.0,0.0,0.0,0.0,0.0,0.0,0.0,0.0,0.0,0.0,0.0,0.0,0.0,0.0,0.0,0.0,-2.3003,-2.2663,-2.0732,-1.874,-1.6846,-1.6625,-1.5981,-1.5075,-1.5075,-1.5177,-1.5431,-1.5431,-1.5271,-1.5008,-1.4436,0.0,-1.4596,-1.4616,-1.4917,-1.5431,-1.5431,-1.5578,-1.5825,-1.5825,-1.5825,-1.5825,-1.5825,-1.5691,-1.5438,-1.5424,-1.501,-1.4208,-1.39,-1.3733,-1.366,-1.4001,-1.4289,-1.4556,-1.4556,-1.4499,-1.4379,-1.4107,-1.3343,-1.2017,-1.0879,-0.9698,-0.8573,-0.7219,-0.6436,-0.63,-0.5979,-0.5691,-0.5443,0.0,0.0,0.0,0.0,0.0,0.0,0.0,0.0,0.0,0.0,0.0,0.0,0.0,0.0,0.0,-0.5457,0.0,-0.6276,-0.6457,0.0,0.0,0.0,-0.6893,-0.6837,-0.4924,-0.3569,-0.3479,0.0,0.0,0.0,0.0,0.0,0.0,-0.106,-0.1411,-0.0152,0.0,0.0,0.0,0.0,0.0,0.0,0.0,0.0,0.0,0.0,0.0,0.0,0.0,0.0,0.0,0.0,0.0,0.0,0.0,0.0,0.0,0.0,0.0,0.0,0.0,0.0,-2.2006,-2.0342,-1.9847,-1.9322,-1.8646,-1.68,-1.5845,-1.5618,-1.5625,-1.5618,-1.5725,-1.5732,-1.5565,-1.5291,-1.515,-1.5124,-1.5197,-1.5411,-1.5591,-1.5718,-1.5725,-1.5765,-1.5825,-1.5825,-1.5825,-1.5825,-1.5825,-1.5744,-1.5684,-1.5678,-1.5511,-1.5117,-1.5237,-1.4819,-1.4035,-1.4496,-1.4827,-1.4863,-1.4901,-1.4332,-1.3254,-1.2899,-1.1778,-0.9749,-0.914,-0.8346,-0.7201,-0.6628,-0.6334,-0.6296,-0.6078,-0.5855,-0.5705,-0.5275,0.0,0.0,0.0,0.0,0.0,0.0,0.0,0.0,0.0,-0.5433,-0.4958,0.0,-0.5633,0.0,-0.5893,-0.6228,-0.6443,-0.6661,0.0,0.0,-0.7244,-0.6985,-0.6285,-0.4758,-0.3369,-0.2478,-0.1003,0.0,0.0,0.0,0.0,0.0,0.0,-0.0355,0.0,0.0,0.0,0.0,0.0,0.0,0.0,0.0,0.0,0.0,0.0,0.0,0.0,0.0,0.0,0.0,0.0,0.0,0.0,0.0,0.0,0.0,0.0,0.0,0.0,0.0,0.0,-2.2485,-2.0998,-1.9951,-1.9497,-1.9314,-1.6842,-1.5825,-1.5825,-1.5825,-1.5825,-1.5825,-1.5825,-1.5738,-1.5591,-1.5591,-1.5585,-1.5605,-1.5758,-1.5825,-1.5825,-1.5825,-1.5825,-1.5825,-1.5825,-1.5825,-1.5825,-1.5825,-1.5825,-1.5825,-1.5825,-1.5698,-1.5598,-1.5745,-1.5511,-1.491,-1.5184,-1.5107,-1.4534,-1.4368,-1.3781,-1.2815,-1.2051,-1.0965,-0.9614,-0.8976,-0.8242,-0.7477,-0.6822,-0.6436,-0.6306,-0.6179,-0.6034,-0.5813,-0.5566,-0.5332,0.0,0.0,0.0,0.0,0.0,0.0,0.0,0.0,0.0,0.0,0.0,-0.6064,-0.6081,-0.643,-0.6742,-0.6953,-0.7183,-0.7414,-0.7645,-0.7668,-0.7231,-0.6111,-0.4779,-0.3428,-0.216,-0.0807,0.0,0.0,0.0,0.0,0.0,0.0,0.0,0.0,0.0,0.0,0.0,0.0,0.0,0.0,0.0,0.0,0.0,0.0,0.0,0.0,0.0,0.0,0.0,0.0,0.0,0.0,0.0,0.0,0.0,0.0,0.0,0.0,0.0,0.0,-2.3475,-2.2763,-2.0466,-1.9397,-1.9085,-1.6796,-1.5825,-1.5825,-1.5825,-1.5825,-1.5825,-1.5825,-1.5825,-1.5825,-1.5825,-1.5825,-1.5825,-1.5825,-1.5825,-1.5825,-1.5825,-1.5825,-1.5825,-1.5825,-1.5825,-1.5825,-1.5635,-1.5581,-1.5581,-1.5397,-1.5296,-1.5296,-1.5296,-1.5194,-1.5051,-1.5242,-1.4908,-1.4166,-1.3667,-1.313,-1.2644,-1.1287,-1.0406,-1.0007,-0.9108,-0.8495,-0.8176,-0.7207,-0.6552,-0.6347,-0.6347,-0.6224,-0.5905,-0.5854,-0.5779,0.0,-0.5613,0.0,0.0,0.0,0.0,0.0,0.0,0.0,0.0,-0.6399,-0.6508,-0.6763,-0.7054,-0.7291,-0.7604,-0.7756,-0.7847,-0.7971,-0.7988,-0.7434,-0.5927,-0.472,-0.3416,-0.1913,-0.0707,0.0,0.0,0.0,0.0,0.0,0.0,0.0,0.0,0.0,0.0,0.0,0.0,0.0,0.0,0.0,0.0,0.0,0.0,0.0,0.0,0.0,0.0,0.0,0.0,0.0,0.0,0.0,0.0,0.0,0.0,0.0,0.0,0.0,0.0,-2.319,-2.2062,-2.0261,-1.8956,-1.7917,-1.6433,-1.5825,-1.5825,-1.5825,-1.5825,-1.5825,-1.5825,-1.5825,-1.5825,-1.5825,-1.5825,-1.5825,-1.5825,-1.5825,-1.5825,-1.5825,-1.5825,-1.5825,-1.5825,-1.5825,-1.573,-1.4752,-1.4268,-1.4268,-1.3156,-1.263,-1.263,-1.2624,-1.2139,-1.1214,0.0,0.0,0.0,-1.4096,-1.2925,-1.1895,-1.0263,-0.8947,-0.7986,-0.7425,0.0,-0.7026,-0.6698,-0.6528,-0.648,-0.6552,0.0,0.0,0.0,0.0,0.0,0.0,0.0,0.0,0.0,0.0,0.0,-0.6593,-0.6515,-0.6491,-0.6921,-0.7228,-0.7293,-0.7512,-0.7706,-0.7767,-0.7857,-0.7958,-0.7985,-0.7988,-0.703,-0.4718,-0.4116,-0.3065,-0.0656,0.0,0.0,0.0,0.0,0.0,0.0,0.0,0.0,0.0,0.0,0.0,0.0,0.0,0.0,0.0,0.0,0.0,0.0,0.0,0.0,0.0,0.0,0.0,0.0,0.0,0.0,0.0,0.0,0.0,0.0,0.0,0.0,0.0,0.0,0.0,-2.3282,0.0,-2.0203,-1.8818,0.0,-1.6346,-1.5825,-1.5825,-1.5825,-1.5825,-1.5825,-1.5825,-1.5825,-1.5825,-1.5825,-1.5825,-1.5825,-1.5825,-1.5825,-1.5825,-1.5825,-1.5825,-1.5825,-1.5825,-1.5825,-1.5778,-1.514,-1.4848,-1.4758,-1.3536,-1.2866,-1.2866,-1.2237,-1.1556,-1.0974,-1.1556,-1.2581,-1.3884,-1.2448,-1.1436,-1.0754,-0.9251,-0.8072,-0.7265,-0.7112,0.0,0.0,0.0,0.0,0.0,0.0,0.0,0.0,0.0,0.0,-0.6363,-0.6252,-0.6318,-0.6424,-0.6607,-0.682,-0.7122,-0.721,-0.7153,-0.6936,-0.7329,-0.759,-0.7594,-0.7794,-0.7874,-0.7926,-0.7944,-0.7988,-0.7988,-0.7434,-0.6176,-0.4316,-0.3416,-0.2221,0.0,0.0,0.0,0.0,0.0,0.0,0.0,0.0,0.0,0.0,0.0,0.0,0.0,0.0,0.0,0.0,0.0,0.0,0.0,0.0,0.0,0.0,0.0,0.0,0.0,0.0,0.0,0.0,0.0,0.0,0.0,0.0,0.0,0.0,0.0,0.0,-2.3706,-2.2272,-2.038,-1.9012,-1.7909,-1.6433,-1.5825,-1.5825,0.0,0.0,0.0,-1.5825,-1.5825,-1.5825,-1.5825,-1.5825,-1.5825,-1.5825,-1.5825,-1.5825,-1.5825,-1.5825,-1.5825,-1.5825,-1.5825,-1.5778,-1.5581,-1.5486,-1.5391,-1.4172,-1.344,-1.3102,-1.2086,-1.1458,-1.1214,-1.1214,-1.1214,-1.117,-1.044,-0.997,-0.9817,-0.8494,-0.7634,-0.7223,-0.7333,-0.7183,-0.6797,-0.6859,-0.6837,-0.6573,-0.6698,-0.6722,-0.6603,-0.6709,-0.679,-0.6824,-0.6936,-0.6977,-0.7048,-0.7275,-0.7424,-0.7448,-0.7699,-0.774,-0.7514,-0.7695,-0.7851,-0.7851,-0.7917,-0.7988,-0.7988,-0.7988,-0.7988,-0.7988,-0.6983,-0.5774,-0.4218,-0.3075,-0.1833,0.0,0.0,0.0,0.0,0.0,0.0,0.0,0.0,0.0,0.0,0.0,0.0,0.0,0.0,0.0,0.0,0.0,0.0,0.0,0.0,0.0,0.0,0.0,0.0,0.0,0.0,0.0,0.0,0.0,0.0,0.0,0.0,0.0,0.0,0.0,0.0,-2.4623,-2.3863,-2.1136,-1.9731,-1.9085,-1.6796,-1.5825,-1.5825,-1.5825,-1.5825,-1.5825,-1.5825,-1.5825,-1.5825,-1.5825,-1.5825,-1.5825,-1.5825,-1.5825,-1.5825,-1.5825,-1.5825,-1.5825,-1.5825,-1.5825,-1.573,-1.4704,-1.4166,-1.4022,-1.2866,-1.1604,-1.073,-1.0337,-0.9756,-0.8627,-0.8531,-0.8528,-0.8577,-0.9513,-0.9985,-0.9955,-0.8553,-0.7784,-0.7712,-0.7489,-0.7285,-0.7048,-0.7055,-0.6991,-0.6836,-0.7,-0.7024,-0.7007,-0.7024,-0.7095,-0.7265,-0.7344,-0.7366,-0.7492,-0.7546,-0.7621,-0.7743,-0.7909,-0.7933,-0.7773,-0.7906,-0.7958,-0.7958,-0.7975,-0.7988,-0.7988,-0.7988,-0.7988,-0.7988,-0.7839,-0.6728,-0.4321,-0.3718,-0.2628,0.0,0.0,0.0,0.0,0.0,0.0,0.0,0.0,0.0,0.0,0.0,0.0,0.0,0.0,0.0,0.0,0.0,0.0,0.0,0.0,0.0,0.0,0.0,0.0,0.0,0.0,0.0,0.0,0.0,0.0,0.0,0.0,0.0,0.0,0.0,0.0,-2.4611,-2.3636,-2.1888,-2.023,-1.8668,-1.6685,-1.5825,-1.5825,-1.5825,-1.5825,-1.5825,-1.5825,-1.5825,-1.5825,-1.5825,-1.5825,-1.5825,-1.5825,-1.5825,-1.5825,-1.5825,-1.5825,-1.5825,-1.5825,-1.5825,-1.5778,-1.5242,-1.4949,-1.4806,-1.359,-1.2668,-1.2032,-1.0725,-0.9706,-0.9069,-0.8382,-0.7988,-0.8038,-0.863,-0.892,-0.8871,-0.8262,-0.7843,-0.7811,-0.7672,-0.7539,-0.7394,-0.7387,-0.736,-0.7295,-0.7356,-0.7387,-0.739,-0.739,-0.7424,-0.7492,-0.7492,-0.756,-0.7706,-0.7742,-0.7816,-0.7884,-0.7997,-0.7961,-0.7894,-0.7948,-0.7988,-0.7988,-0.7988,-0.7988,-0.7988,-0.7988,-0.7988,-0.7988,-0.7385,-0.6102,-0.4327,-0.3286,-0.2137,0.0,0.0,0.0,0.0,0.0,0.0,0.0,0.0,0.0,0.0,0.0,0.0,0.0,0.0,0.0,0.0,0.0,0.0,0.0,0.0,0.0,0.0,0.0,0.0,0.0,0.0,0.0,0.0,0.0,0.0,0.0,0.0,0.0,0.0,0.0,0.0,-2.466,-2.3629,-2.27,-2.0772,-1.8236,-1.6836,-1.6062,-1.5825,-1.5825,-1.5825,-1.5825,-1.5825,-1.5825,-1.5825,-1.5825,-1.5825,-1.5825,-1.5825,-1.5825,-1.5825,-1.5825,-1.5825,-1.5825,-1.5825,-1.5825,-1.5825,-1.5825,-1.5825,-1.5683,-1.48,-1.4166,-1.368,-1.1312,-1.0002,-0.9998,-0.8676,-0.7988,-0.7988,-0.7988,-0.7988,-0.7988,-0.7988,-0.7984,-0.7823,-0.7865,-0.7794,-0.7658,-0.7645,-0.7634,-0.76,-0.7597,-0.7614,-0.7645,-0.7648,-0.7665,-0.7692,-0.7699,-0.7746,-0.7855,-0.797,-0.7988,-0.7988,-0.7988,-0.7988,-0.7988,-0.7988,-0.7988,-0.7988,-0.7988,-0.7885,-0.7587,-0.7487,-0.7434,-0.7132,-0.6179,-0.5008,-0.3705,-0.2594,-0.1476,0.0,0.0,0.0,0.0,0.0,0.0,0.0,0.0,0.0,0.0,0.0,0.0,0.0,0.0,0.0,0.0,0.0,0.0,0.0,0.0,0.0,0.0,0.0,0.0,0.0,0.0,0.0,0.0,0.0,0.0,0.0,0.0,0.0,0.0,0.0,0.0,-2.5333,-2.4793,-2.3697,-2.127,-1.8434,-1.7732,-1.6864,-1.5927,-1.5825,-1.5825,-1.5825,-1.5825,-1.5825,-1.5825,-1.5825,-1.5825,-1.5825,-1.5825,-1.5825,-1.5825,-1.5825,-1.5825,-1.5825,-1.5825,-1.5825,-1.5825,-1.5825,-1.5825,-1.5778,-1.5635,-1.5045,-1.3734,-1.1312,-1.0096,-0.9903,-0.8726,-0.8038,-0.7988,-0.7988,-0.7988,-0.7988,-0.7988,-0.7982,-0.7971,-0.7965,-0.7897,-0.7801,-0.779,-0.7733,-0.7614,-0.7607,-0.7662,-0.7773,-0.779,-0.7855,-0.7931,-0.7941,-0.7958,-0.7968,-0.7982,-0.7988,-0.7988,-0.7988,-0.7988,-0.7988,-0.7988,-0.7988,-0.7988,-0.7988,-0.7537,-0.6379,-0.6282,-0.5874,-0.4868,-0.4472,-0.3643,-0.2582,-0.21,-0.1498,0.0,0.0,0.0,0.0,0.0,0.0,0.0,0.0,0.0,0.0,0.0,0.0,0.0,0.0,0.0,0.0,0.0,0.0,0.0,0.0,0.0,0.0,0.0,0.0,0.0,0.0,0.0,0.0,0.0,0.0,0.0,0.0,0.0,0.0,0.0,0.0,-2.5577,-2.5391,-2.4679,-2.2892,-2.0441,-1.8769,-1.7628,-1.6904,-1.6109,-1.5825,-1.5825,-1.5825,-1.5825,-1.5825,-1.5825,-1.5825,-1.5825,-1.5825,-1.5825,-1.5825,-1.5825,-1.5825,-1.5825,-1.5825,-1.5825,-1.5825,-1.5825,-1.5825,-1.5825,-1.5825,-1.554,-1.4902,-1.3199,-1.194,-1.1072,-0.985,-0.8825,-0.8038,-0.7988,-0.7988,-0.7988,-0.7988,-0.7988,-0.7988,-0.7988,-0.7965,-0.7907,-0.7897,-0.7919,-0.7816,-0.7813,-0.7882,-0.7894,-0.7897,-0.7924,-0.7985,-0.7988,-0.7988,-0.7988,-0.7988,-0.7988,-0.7988,-0.7988,-0.7988,-0.7988,-0.7988,-0.7988,-0.7988,-0.7988,-0.7434,-0.6232,-0.6032,-0.5472,-0.4323,-0.4003,-0.3446,-0.2151,-0.1976,-0.1468,0.0,0.0,0.0,0.0,0.0,0.0,0.0,0.0,0.0,0.0,0.0,0.0,0.0,0.0,0.0,0.0,0.0,0.0,0.0,0.0,0.0,0.0,0.0,0.0,0.0,0.0,0.0,0.0,0.0,0.0,0.0,0.0,0.0,0.0,0.0,0.0,-2.5684,-2.5615,-2.5264,-2.3834,-2.1623,-1.9757,-1.8301,-1.7283,-1.632,-1.5905,-1.5832,-1.5825,-1.5825,-1.5825,-1.5825,-1.5825,-1.5825,-1.5825,-1.5825,-1.5825,-1.5825,-1.5825,-1.5825,-1.5825,-1.5825,-1.5825,-1.5825,-1.5825,-1.5825,-1.5825,-1.5825,-1.5629,-1.4513,-1.3247,-1.1896,-1.0636,-0.9361,-0.8137,-0.7988,-0.7988,-0.7988,-0.7988,-0.7988,-0.7988,-0.7988,-0.7988,-0.7988,-0.7988,-0.7988,-0.7988,-0.7988,-0.7988,-0.7988,-0.7988,-0.7988,-0.7988,-0.7988,-0.7988,-0.7988,-0.7988,-0.7988,-0.7988,-0.7988,-0.7988,-0.7988,-0.7988,-0.7988,-0.7988,-0.7988,-0.7385,-0.5727,-0.545,-0.4706,-0.3193,-0.2883,-0.2466,-0.1551,-0.1465,-0.1044,0.0,0.0,0.0,0.0,0.0,0.0,0.0,0.0,0.0,0.0,0.0,0.0,0.0,0.0,0.0,0.0,0.0,0.0,0.0,0.0,0.0,0.0,0.0,0.0,0.0,0.0,0.0,0.0,0.0,0.0,0.0,0.0,0.0,0.0,0.0,0.0,-2.5684,-2.5674,-2.5254,-2.3609,-2.1212,-2.0637,-1.8868,-1.6593,-1.6301,-1.6106,-1.5872,-1.5845,-1.5832,-1.5825,-1.5825,-1.5825,-1.5825,-1.5825,-1.5825,-1.5825,-1.5825,-1.5825,-1.5825,-1.5825,-1.5825,-1.5825,-1.5825,-1.5825,-1.5825,-1.5825,-1.5825,-1.573,-1.4609,-1.3301,-1.1945,-1.073,-0.9365,-0.8137,-0.7988,-0.7988,-0.7988,-0.7988,-0.7988,-0.7988,-0.7988,-0.7988,-0.7988,-0.7988,-0.7988,-0.7988,-0.7988,-0.7988,-0.7988,-0.7988,-0.7988,-0.7988,-0.7988,-0.7988,-0.7988,-0.7988,-0.7988,-0.7988,-0.7988,-0.7988,-0.7988,-0.7988,-0.7988,-0.7988,-0.7988,-0.698,-0.4684,-0.4333,-0.3194,0.0,0.0,0.0,0.0,0.0,0.0,0.0,0.0,0.0,0.0,0.0,0.0,0.0,0.0,0.0,0.0,0.0,0.0,0.0,0.0,0.0,0.0,0.0,0.0,0.0,0.0,0.0,0.0,0.0,0.0,0.0,0.0,0.0,0.0,0.0,0.0,0.0,0.0,0.0,0.0,0.0,0.0,-2.5684,-2.5616,-2.4596,-2.3468,-2.2186,-2.049,-1.8931,-1.7667,-1.6886,-1.6386,-1.6146,-1.6112,-1.6005,-1.5825,-1.5825,-1.5825,-1.5825,-1.5825,-1.5825,-1.5825,-1.5825,-1.5825,-1.5825,-1.5825,-1.5825,-1.5825,-1.5825,-1.5825,-1.5825,-1.5825,-1.5825,-1.5778,-1.5337,-1.4076,-1.2188,-1.1458,-1.019,-0.8233,-0.7988,-0.7988,-0.7988,-0.7988,-0.7988,-0.7988,-0.7988,-0.7988,-0.7988,-0.7988,-0.7988,-0.7988,-0.7988,-0.7988,-0.7988,-0.7988,-0.7988,-0.7988,-0.7988,-0.7988,-0.7988,-0.7988,-0.7988,-0.7988,-0.7988,-0.7988,-0.7988,-0.7988,-0.7988,-0.7988,-0.7988,-0.6806,-0.4745,-0.4012,-0.2907,0.0,0.0,0.0,0.0,0.0,0.0,0.0,0.0,0.0,0.0,0.0,0.0,0.0,0.0,0.0,0.0,0.0,0.0,0.0,0.0,0.0,0.0,0.0,0.0,0.0,0.0,0.0,0.0,0.0,0.0,0.0,0.0,0.0,0.0,0.0,0.0,0.0,0.0,0.0,0.0,0.0,0.0,-2.5684,-2.5586,-2.4716,-2.3637,-2.2444,-2.0746,-1.9255,-1.8096,-1.7193,-1.668,-1.6446,-1.6413,-1.6299,-1.6112,-1.6012,-1.5972,-1.5959,-1.5831,-1.5825,-1.5825,-1.5825,-1.5825,-1.5825,-1.5825,-1.5825,-1.5825,-1.5825,-1.5825,-1.5825,-1.5825,-1.5825,-1.5778,-1.5825,-1.4758,-1.2818,-1.2139,-1.0779,-0.897,-0.8237,-0.7988,-0.7988,-0.7988,-0.7988,-0.7988,-0.7988,-0.7988,-0.7988,-0.7988,-0.7988,-0.7988,-0.7988,-0.7988,-0.7988,-0.7988,-0.7988,-0.7988,-0.7988,-0.7988,-0.7988,-0.7988,-0.7988,-0.7988,-0.7988,-0.7988,-0.7988,-0.7988,-0.7988,-0.7988,-0.7942,-0.6891,-0.4759,-0.401,-0.2888,0.0,0.0,0.0,0.0,0.0,0.0,0.0,0.0,0.0,0.0,0.0,0.0,0.0,0.0,0.0,0.0,0.0,0.0,0.0,0.0,0.0,0.0,0.0,0.0,0.0,0.0,0.0,0.0,0.0,0.0,0.0,0.0,0.0,0.0,0.0,0.0,0.0,0.0,0.0,0.0,0.0,0.0,-2.5684,-2.5684,-2.5693,-2.4079,-2.2055,-2.145,-1.987,-1.7726,-1.725,-1.6981,-1.6734,-1.6714,-1.668,-1.6607,-1.6373,-1.6273,-1.6241,-1.5985,-1.5858,-1.5784,-1.5825,-1.5825,-1.5825,-1.5825,-1.5825,-1.5825,-1.5825,-1.5825,-1.5825,-1.5825,-1.5825,-1.5825,-1.5825,-1.5099,-1.383,-1.2522,-1.1263,-0.9854,-0.8627,-0.7988,-0.7988,-0.7988,-0.7988,-0.7988,-0.7988,-0.7988,-0.7988,-0.7988,-0.7988,-0.7988,-0.7988,-0.7988,-0.7988,-0.7988,-0.7988,-0.7988,-0.7988,-0.7988,-0.7988,-0.7988,-0.7988,-0.7988,-0.7988,-0.7988,-0.7988,-0.7988,-0.7988,-0.7988,-0.7912,-0.6937,-0.4624,-0.4027,-0.2942,0.0,0.0,0.0,0.0,0.0,0.0,0.0,0.0,0.0,0.0,0.0,0.0,0.0,0.0,0.0,0.0,0.0,0.0,0.0,0.0,0.0,0.0,0.0,0.0,0.0,0.0,0.0,0.0,0.0,0.0,0.0,0.0,0.0,0.0,0.0,0.0,0.0,0.0,0.0,0.0,0.0,0.0,-2.5684,-2.5577,-2.4707,-2.389,-2.2826,-2.11,-1.9612,-1.8779,-1.7904,-1.734,-1.7099,-1.7014,-1.6951,-1.6727,-1.66,-1.646,-1.6321,-1.6166,-1.6025,-1.5858,-1.5825,-1.5825,-1.5825,-1.5825,-1.5825,-1.5825,-1.5825,-1.5825,-1.5825,-1.5825,-1.5825,-1.5825,-1.5825,-1.5146,-1.3974,-1.2576,-1.1263,-0.9998,-0.8676,-0.7988,-0.7988,-0.7988,-0.7988,-0.7988,-0.7988,-0.7988,-0.7988,-0.7988,-0.7988,-0.7988,-0.7988,-0.7988,-0.7988,-0.7988,-0.7988,-0.7988,-0.7988,-0.7988,-0.7988,-0.7988,-0.7988,-0.7988,-0.7988,-0.7988,-0.7988,-0.7988,-0.7988,-0.8002,-0.8079,-0.709,-0.4752,-0.4077,-0.2937,0.0,0.0,0.0,0.0,0.0,0.0,0.0,0.0,0.0,0.0,0.0,0.0,0.0,0.0,0.0,0.0,0.0,0.0,0.0,0.0,0.0,0.0,0.0,0.0,0.0,0.0,0.0,0.0,0.0,0.0,0.0,0.0,0.0,0.0,0.0,0.0,0.0,0.0,0.0,0.0,0.0,0.0,-2.5684,-2.5586,-2.4815,-2.4146,-2.3484,-2.1253,-2.0084,-1.9472,-1.8199,-1.7527,-1.7387,-1.736,-1.7266,-1.7034,-1.6921,-1.67,-1.6446,-1.6375,-1.6112,-1.5818,-1.5825,-1.5825,-1.5825,-1.5825,-1.5825,-1.5825,-1.5825,-1.5825,-1.5825,-1.5825,-1.5825,-1.5825,-1.5825,-1.5439,-1.4513,-1.3295,-1.1994,-1.073,-0.946,-0.8482,-0.8088,-0.7988,-0.7988,-0.7988,-0.7988,-0.7988,-0.7988,-0.7988,-0.7988,-0.7988,-0.7988,-0.7988,-0.7988,-0.7988,-0.7988,-0.7988,-0.7988,-0.7988,-0.7988,-0.7988,-0.7988,-0.7988,-0.7988,-0.7988,-0.7988,-0.7988,-0.7988,-0.8008,-0.8174,-0.7386,-0.5345,-0.4364,-0.3181,-0.1118,0.0,0.0,0.0,0.0,0.0,0.0,0.0,0.0,0.0,0.0,0.0,0.0,0.0,0.0,0.0,0.0,0.0,0.0,0.0,0.0,0.0,0.0,0.0,0.0,0.0,0.0,0.0,0.0,0.0,0.0,0.0,0.0,0.0,0.0,0.0,0.0,0.0,0.0,0.0,0.0,0.0,-2.5684,-2.5684,-2.5684,-2.4971,-2.3791,-2.2416,-2.1092,-1.9679,-1.8349,-1.772,-1.7608,-1.7542,-1.7549,-1.7495,-1.7273,-1.6991,-1.6687,-1.6393,-1.6112,-1.5892,-1.5825,-1.5825,-1.5825,-1.5825,-1.5825,-1.5825,-1.5825,-1.5825,-1.5825,-1.5825,-1.5825,-1.5825,-1.5778,-1.5778,-1.5384,-1.4507,-1.3102,-1.1702,-1.0534,-0.9266,-0.8088,-0.7988,-0.7988,-0.7988,-0.7988,-0.7988,-0.7988,-0.7988,-0.7988,-0.7988,-0.7988,-0.7988,-0.7988,-0.7988,-0.7988,-0.7988,-0.7988,-0.7988,-0.7988,-0.7988,-0.7988,-0.7988,-0.7988,-0.7988,-0.7988,-0.7988,-0.8002,-0.8032,-0.8214,-0.7726,-0.6318,-0.5297,-0.3848,-0.2339,-0.084,0.0,0.0,0.0,0.0,0.0,0.0,0.0,0.0,0.0,0.0,0.0,0.0,0.0,0.0,0.0,0.0,0.0,0.0,0.0,0.0,0.0,0.0,0.0,0.0,0.0,0.0,0.0,0.0,0.0,0.0,0.0,0.0,0.0,0.0,0.0,0.0,0.0,0.0,0.0,0.0,-2.5684,-2.5684,-2.5684,-2.5489,-2.502,-2.3741,-2.2416,-2.1049,-1.962,-1.8454,-1.7793,-1.7589,-1.7589,-1.7555,-1.7333,-1.7038,-1.6693,-1.6406,-1.6119,-1.5865,-1.5825,-1.5825,-1.5825,-1.5825,-1.5825,-1.5825,-1.5825,-1.5825,-1.5825,-1.5825,-1.5825,-1.5825,-1.5825,-1.5825,-1.5629,-1.4555,-1.3247,-1.1945,-1.0632,-0.941,-0.8283,-0.7988,-0.7988,-0.7988,-0.7988,-0.7988,-0.7988,-0.7988,-0.7988,-0.7988,-0.7988,-0.7988,-0.7988,-0.7988,-0.7988,-0.7988,-0.7988,-0.7988,-0.7988,-0.7988,-0.7988,-0.7988,-0.7988,-0.7988,-0.7988,-0.7988,-0.8046,-0.8197,-0.8343,-0.7898,-0.6743,-0.6146,-0.4832,-0.2567,-0.0896,0.0,0.0,0.0,0.0,0.0,0.0,0.0,0.0,0.0,0.0,0.0,0.0,0.0,0.0,0.0,0.0,0.0,0.0,0.0,0.0,0.0,0.0,0.0,0.0,0.0,0.0,0.0,0.0,0.0,0.0,0.0,0.0,0.0,0.0,0.0,0.0,0.0,0.0,0.0,0.0,-2.5684,-2.5684,-2.5684,-2.5684,-2.5528,-2.4254,-2.2918,-2.16,-2.0179,-1.8864,-1.7845,-1.7589,-1.7589,-1.7555,-1.7333,-1.7045,-1.6693,-1.6406,-1.6119,-1.5865,-1.5825,-1.5825,-1.5825,-1.5825,-1.5825,-1.5825,-1.5825,-1.5825,-1.5825,-1.5825,-1.5825,-1.5825,-1.5825,-1.5825,-1.5778,-1.5146,-1.4028,-1.2764,-1.1458,-1.0141,-0.897,-0.8287,-0.7988,-0.7988,-0.7988,-0.7988,-0.7988,-0.7988,-0.7988,-0.7988,-0.7988,-0.7988,-0.7988,-0.7988,-0.7988,-0.7988,-0.7988,-0.7988,-0.7988,-0.7988,-0.7988,-0.7988,-0.7988,-0.7988,-0.7988,-0.7992,-0.8106,-0.8252,-0.8401,-0.8117,-0.7441,-0.6523,-0.474,-0.257,-0.0896,0.0,0.0,0.0,0.0,0.0,0.0,0.0,0.0,0.0,0.0,0.0,0.0,0.0,0.0,0.0,0.0,0.0,0.0,0.0,0.0,0.0,0.0,0.0,0.0,0.0,0.0,0.0,0.0,0.0,0.0,0.0,0.0,0.0,0.0,0.0,0.0,0.0,0.0,0.0,0.0,-2.5684,-2.5684,-2.5684,-2.5684,-2.5528,-2.4452,-2.3276,-2.1853,-2.0538,-1.9169,-1.8094,-1.7687,-1.7589,-1.7562,-1.7333,-1.7058,-1.6747,-1.6426,-1.6112,-1.5905,-1.5825,-1.5825,-1.5825,-1.5825,-1.5825,-1.5825,-1.5825,-1.5825,-1.5825,-1.5825,-1.5825,-1.5825,-1.5825,-1.5825,-1.5778,-1.5683,-1.5099,-1.3782,-1.2668,-1.1263,-0.9948,-0.8924,-0.8382,-0.7988,-0.7988,-0.7988,-0.7988,-0.7988,-0.7988,-0.7988,-0.7988,-0.7988,-0.7988,-0.7988,-0.7988,-0.7988,-0.7988,-0.7988,-0.7988,-0.7988,-0.7988,-0.7988,-0.7988,-0.7988,-0.7995,-0.8065,-0.8153,-0.8306,-0.8425,-0.8481,-0.8243,-0.6373,-0.4517,-0.285,-0.1287,-0.0336,0.0,0.0,0.0,0.0,0.0,0.0,0.0,0.0,0.0,0.0,0.0,0.0,0.0,0.0,0.0,0.0,0.0,0.0,0.0,0.0,0.0,0.0,0.0,0.0,0.0,0.0,0.0,0.0,0.0,0.0,0.0,0.0,0.0,0.0,0.0,0.0,0.0,0.0,0.0,-2.5684,-2.5684,-2.5684,-2.5684,-2.5635,-2.5372,-2.4501,-2.3126,-2.1803,-2.0341,-1.9117,-1.8094,-1.7641,-1.7562,-1.734,-1.7159,-1.7005,-1.6569,-1.6119,-1.5858,-1.5825,-1.5825,-1.5825,-1.5825,-1.5825,-1.5825,-1.5825,-1.5825,-1.5825,-1.5825,-1.5825,-1.5825,-1.5825,-1.5825,-1.5825,-1.5778,-1.5146,-1.407,-1.3542,-1.228,-1.0583,-0.9756,-0.8973,-0.8137,-0.7988,-0.7988,-0.7988,-0.7988,-0.7988,-0.7988,-0.7988,-0.7988,-0.7988,-0.7988,-0.7988,-0.7988,-0.7988,-0.7988,-0.7988,-0.7988,-0.7988,-0.7988,-0.7988,-0.7988,-0.8002,-0.8153,-0.8275,-0.8425,-0.8574,-0.8706,-0.863,-0.7293,-0.5526,-0.3967,-0.2516,-0.1175,0.0,0.0,0.0,0.0,0.0,0.0,0.0,0.0,0.0,0.0,0.0,0.0,0.0,0.0,0.0,0.0,0.0,0.0,0.0,0.0,0.0,0.0,0.0,0.0,0.0,0.0,0.0,0.0,0.0,0.0,0.0,0.0,0.0,0.0,0.0,0.0,0.0,0.0,0.0,-2.5684,-2.5684,-2.5684,-2.5684,-2.5684,-2.5684,-2.4971,-2.3633,-2.2257,-2.0896,-1.9524,-1.8199,-1.7641,-1.7562,-1.734,-1.7199,-1.7065,-1.6596,-1.6112,-1.5885,-1.5825,-1.5825,-1.5825,-1.5825,-1.5825,-1.5825,-1.5825,-1.5825,-1.5825,-1.5825,-1.5825,-1.5825,-1.5825,-1.5825,-1.5825,-1.5825,-1.5486,-1.4848,-1.4166,-1.3151,-1.1984,-1.0534,-0.9361,-0.8283,-0.7988,-0.7988,-0.7988,-0.7988,-0.7988,-0.7988,-0.7988,-0.7988,-0.7988,-0.7988,-0.7988,-0.7988,-0.7988,-0.7988,-0.7988,-0.7988,-0.7988,-0.7988,-0.7988,-0.8035,-0.813,-0.8231,-0.8374,-0.854,-0.8665,-0.8716,-0.8806,-0.754,-0.6142,-0.4637,-0.3129,-0.1622,0.0,0.0,0.0,0.0,0.0,0.0,0.0,0.0,0.0,0.0,0.0,0.0,0.0,0.0,0.0,0.0,0.0,0.0,0.0,0.0,0.0,0.0,0.0,0.0,0.0,0.0,0.0,0.0,0.0,0.0,0.0,0.0,0.0,0.0,0.0,0.0,0.0,0.0,0.0,-2.5684,-2.5684,-2.5684,-2.5684,-2.5684,-2.5684,-2.5118,-2.3949,-2.2567,-2.1397,-1.9878,-1.8499,-1.7943,-1.7581,-1.74,-1.7259,-1.7058,-1.669,-1.6226,-1.5979,-1.5945,-1.5892,-1.5865,-1.5892,-1.5892,-1.5838,-1.5825,-1.5825,-1.5825,-1.5825,-1.5825,-1.5825,-1.5825,-1.5825,-1.5825,-1.5825,-1.573,-1.5486,-1.48,-1.407,-1.3343,-1.1502,-0.9752,-0.8283,-0.7988,-0.7988,-0.7988,-0.7988,-0.7988,-0.7988,-0.7988,-0.7988,-0.7988,-0.7988,-0.7988,-0.7988,-0.7988,-0.7988,-0.7988,-0.7988,-0.7988,-0.7988,-0.7988,-0.8113,-0.8221,-0.8309,-0.8448,-0.8608,-0.8747,-0.8757,-0.8754,-0.7986,-0.6533,-0.5083,-0.3519,-0.1957,-0.0728,0.0,0.0,0.0,0.0,0.0,0.0,0.0,0.0,0.0,0.0,0.0,0.0,0.0,0.0,0.0,0.0,0.0,0.0,0.0,0.0,0.0,0.0,0.0,0.0,0.0,0.0,0.0,0.0,0.0,0.0,0.0,0.0,0.0,0.0,0.0,0.0,0.0,0.0,-2.5684,-2.5684,-2.5684,-2.5684,-2.5684,-2.5684,-2.5528,-2.5177,-2.384,-2.2617,-2.1245,-1.9886,-1.8558,-1.7871,-1.7555,-1.7434,-1.7159,-1.679,-1.646,-1.6233,-1.6166,-1.6079,-1.5985,-1.6112,-1.6072,-1.5879,-1.5845,-1.5865,-1.5832,-1.5825,-1.5825,-1.5825,-1.5825,-1.5825,-1.5825,-1.5825,-1.5825,-1.5825,-1.5432,-1.4895,-1.3878,-1.228,-1.0337,-0.8478,-0.8137,-0.7988,-0.7988,-0.7988,-0.7988,-0.7988,-0.7988,-0.7988,-0.7988,-0.7988,-0.7988,-0.7988,-0.7988,-0.7988,-0.7988,-0.7988,-0.7988,-0.7988,-0.7988,-0.8069,-0.8255,-0.8432,-0.852,-0.8682,-0.8825,-0.8851,-0.8875,-0.8491,-0.782,-0.6422,-0.497,-0.3408,-0.1957,0.0,0.0,0.0,0.0,0.0,0.0,0.0,0.0,0.0,0.0,0.0,0.0,0.0,0.0,0.0,0.0,0.0,0.0,0.0,0.0,0.0,0.0,0.0,0.0,0.0,0.0,0.0,0.0,0.0,0.0,0.0,0.0,0.0,0.0,0.0,0.0,0.0,0.0,-2.5684,-2.5684,-2.5684,-2.5684,-2.5684,-2.5684,-2.5684,-2.5479,-2.4304,-2.3335,-2.2265,-2.059,-1.9272,-1.8558,-1.7786,-1.7467,-1.7186,-1.684,-1.6633,-1.6486,-1.6346,-1.6319,-1.6253,-1.6433,-1.6293,-1.6132,-1.6059,-1.5959,-1.5798,-1.5825,-1.5825,-1.5825,-1.5825,-1.5825,-1.5825,-1.5825,-1.5825,-1.5825,-1.5778,-1.5534,-1.4704,-1.3011,-1.0872,-0.946,-0.8336,-0.8038,-0.7988,-0.7988,-0.7988,-0.7988,-0.7988,-0.7988,-0.7988,-0.7988,-0.7988,-0.7988,-0.7988,-0.7988,-0.7988,-0.7988,-0.7988,-0.7988,-0.7988,-0.8157,-0.8319,-0.8459,-0.8594,-0.8777,-0.8866,-0.8937,-0.8881,-0.8937,-0.8156,-0.698,-0.5975,-0.458,-0.2794,-0.1622,-0.084,0.0,0.0,0.0,0.0,0.0,0.0,0.0,0.0,0.0,0.0,0.0,0.0,0.0,0.0,0.0,0.0,0.0,0.0,0.0,0.0,0.0,0.0,0.0,0.0,0.0,0.0,0.0,0.0,0.0,0.0,0.0,0.0,0.0,0.0,0.0,0.0,-2.5684,-2.5684,-2.5684,-2.5684,-2.5684,-2.5684,-2.5684,-2.5479,-2.4609,-2.3939,-2.3384,-2.1507,-2.0238,-1.9376,-1.8328,-1.7501,-1.7259,-1.6941,-1.682,-1.676,-1.6656,-1.6587,-1.6653,-1.6727,-1.6607,-1.6253,-1.6233,-1.6119,-1.5879,-1.5825,-1.5825,-1.5825,-1.5825,-1.5825,-1.5825,-1.5825,-1.5825,-1.5825,-1.5825,-1.5778,-1.4902,-1.3162,-1.1317,-0.9998,-0.873,-0.7988,-0.7988,-0.7988,-0.7988,-0.7988,-0.7988,-0.7988,-0.7988,-0.7988,-0.7988,-0.7988,-0.7988,-0.7988,-0.7988,-0.7988,-0.7988,-0.7988,-0.7988,-0.8201,-0.8421,-0.856,-0.8693,-0.8882,-0.8937,-0.8937,-0.8937,-0.8937,-0.8377,-0.754,-0.6813,-0.5753,-0.3687,-0.218,-0.1231,0.0,0.0,0.0,0.0,0.0,0.0,0.0,0.0,0.0,0.0,0.0,0.0,0.0,0.0,0.0,0.0,0.0,0.0,0.0,0.0,0.0,0.0,0.0,0.0,0.0,0.0,0.0,0.0,0.0,0.0,0.0,0.0,0.0,0.0,0.0,0.0,-2.5684,-2.5684,-2.5684,-2.5684,-2.5684,-2.5684,-2.5684,-2.5684,-2.543,-2.4766,-2.384,-2.3176,-2.171,-1.9782,-1.8297,-1.7713,-1.7487,-1.7253,-1.7119,-1.7119,-1.7045,-1.6924,-1.68,-1.7045,-1.6844,-1.6509,-1.6333,-1.6099,-1.5919,-1.5858,-1.5825,-1.5825,-1.5825,-1.5825,-1.5825,-1.5825,-1.5825,-1.5825,-1.5825,-1.5337,-1.422,-1.277,-1.1317,-1.0096,-0.8821,-0.7988,-0.7988,-0.7988,-0.7988,-0.7988,-0.7988,-0.7988,-0.7988,-0.7988,-0.7988,-0.7988,-0.7988,-0.7988,-0.7988,-0.7988,-0.7988,-0.7988,-0.7988,-0.8201,-0.8438,-0.871,-0.8859,-0.891,-0.8937,-0.8937,-0.8937,-0.8937,-0.8716,-0.8266,-0.7537,-0.6255,-0.4524,-0.3129,-0.2125,0.0,0.0,0.0,0.0,0.0,0.0,0.0,0.0,0.0,0.0,0.0,0.0,0.0,0.0,0.0,0.0,0.0,0.0,0.0,0.0,0.0,0.0,0.0,0.0,0.0,0.0,0.0,0.0,0.0,0.0,0.0,0.0,0.0,0.0,0.0,0.0,-2.5684,-2.5684,-2.5684,-2.5684,-2.5684,-2.5684,-2.5684,-2.5684,-2.5684,-2.5372,-2.4707,-2.3939,-2.2165,-1.993,-1.8916,-1.8297,-1.7718,-1.734,-1.7313,-1.736,-1.73,-1.7226,-1.7235,-1.7301,-1.7186,-1.6837,-1.6623,-1.6373,-1.6126,-1.5899,-1.5825,-1.5825,-1.5825,-1.5825,-1.5825,-1.5825,-1.5825,-1.5825,-1.5778,-1.5534,-1.4609,-1.3054,-1.1653,-1.1023,-0.9118,-0.8233,-0.8038,-0.7988,-0.7988,-0.7988,-0.7988,-0.7988,-0.7988,-0.7988,-0.7988,-0.7988,-0.7988,-0.7988,-0.7988,-0.7988,-0.7988,-0.7992,-0.8008,-0.8177,-0.8462,-0.8743,-0.8878,-0.8937,-0.8937,-0.8937,-0.8937,-0.8937,-0.8937,-0.8657,-0.8152,-0.7091,-0.5753,-0.4413,-0.313,-0.179,0.0,0.0,0.0,0.0,0.0,0.0,0.0,0.0,0.0,0.0,0.0,0.0,0.0,0.0,0.0,0.0,0.0,0.0,0.0,0.0,0.0,0.0,0.0,0.0,0.0,0.0,0.0,0.0,0.0,0.0,0.0,0.0,0.0,0.0,0.0,-2.5684,-2.5684,-2.5684,-2.5684,-2.5684,-2.5684,-2.5684,-2.5684,-2.5684,-2.5684,-2.5323,-2.4245,-2.2366,-2.0436,-1.9679,-1.876,-1.7615,-1.7407,-1.7454,-1.7494,-1.7467,-1.7447,-1.7468,-1.7542,-1.7414,-1.7092,-1.676,-1.6453,-1.6146,-1.5952,-1.5825,-1.5825,-1.5825,-1.5825,-1.5825,-1.5825,-1.5825,-1.5825,-1.5825,-1.5778,-1.5337,-1.359,-1.2716,-1.1599,-1.0141,-0.8482,-0.8478,-0.8088,-0.7988,-0.7988,-0.7988,-0.7988,-0.7988,-0.7988,-0.7988,-0.7988,-0.7988,-0.7988,-0.7988,-0.7988,-0.7988,-0.7998,-0.8056,-0.8225,-0.8455,-0.8737,-0.8861,-0.8871,-0.8937,-0.8937,-0.8937,-0.8937,-0.8937,-0.8937,-0.8771,-0.7873,-0.6922,-0.5584,-0.3965,-0.2292,-0.1175,-0.056,0.0,0.0,0.0,0.0,0.0,0.0,0.0,0.0,0.0,0.0,0.0,0.0,0.0,0.0,0.0,0.0,0.0,0.0,0.0,0.0,0.0,0.0,0.0,0.0,0.0,0.0,0.0,0.0,0.0,0.0,0.0,0.0,0.0,-2.5684,-2.5684,-2.5684,-2.5684,-2.5684,-2.5684,-2.5684,-2.5684,-2.5684,-2.5684,-2.5528,-2.4245,-2.2876,-2.1448,-2.0033,-1.8864,-1.7582,-1.7562,-1.7608,-1.7562,-1.7569,-1.7542,-1.7575,-1.7488,-1.7295,-1.6874,-1.6673,-1.6353,-1.6005,-1.5912,-1.5838,-1.5825,-1.5825,-1.5825,-1.5825,-1.5825,-1.5825,-1.5825,-1.5825,-1.5825,-1.5439,-1.4411,-1.3632,-1.3054,-1.1356,-0.9854,-0.9805,-0.8676,-0.7988,-0.7988,-0.7988,-0.7988,-0.7988,-0.7988,-0.7988,-0.7988,-0.7988,-0.7988,-0.7988,-0.7988,-0.7988,-0.8029,-0.8174,-0.8309,-0.8472,-0.8632,-0.8781,-0.8865,-0.8933,-0.8937,-0.8937,-0.8937,-0.8937,-0.8937,-0.8826,-0.8322,-0.7537,-0.6758,-0.5081,-0.2961,-0.1789,-0.1175,0.0,0.0,0.0,0.0,0.0,0.0,0.0,0.0,0.0,0.0,0.0,0.0,0.0,0.0,0.0,0.0,0.0,0.0,0.0,0.0,0.0,0.0,0.0,0.0,0.0,0.0,0.0,0.0,0.0,0.0,0.0,0.0,0.0,-2.5684,-2.5684,-2.5684,-2.5684,-2.5684,-2.5684,-2.5684,-2.5684,-2.5684,-2.5684,-2.5635,-2.4295,-2.2976,-2.16,-2.0238,-1.8864,-1.774,-1.7589,-1.7589,-1.7589,-1.7589,-1.7589,-1.7549,-1.7454,-1.7233,-1.6958,-1.6697,-1.6386,-1.6146,-1.5925,-1.5838,-1.5825,-1.5825,-1.5825,-1.5825,-1.5825,-1.5825,-1.5825,-1.5825,-1.5825,-1.5534,-1.4609,-1.3878,-1.368,-1.1356,-1.0145,-0.9805,-0.868,-0.8187,-0.8038,-0.8088,-0.8038,-0.7988,-0.7988,-0.7988,-0.7995,-0.7995,-0.7998,-0.7988,-0.7988,-0.7988,-0.8042,-0.8245,-0.8418,-0.8489,-0.8696,-0.8838,-0.8868,-0.8937,-0.8937,-0.8937,-0.8937,-0.8937,-0.8937,-0.8771,-0.8432,-0.8042,-0.7371,-0.6255,-0.4132,-0.2794,-0.1845,-0.1231,0.0,0.0,0.0,0.0,0.0,0.0,0.0,0.0,0.0,0.0,0.0,0.0,0.0,0.0,0.0,0.0,0.0,0.0,0.0,0.0,0.0,0.0,0.0,0.0,0.0,0.0,0.0,0.0,0.0,0.0,0.0,0.0,-2.5684,-2.5684,-2.5684,-2.5684,-2.5684,-2.5684,-2.5684,-2.5684,-2.5684,-2.5684,-2.5586,-2.4304,-2.2976,-2.16,-2.0231,-1.8864,-1.7891,-1.7589,-1.7589,-1.7589,-1.7589,-1.7589,-1.7541,-1.7373,-1.7152,-1.6985,-1.6623,-1.6246,-1.6072,-1.5919,-1.5852,-1.5825,-1.5825,-1.5825,-1.5825,-1.5832,-1.5832,-1.5825,-1.5825,-1.5825,-1.5635,-1.5045,-1.4513,-1.4316,-1.2474,-1.1599,-1.1165,-1.0288,-0.9266,-0.892,-0.8676,-0.8382,-0.8187,-0.7988,-0.7988,-0.8002,-0.8029,-0.8035,-0.8002,-0.7988,-0.7988,-0.8019,-0.8248,-0.8397,-0.8537,-0.8723,-0.878,-0.8875,-0.8937,-0.8937,-0.8937,-0.8937,-0.8937,-0.8937,-0.8937,-0.8657,-0.8546,-0.8042,-0.6813,-0.5417,-0.4411,-0.3631,-0.246,-0.179,0.0,0.0,0.0,0.0,0.0,0.0,0.0,0.0,0.0,0.0,0.0,0.0,0.0,0.0,0.0,0.0,0.0,0.0,0.0,0.0,0.0,0.0,0.0,0.0,0.0,0.0,0.0,0.0,0.0,0.0,0.0,-2.5684,-2.5684,-2.5674,-2.5664,-2.5684,-2.5684,-2.5684,-2.5684,-2.5684,-2.5684,-2.5479,-2.4196,-2.2868,-2.155,-2.0084,-1.8662,-1.7845,-1.7589,-1.7589,-1.7589,-1.7589,-1.7589,-1.7468,-1.7275,-1.7018,-1.67,-1.6373,-1.6072,-1.5885,-1.5852,-1.5832,-1.5825,-1.5825,-1.5852,-1.5832,-1.5791,-1.5791,-1.5838,-1.5858,-1.5865,-1.5778,-1.5588,-1.5486,-1.5099,-1.3974,-1.3049,-1.2711,-1.1745,-1.0583,-0.9752,-0.9608,-0.9069,-0.8137,-0.8038,-0.7988,-0.7992,-0.8177,-0.8174,-0.8069,-0.7998,-0.7998,-0.8039,-0.8279,-0.8394,-0.8499,-0.8652,-0.8811,-0.8871,-0.8937,-0.8937,-0.8937,-0.8937,-0.8937,-0.8937,-0.8937,-0.8881,-0.8712,-0.8602,-0.7482,-0.6311,-0.6311,-0.5975,-0.4468,-0.313,-0.1679,0.0,0.0,0.0,0.0,0.0,0.0,0.0,0.0,0.0,0.0,0.0,0.0,0.0,0.0,0.0,0.0,0.0,0.0,0.0,0.0,0.0,0.0,0.0,0.0,0.0,0.0,0.0,0.0,0.0,0.0,-2.5684,-2.5664,-2.542,-2.5459,-2.5664,-2.5684,-2.5684,-2.5684,-2.5684,-2.5684,-2.5216,-2.3434,-2.2206,-2.1143,-1.9465,-1.8146,-1.774,-1.7589,-1.7589,-1.7589,-1.7569,-1.7589,-1.7448,-1.7101,-1.68,-1.66,-1.6273,-1.5965,-1.5838,-1.5825,-1.5825,-1.5825,-1.5912,-1.5945,-1.6072,-1.6119,-1.6126,-1.6126,-1.6112,-1.6046,-1.5865,-1.5852,-1.5811,-1.577,-1.464,-1.4094,-1.3998,-1.2845,-1.1604,-1.0386,-1.0194,-0.946,-0.8333,-0.7988,-0.7992,-0.8022,-0.8184,-0.8248,-0.8167,-0.813,-0.8096,-0.8191,-0.8313,-0.8459,-0.8618,-0.8771,-0.8821,-0.8865,-0.8937,-0.8937,-0.8937,-0.8937,-0.8937,-0.8937,-0.8937,-0.8937,-0.8826,-0.8826,-0.8208,-0.7091,-0.6591,-0.6033,-0.486,-0.3967,-0.2683,-0.1287,-0.056,0.0,0.0,0.0,0.0,0.0,0.0,0.0,0.0,0.0,0.0,0.0,0.0,0.0,0.0,0.0,0.0,0.0,0.0,0.0,0.0,0.0,0.0,0.0,0.0,0.0,0.0,0.0,0.0,-2.5684,-2.5645,-2.542,-2.5459,-2.5684,-2.5528,-2.5586,-2.5654,-2.5684,-2.5684,-2.5216,-2.3384,-2.2106,-2.1194,-1.9524,-1.7845,-1.7687,-1.7589,-1.7589,-1.7569,-1.7462,-1.7474,-1.7228,-1.6881,-1.6593,-1.642,-1.6139,-1.5825,-1.5825,-1.5825,-1.5899,-1.5999,-1.6086,-1.6353,-1.6502,-1.6489,-1.6313,-1.6359,-1.6406,-1.6359,-1.6226,-1.6172,-1.6117,-1.5932,-1.5383,-1.4812,-1.4485,-1.3659,-1.2387,-1.1224,-1.0395,-0.9706,-0.8627,-0.7988,-0.8015,-0.8136,-0.8197,-0.832,-0.8231,-0.8119,-0.8143,-0.8378,-0.8438,-0.855,-0.8699,-0.8832,-0.8899,-0.8933,-0.8937,-0.8937,-0.8937,-0.8937,-0.8937,-0.8937,-0.8937,-0.8937,-0.8881,-0.8881,-0.8771,-0.7651,-0.726,-0.6422,-0.5475,-0.4526,-0.3576,-0.2236,0.0,0.0,0.0,0.0,0.0,0.0,0.0,0.0,0.0,0.0,0.0,0.0,0.0,0.0,0.0,0.0,0.0,0.0,0.0,0.0,0.0,0.0,0.0,0.0,0.0,0.0,0.0,0.0,0.0,-2.5684,-2.5684,-2.5723,-2.5635,-2.5625,-2.5273,-2.5342,-2.5674,-2.5684,-2.5684,-2.5577,-2.4196,-2.2968,-2.1702,-2.0231,-1.888,-1.7823,-1.7679,-1.7488,-1.7422,-1.7215,-1.7219,-1.7018,-1.6656,-1.6413,-1.6219,-1.6005,-1.5825,-1.5832,-1.5912,-1.6046,-1.6273,-1.646,-1.674,-1.6878,-1.6777,-1.6636,-1.6723,-1.6714,-1.6653,-1.654,-1.658,-1.6547,-1.6388,-1.614,-1.5999,-1.5732,-1.5227,-1.3813,-1.2586,-1.1639,-1.0109,-0.8924,-0.8038,-0.8136,-0.8221,-0.8316,-0.8327,-0.8286,-0.8167,-0.8252,-0.8448,-0.8496,-0.8587,-0.8716,-0.8811,-0.8916,-0.8937,-0.8937,-0.8937,-0.8937,-0.8937,-0.8937,-0.8937,-0.8937,-0.8937,-0.8937,-0.8881,-0.8881,-0.8602,-0.8546,-0.7931,-0.6869,-0.5808,-0.4524,-0.313,-0.1734,0.0,0.0,0.0,0.0,0.0,0.0,0.0,0.0,0.0,0.0,0.0,0.0,0.0,0.0,0.0,0.0,0.0,0.0,0.0,0.0,0.0,0.0,0.0,0.0,0.0,0.0,0.0,0.0,-2.5684,-2.5654,-2.54,-2.5273,-2.5244,-2.5117,-2.5322,-2.5654,-2.5684,-2.5684,-2.5635,-2.4304,-2.3372,-2.2926,-2.0692,-1.9419,-1.8496,-1.7846,-1.7255,-1.7001,-1.6907,-1.6854,-1.6693,-1.646,-1.6306,-1.6166,-1.5999,-1.5832,-1.5892,-1.5992,-1.6293,-1.6573,-1.672,-1.7027,-1.7154,-1.7132,-1.7065,-1.7038,-1.7065,-1.6927,-1.6814,-1.6787,-1.678,-1.6727,-1.6667,-1.6587,-1.6427,-1.5506,-1.4021,-1.2649,-1.1238,-0.9704,-0.8283,-0.7995,-0.8109,-0.8245,-0.833,-0.8354,-0.8387,-0.8377,-0.8425,-0.857,-0.8628,-0.8726,-0.8835,-0.8844,-0.8937,-0.8937,-0.8937,-0.8937,-0.8937,-0.8937,-0.8937,-0.8937,-0.8937,-0.8937,-0.8937,-0.8937,-0.8937,-0.8937,-0.8937,-0.8716,-0.7762,-0.6758,-0.5361,-0.3967,-0.2573,-0.1288,0.0,0.0,0.0,0.0,0.0,0.0,0.0,0.0,0.0,0.0,0.0,0.0,0.0,0.0,0.0,0.0,0.0,0.0,0.0,0.0,0.0,0.0,0.0,0.0,0.0,0.0,0.0,-2.5635,-2.5449,-2.5185,-2.5059,-2.5077,-2.4893,-2.5146,-2.5606,-2.5684,-2.5615,-2.5382,-2.4648,-2.3621,-2.2192,-2.0626,-1.9313,-1.8024,-1.7367,-1.6887,-1.6794,-1.658,-1.6547,-1.644,-1.6266,-1.6112,-1.6019,-1.5952,-1.5825,-1.5945,-1.6253,-1.6567,-1.6693,-1.686,-1.7228,-1.7415,-1.7434,-1.7328,-1.7367,-1.7347,-1.7201,-1.7101,-1.7027,-1.7054,-1.7007,-1.6954,-1.6887,-1.6652,-1.5428,-1.3909,-1.2526,-1.1083,-0.9634,-0.8412,-0.814,-0.815,-0.833,-0.8395,-0.8439,-0.8452,-0.8521,-0.8564,-0.8665,-0.872,-0.8791,-0.8866,-0.893,-0.8937,-0.8937,-0.8937,-0.8937,-0.8937,-0.8937,-0.8937,-0.8937,-0.8937,-0.8937,-0.8937,-0.8937,-0.8937,-0.8937,-0.8937,-0.8937,-0.8266,-0.7371,-0.6142,-0.4468,-0.2907,-0.1511,0.0,0.0,0.0,0.0,0.0,0.0,0.0,0.0,0.0,0.0,0.0,0.0,0.0,0.0,0.0,0.0,0.0,0.0,0.0,0.0,0.0,0.0,0.0,0.0,0.0,0.0,0.0,-2.5391,-2.501,-2.5028,-2.4979,-2.4941,-2.456,-2.4787,-2.5538,-2.5499,-2.542,-2.5117,-2.5029,-2.3463,-2.1743,-2.0686,-1.9158,-1.7909,-1.6959,-1.6613,-1.662,-1.6346,-1.6239,-1.6159,-1.5985,-1.5932,-1.5865,-1.5838,-1.5872,-1.6046,-1.6406,-1.676,-1.678,-1.7241,-1.7535,-1.7542,-1.7549,-1.7502,-1.7495,-1.7561,-1.7475,-1.7508,-1.7542,-1.7582,-1.7495,-1.7387,-1.7174,-1.6748,-1.5505,-1.3873,-1.2576,-1.1057,-0.9557,-0.8757,-0.8211,-0.8275,-0.8357,-0.8436,-0.8525,-0.8533,-0.8574,-0.8638,-0.8706,-0.8737,-0.8818,-0.8844,-0.8937,-0.8937,-0.8937,-0.8937,-0.8937,-0.8937,-0.8937,-0.8937,-0.8937,-0.8937,-0.8937,-0.8937,-0.8937,-0.8937,-0.8937,-0.8937,-0.8881,-0.8771,-0.782,-0.7035,-0.5139,-0.3632,-0.2125,0.0,0.0,0.0,0.0,0.0,0.0,0.0,0.0,0.0,0.0,0.0,0.0,0.0,0.0,0.0,0.0,0.0,0.0,0.0,0.0,0.0,0.0,0.0,0.0,0.0,0.0,0.0,-2.4668,-2.4531,-2.4228,-2.4277,-2.4492,-2.4121,-2.4238,-2.4727,-2.4727,-2.4853,-2.4971,-2.4623,-2.3636,-2.1854,-2.0814,-1.9381,-1.7925,-1.6647,-1.6281,-1.6152,-1.5985,-1.6005,-1.5959,-1.5885,-1.5825,-1.5825,-1.5852,-1.5932,-1.6152,-1.662,-1.7072,-1.7099,-1.7447,-1.7535,-1.7542,-1.7555,-1.7589,-1.7589,-1.7589,-1.7589,-1.7589,-1.7589,-1.7582,-1.7569,-1.7514,-1.7501,-1.6715,-1.4994,-1.3772,-1.2633,-1.0294,-0.9039,-0.8344,-0.8174,-0.8174,-0.8269,-0.8421,-0.8537,-0.8652,-0.8726,-0.8801,-0.8838,-0.8876,-0.8844,-0.8868,-0.8878,-0.8937,-0.8937,-0.8937,-0.8937,-0.8937,-0.8937,-0.8937,-0.8937,-0.8937,-0.8937,-0.8937,-0.8937,-0.8937,-0.8937,-0.8937,-0.8881,-0.8771,-0.838,-0.7595,-0.6366,-0.4916,-0.3465,-0.2014,0.0,0.0,0.0,0.0,0.0,0.0,0.0,0.0,0.0,0.0,0.0,0.0,0.0,0.0,0.0,0.0,0.0,0.0,0.0,0.0,0.0,0.0,0.0,0.0,0.0,0.0,-2.4307,-2.4102,-2.3682,-2.375,-2.4023,-2.3682,-2.3838,-2.4277,-2.3978,-2.4092,-2.4443,-2.4091,-2.3101,-2.1505,-2.0381,-1.9036,-1.7508,-1.645,-1.606,-1.5838,-1.5825,-1.5845,-1.5825,-1.5825,-1.5825,-1.5825,-1.5791,-1.5952,-1.6206,-1.6489,-1.6777,-1.6924,-1.7206,-1.7447,-1.7467,-1.7541,-1.7575,-1.7589,-1.7589,-1.7589,-1.7589,-1.7589,-1.7589,-1.7589,-1.7589,-1.7589,-1.6664,-1.499,-1.3682,-1.237,-1.0287,-0.897,-0.847,-0.8316,-0.8303,-0.8384,-0.8513,-0.8648,-0.8784,-0.8876,-0.8937,-0.8937,-0.8937,-0.8875,-0.8875,-0.8937,-0.8937,-0.8937,-0.8937,-0.8937,-0.8937,-0.8937,-0.8937,-0.8937,-0.8937,-0.8937,-0.8937,-0.8937,-0.8937,-0.8937,-0.8937,-0.8881,-0.8826,-0.8826,-0.7986,-0.6924,-0.5586,-0.486,-0.3409,-0.1958,-0.1287,-0.0728,-0.0504,0.0,0.0,0.0,0.0,0.0,0.0,0.0,0.0,0.0,0.0,0.0,0.0,0.0,0.0,0.0,0.0,0.0,0.0,0.0,0.0,0.0,0.0,-2.4023,-2.3662,-2.3257,-2.3315,-2.3623,-2.3276,-2.35,-2.3988,-2.3442,-2.3325,-2.3711,-2.3721,-2.2024,-2.0508,-1.9405,-1.7801,-1.6636,-1.6184,-1.5899,-1.5791,-1.5825,-1.5825,-1.5825,-1.5825,-1.5825,-1.5865,-1.5905,-1.5979,-1.6126,-1.638,-1.6547,-1.65,-1.6797,-1.7159,-1.7266,-1.7414,-1.7561,-1.7569,-1.7589,-1.7589,-1.7589,-1.7589,-1.7589,-1.7589,-1.7589,-1.7589,-1.6723,-1.5476,-1.3857,-1.248,-1.1022,-0.9709,-0.891,-0.8713,-0.8476,-0.8526,-0.8604,-0.8754,-0.8879,-0.892,-0.8937,-0.8937,-0.8937,-0.8937,-0.8937,-0.8937,-0.8937,-0.8937,-0.8937,-0.8937,-0.8937,-0.8937,-0.8937,-0.8937,-0.8937,-0.8937,-0.8937,-0.8937,-0.8937,-0.8937,-0.8937,-0.8937,-0.8937,-0.8937,-0.8322,-0.7315,-0.6478,-0.5808,-0.4916,-0.3521,-0.246,-0.1734,-0.1175,0.0,0.0,0.0,0.0,0.0,0.0,0.0,0.0,0.0,0.0,0.0,0.0,0.0,0.0,0.0,0.0,0.0,0.0,0.0,0.0,0.0,0.0,-2.3296,-2.3252,-2.312,-2.3159,-2.3208,-2.313,-2.3198,-2.3296,-2.3198,-2.3159,-2.3237,-2.313,-2.2264,-2.089,-1.9852,-1.858,-1.7444,-1.6527,-1.592,-1.5825,-1.5825,-1.5825,-1.5825,-1.5825,-1.5825,-1.5885,-1.6019,-1.6279,-1.6172,-1.6406,-1.6707,-1.6904,-1.668,-1.6971,-1.7192,-1.734,-1.746,-1.7508,-1.7589,-1.7589,-1.7589,-1.7589,-1.7589,-1.7589,-1.7589,-1.7589,-1.7094,-1.5902,-1.5257,-1.411,-1.2224,-1.0728,-0.9853,-0.9157,-0.8694,-0.8625,-0.8706,-0.8801,-0.8896,-0.8933,-0.8937,-0.8937,-0.8937,-0.8937,-0.8937,-0.8937,-0.8937,-0.8937,-0.8937,-0.8937,-0.8937,-0.8937,-0.8937,-0.8937,-0.8937,-0.8937,-0.8937,-0.8937,-0.8937,-0.8937,-0.8937,-0.8937,-0.8937,-0.8937,-0.8881,-0.7931,-0.7315,-0.6644,-0.6366,-0.5025,-0.3688,-0.2964,-0.2237,0.0,0.0,0.0,0.0,0.0,0.0,0.0,0.0,0.0,0.0,0.0,0.0,0.0,0.0,0.0,0.0,0.0,0.0,0.0,0.0,0.0,0.0]},{"header":{"parameterUnit":"m.s-1","parameterCategory":1,"la1":31.0,"la2":29.5877,"lo1":-88.7671,"lo2":-86.6584,"dy":0.0162,"dx":0.0185,"nx":115,"ny":88,"refTime":"2024-05-29T00:00:00:Z","depth":0,"parameterNumber":3,"parameterNumberName":"V-component_of_WINDS"},"data":[0.0,0.0,0.0,0.0,0.0,0.0,0.0,0.0,0.0,0.0,0.0,0.0,0.0,0.0,0.0,0.0,0.0,0.0,0.0,0.0,0.0,0.0,0.0,0.0,0.0,0.0,0.0,0.0,0.0,0.0,0.0,0.0,0.0,0.0,0.0,0.0,0.0,0.0,0.0,0.0,0.0,0.0,0.0,0.0,0.0,0.0,0.0,0.0,0.0,0.0,0.0,0.0,0.0,0.0,0.0,0.0,0.0,0.0,0.0,0.0,0.0,0.0,0.0,0.0,0.0,0.0,0.0,0.0,0.0,0.0,0.0,0.0,0.0,0.0,0.0,0.0,0.0,0.0,0.0,0.0,0.0,0.0,0.0,0.0,0.0,0.0,0.0,0.0,0.0,0.0,0.0,0.0,0.0,0.0,0.0,0.0,0.0,0.0,0.0,0.0,0.0,0.0,0.0,0.0,0.0,0.0,0.0,0.0,0.0,0.0,0.0,0.0,0.0,0.0,0.0,0.0,0.0,0.0,0.0,0.0,0.0,0.0,0.0,0.0,0.0,0.0,0.0,0.0,0.0,0.0,0.0,0.0,0.0,0.0,0.0,0.0,0.0,0.0,0.0,0.0,0.0,0.0,0.0,0.0,0.0,0.0,0.0,0.0,0.0,0.0,0.0,0.0,0.0,0.0,0.0,0.0,0.0,0.0,0.0,0.0,0.0,0.0,0.0,0.0,0.0,0.0,0.0,0.0,0.0,0.0,0.0,0.0,0.0,0.0,0.0,0.0,0.0,0.0,0.0,0.0,0.0,0.0,0.0,0.0,0.0,0.0,0.0,0.0,0.0,0.0,0.0,0.0,0.0,0.0,0.0,0.0,0.0,0.0,0.0,0.0,0.0,0.0,0.0,0.0,0.0,0.0,0.0,0.0,0.0,0.0,0.0,0.0,0.0,0.0,0.0,0.0,0.0,0.0,0.0,0.0,0.0,0.0,0.0,0.0,0.0,0.0,0.0,0.0,0.0,0.0,0.0,0.0,0.0,0.0,0.0,0.0,0.0,0.0,0.0,0.0,0.0,0.0,0.0,0.0,0.0,0.0,0.0,0.0,0.0,0.0,0.0,0.0,0.0,0.0,0.0,0.0,0.0,0.0,0.0,0.0,0.0,0.0,0.0,0.0,0.0,0.0,0.0,0.0,0.0,0.0,0.0,0.0,0.0,0.0,0.0,0.0,0.0,0.0,0.0,0.0,0.0,0.0,0.0,0.0,0.0,0.0,0.0,0.0,0.0,0.0,0.0,0.0,0.0,0.0,0.0,0.0,0.0,0.0,0.0,0.0,0.0,0.0,0.0,0.0,0.0,0.0,0.0,0.0,0.0,0.0,0.0,0.0,0.0,0.0,0.0,0.0,0.0,0.0,0.0,0.0,0.0,0.0,0.0,0.0,0.0,0.0,0.0,0.0,0.0,0.0,0.0,0.0,0.0,0.0,0.0,0.0,0.0,0.0,0.0,0.0,0.0,0.0,0.0,0.0,0.0,0.0,0.0,0.0,0.0,0.0,0.0,0.0,0.0,0.0,0.0,0.0,0.0,0.0,0.0,0.0,0.0,0.0,0.0,0.0,0.0,0.0,0.0,0.0,0.0,0.0,0.0,0.0,0.0,0.0,0.0,0.0,0.0,0.0,0.0,0.0,0.0,0.0,0.0,0.0,0.0,0.0,0.0,0.0,0.0,0.0,0.0,0.0,0.0,0.0,0.0,0.0,0.0,0.0,0.0,0.0,0.0,0.0,0.0,0.0,0.0,0.0,0.0,0.0,0.0,0.0,0.0,0.0,0.0,0.0,0.0,0.0,0.0,0.0,0.0,0.0,0.0,0.0,0.0,0.0,0.0,0.0,0.0,0.0,0.0,0.0,0.0,0.0,0.0,0.0,0.0,0.0,0.0,0.0,0.0,0.0,0.0,0.0,0.0,0.0,0.0,0.0,0.0,0.0,0.0,0.0,0.0,0.0,0.0,0.0,0.0,0.0,0.0,0.0,0.0,0.0,0.0,0.0,0.0,0.0,0.0,0.0,0.0,0.0,0.0,0.0,0.0,0.0,0.0,0.0,0.0,0.0,0.0,0.0,0.0,0.0,0.0,0.0,0.0,0.0,0.0,0.0,0.0,0.0,0.0,0.0,0.0,0.0,0.0,0.0,0.0,0.0,0.0,0.0,0.0,0.0,0.0,0.0,0.0,0.0,0.0,0.0,0.0,0.0,0.0,0.0,0.0,0.0,0.0,0.0,0.0,0.0,0.0,0.0,0.0,0.0,0.0,0.0,0.0,0.0,0.0,0.0,0.0,0.0,0.0,0.0,0.0,0.0,0.0,0.0,0.0,0.0,0.0,0.0,0.0,0.0,0.0,0.0,0.0,0.0,0.0,0.0,0.0,0.0,0.0,0.0,0.0,0.0,0.0,0.0,0.0,0.0,0.0,0.0,0.0,0.0,0.0,0.0,0.0,0.0,0.0,0.0,0.0,0.0,0.0,0.0,0.0,0.0,0.0,0.0,0.0,0.0,0.0,0.0,0.0,0.0,0.0,0.0,0.0,0.0,0.0,0.0,0.0,0.0,0.0,0.0,0.0,0.0,0.0,0.0,0.0,0.0,0.0,0.0,0.0,0.0,0.0,0.0,0.0,0.0,0.0,0.0,0.0,0.0,0.0,0.0,0.0,0.0,0.0,0.0,0.0,0.0,0.0,0.0,0.0,0.0,0.0,0.0,0.0,0.0,0.0,0.0,0.0,0.0,0.0,0.0,0.0,0.0,0.0,0.0,0.0,0.0,0.0,0.0,0.0,0.0,0.0,0.0,0.0,0.0,0.0,0.0,0.0,0.0,0.0,0.0,0.0,0.0,0.0,0.0,0.0,0.0,0.0,0.0,0.0,0.0,0.0,0.0,0.0,0.0,0.0,0.0,0.0,0.0,0.0,0.0,0.0,0.0,0.0,0.0,0.0,0.0,0.0,0.0,0.0,0.0,0.0,0.0,0.0,0.0,0.0,0.0,0.0,0.0,0.0,0.0,0.0,0.0,0.0,0.0,0.0,0.0,0.0,0.0,0.0,0.0,0.0,0.0,0.0,0.0,0.0,0.0,0.0,0.0,0.0,0.0,0.0,0.0,0.0,0.0,0.0,0.0,0.0,0.0,0.0,0.0,0.0,0.0,0.0,0.0,0.0,0.0,0.0,0.0,0.0,0.0,0.0,0.0,0.0,0.0,0.0,0.0,0.0,0.0,0.0,0.0,0.0,0.0,0.0,0.0,0.0,0.0,0.0,0.0,0.0,0.0,0.0,0.0,0.0,0.0,0.0,0.0,0.0,0.0,0.0,0.0,0.0,0.0,0.0,0.0,0.0,0.0,0.0,0.0,0.0,0.0,0.0,0.0,0.0,0.0,0.0,0.0,0.0,0.0,0.0,0.0,0.0,0.0,0.0,0.0,0.0,0.0,0.0,0.0,0.0,0.0,0.0,0.0,0.0,0.0,0.0,0.0,0.0,0.0,0.0,0.0,0.0,0.0,0.0,0.0,0.0,0.0,0.0,0.0,0.0,0.0,0.0,0.0,0.0,0.0,0.0,0.0,0.0,0.0,0.0,0.0,0.0,0.0,0.0,0.0,0.0,0.0,0.0,0.0,0.0,0.0,0.0,0.0,0.0,0.0,0.0,0.0,0.0,0.0,0.0,0.0,0.0,0.0,0.0,0.0,0.0,0.0,0.0,0.0,0.0,0.0,0.0,0.0,0.0,0.0,0.0,0.0,0.0,0.0,0.0,0.0,0.0,0.0,0.0,0.0,0.0,0.0,0.0,0.0,0.0,0.0,0.0,0.0,0.0,0.0,0.0,0.0,0.0,0.0,0.0,0.0,0.0,0.0,0.0,0.0,0.0,0.0,0.0,0.0,0.0,0.0,0.0,0.0,0.0,0.0,0.0,0.0,0.0,0.0,0.0,0.0,0.0,0.0,0.0,0.0,0.0,0.0,0.0,0.0,0.0,0.0,0.0,0.0,0.0,0.0,0.0,0.0,0.0,0.0,0.0,0.0,0.0,0.0,0.0,0.0,0.0,0.0,0.0,0.0,0.0,0.0,0.0,0.0,0.0,0.0,0.0,0.0,0.0,0.0,0.0,0.0,0.0,0.0,0.0,0.0,0.0,0.0,0.0,0.0,0.0,0.0,0.0,0.0,0.0,0.0,0.0,0.0,0.0,0.0,0.0,0.0,0.0,0.0,0.0,0.0,0.0,0.0,2.4199,0.0,0.0,0.0,0.0,0.0,0.0,0.0,0.0,0.0,0.0,0.0,0.0,0.0,0.0,0.0,0.0,0.0,0.0,0.0,0.0,0.0,0.0,0.0,0.0,0.0,0.0,0.0,0.0,0.0,0.0,0.0,0.0,0.0,0.0,0.0,0.0,0.0,0.0,0.0,0.0,0.0,0.0,0.0,0.0,0.0,0.0,0.0,0.0,0.0,0.0,0.0,0.0,0.0,0.0,0.0,0.0,0.0,0.0,0.0,0.0,0.0,0.0,0.0,0.0,0.0,0.0,0.0,0.0,0.0,0.0,0.0,0.0,0.0,0.0,0.0,0.0,0.0,0.0,0.0,0.0,0.0,0.0,0.0,0.0,0.0,0.0,0.0,0.0,0.0,0.0,0.0,0.0,0.0,0.0,0.0,0.0,0.0,0.0,0.0,0.0,0.0,0.0,0.0,0.0,0.0,0.0,0.0,0.0,0.0,0.0,2.4199,2.4199,2.4199,2.4199,2.4199,0.0,0.0,0.0,0.0,0.0,0.0,0.0,0.0,0.0,0.0,0.0,0.0,0.0,0.0,0.0,0.0,0.0,0.0,0.0,0.0,0.0,0.0,0.0,0.0,0.0,0.0,0.0,0.0,0.0,0.0,0.0,0.0,0.0,0.0,0.0,0.0,0.0,0.0,0.0,0.0,0.0,0.0,0.0,0.0,0.0,0.0,0.0,0.0,0.0,0.0,0.0,0.0,0.0,0.0,0.0,0.0,0.0,0.0,0.0,0.0,0.0,0.0,0.0,0.0,0.0,0.0,0.0,0.0,0.0,0.0,0.0,0.0,0.0,0.0,0.0,0.0,0.0,0.0,0.0,0.0,0.0,0.0,0.0,0.0,0.0,0.0,0.0,0.0,0.0,0.0,0.0,0.0,0.0,0.0,0.0,0.0,0.0,0.0,0.0,0.0,0.0,0.0,0.0,0.0,0.0,0.0,0.0,0.0,0.0,0.0,0.0,0.0,2.4475,2.4475,2.4475,0.0,0.0,0.0,0.0,0.0,0.0,0.0,0.0,0.0,0.0,0.0,0.0,0.0,0.0,0.0,0.0,0.0,0.0,0.0,0.0,0.0,0.0,0.0,0.0,0.0,0.0,0.0,0.0,0.0,0.0,0.0,0.0,0.0,0.0,0.0,0.0,0.0,0.0,0.0,0.0,0.0,0.0,0.0,0.0,0.0,0.0,0.0,0.0,0.0,0.0,0.0,0.0,0.0,0.0,0.0,0.0,0.0,0.0,0.0,0.0,0.0,0.0,0.0,0.0,0.0,0.0,0.0,0.0,0.0,0.0,0.0,0.0,0.0,0.0,0.0,0.0,0.0,0.0,0.0,0.0,0.0,0.0,0.0,0.0,0.0,0.0,0.0,0.0,0.0,0.0,0.0,0.0,0.0,0.0,0.0,0.0,0.0,0.0,0.0,0.0,0.0,0.0,0.0,0.0,0.0,0.0,0.0,0.0,0.0,0.0,2.4566,2.5264,2.5283,0.0,2.5301,0.0,0.0,0.0,0.0,0.0,0.0,0.0,0.0,0.0,0.0,0.0,0.0,0.0,0.0,0.0,0.0,0.0,0.0,0.0,0.0,0.0,0.0,0.0,0.0,0.0,0.0,0.0,0.0,0.0,0.0,0.0,0.0,0.0,0.0,0.0,0.0,0.0,0.0,0.0,0.0,0.0,0.0,0.0,0.0,0.0,0.0,0.0,0.0,0.0,0.0,0.0,0.0,0.0,0.0,0.0,0.0,0.0,0.0,0.0,0.0,0.0,0.0,0.0,0.0,0.0,0.0,0.0,0.0,0.0,0.0,0.0,0.0,0.0,0.0,0.0,0.0,0.0,0.0,0.0,0.0,0.0,0.0,0.0,0.0,0.0,0.0,0.0,0.0,0.0,0.0,0.0,0.0,0.0,0.0,0.0,0.0,0.0,0.0,0.0,0.0,0.0,0.0,0.0,0.0,0.0,0.0,0.0,0.0,0.0,0.0,2.5081,2.5384,2.5384,2.5384,0.0,0.0,0.0,0.0,0.0,0.0,0.0,0.0,0.0,0.0,0.0,0.0,0.0,0.0,0.0,0.0,0.0,0.0,0.0,0.0,0.0,0.0,0.0,0.0,0.0,0.0,0.0,0.0,0.0,0.0,0.0,0.0,0.0,0.0,0.0,0.0,0.0,0.0,0.0,0.0,0.0,0.0,0.0,0.0,0.0,0.0,0.0,0.0,0.0,0.0,0.0,0.0,0.0,0.0,0.0,0.0,0.0,0.0,0.0,0.0,0.0,0.0,0.0,0.0,0.0,0.0,0.0,0.0,0.0,0.0,0.0,0.0,0.0,0.0,0.0,0.0,0.0,0.0,0.0,0.0,0.0,0.0,0.0,0.0,0.0,0.0,0.0,0.0,0.0,0.0,0.0,0.0,0.0,0.0,0.0,0.0,0.0,0.0,0.0,0.0,0.0,0.0,0.0,0.0,0.0,0.0,0.0,0.0,0.0,0.0,2.5209,0.0,2.5705,2.5742,2.5631,2.5403,0.0,0.0,0.0,0.0,0.0,0.0,0.0,0.0,0.0,0.0,0.0,0.0,0.0,0.0,0.0,0.0,0.0,0.0,0.0,0.0,0.0,0.0,0.0,0.0,0.0,0.0,0.0,0.0,0.0,0.0,0.0,0.0,0.0,0.0,0.0,0.0,0.0,0.0,0.0,0.0,0.0,0.0,0.0,0.0,0.0,0.0,0.0,0.0,0.0,0.0,0.0,0.0,0.0,0.0,0.0,0.0,0.0,0.0,0.0,0.0,0.0,0.0,0.0,0.0,0.0,0.0,0.0,0.0,0.0,0.0,0.0,0.0,0.0,0.0,0.0,0.0,0.0,0.0,0.0,0.0,0.0,0.0,0.0,0.0,0.0,0.0,0.0,0.0,0.0,0.0,0.0,0.0,0.0,0.0,0.0,0.0,0.0,0.0,0.0,0.0,0.0,0.0,0.0,0.0,0.0,0.0,0.0,0.0,0.0,2.576,2.576,2.6528,2.6557,2.619,0.0,0.0,0.0,0.0,0.0,0.0,0.0,0.0,0.0,0.0,0.0,0.0,0.0,0.0,0.0,0.0,0.0,0.0,0.0,0.0,0.0,0.0,0.0,0.0,0.0,0.0,0.0,0.0,0.0,0.0,0.0,0.0,0.0,0.0,0.0,0.0,0.0,0.0,0.0,0.0,0.0,0.0,0.0,0.0,0.0,0.0,0.0,0.0,0.0,0.0,0.0,0.0,0.0,0.0,0.0,0.0,0.0,0.0,0.0,0.0,0.0,0.0,0.0,0.0,0.0,0.0,0.0,0.0,0.0,0.0,0.0,0.0,0.0,0.0,0.0,0.0,0.0,0.0,0.0,0.0,0.0,0.0,0.0,0.0,0.0,0.0,0.0,0.0,0.0,0.0,0.0,0.0,0.0,0.0,0.0,0.0,0.0,0.0,0.0,0.0,0.0,0.0,0.0,0.0,0.0,0.0,0.0,0.0,0.0,2.5034,2.5264,2.6035,2.7273,2.6374,2.5944,0.0,0.0,0.0,0.0,0.0,0.0,0.0,0.0,0.0,0.0,0.0,0.0,0.0,0.0,0.0,0.0,0.0,0.0,0.0,0.0,0.0,0.0,0.0,0.0,0.0,0.0,0.0,0.0,0.0,0.0,0.0,0.0,0.0,0.0,0.0,0.0,0.0,0.0,0.0,0.0,0.0,0.0,0.0,0.0,0.0,0.0,0.0,0.0,0.0,0.0,0.0,0.0,0.0,0.0,0.0,0.0,0.0,0.0,0.0,0.0,0.0,0.0,0.0,0.0,0.0,0.0,0.0,0.0,0.0,0.0,0.0,0.0,0.0,0.0,0.0,0.0,0.0,0.0,0.0,0.0,0.0,0.0,0.0,0.0,0.0,0.0,0.0,0.0,0.0,0.0,0.0,0.0,0.0,0.0,0.0,0.0,0.0,0.0,0.0,0.0,0.0,0.0,0.0,0.0,0.0,0.0,0.0,0.0,0.0,2.4979,0.0,2.6586,0.0,2.6355,2.5797,0.0,0.0,0.0,0.0,0.0,0.0,0.0,0.0,0.0,0.0,0.0,0.0,0.0,0.0,0.0,0.0,0.0,0.0,0.0,0.0,0.0,0.0,0.0,0.0,0.0,0.0,0.0,0.0,0.0,0.0,0.0,0.0,0.0,0.0,0.0,0.0,0.0,0.0,0.0,0.0,0.0,0.0,0.0,0.0,0.0,0.0,0.0,0.0,0.0,0.0,0.0,0.0,0.0,0.0,0.0,0.0,0.0,0.0,0.0,0.0,0.0,0.0,0.0,0.0,0.0,0.0,0.0,0.0,0.0,0.0,0.0,0.0,0.0,0.0,0.0,0.0,0.0,0.0,0.0,0.0,0.0,0.0,0.0,0.0,0.0,0.0,0.0,0.0,0.0,0.0,0.0,0.0,0.0,0.0,0.0,0.0,0.0,0.0,0.0,0.0,0.0,0.0,0.0,0.0,0.0,0.0,0.0,0.0,2.4997,2.6492,2.731,2.7346,2.6657,2.6565,2.5831,0.0,0.0,0.0,0.0,0.0,0.0,0.0,0.0,0.0,0.0,0.0,0.0,0.0,0.0,0.0,0.0,0.0,0.0,0.0,0.0,0.0,0.0,0.0,0.0,0.0,0.0,0.0,0.0,0.0,0.0,0.0,0.0,0.0,0.0,0.0,0.0,0.0,0.0,0.0,0.0,0.0,0.0,0.0,0.0,0.0,0.0,0.0,0.0,0.0,0.0,0.0,0.0,0.0,0.0,0.0,0.0,0.0,0.0,0.0,0.0,0.0,0.0,0.0,0.0,0.0,0.0,0.0,0.0,0.0,0.0,0.0,0.0,0.0,0.0,0.0,0.0,0.0,0.0,0.0,0.0,0.0,0.0,0.0,0.0,0.0,0.0,0.0,0.0,0.0,0.0,0.0,0.0,0.0,0.0,0.0,0.0,0.0,0.0,0.0,0.0,0.0,0.0,0.0,0.0,0.0,0.0,0.0,0.0,0.0,2.5778,2.6557,2.7126,2.7383,2.6337,2.5797,0.0,0.0,0.0,0.0,0.0,0.0,0.0,0.0,0.0,0.0,0.0,0.0,0.0,0.0,0.0,0.0,0.0,0.0,0.0,0.0,0.0,0.0,0.0,0.0,0.0,0.0,0.0,0.0,0.0,0.0,0.0,0.0,0.0,0.0,0.0,0.0,0.0,0.0,0.0,0.0,0.0,0.0,0.0,0.0,0.0,0.0,0.0,0.0,0.0,0.0,0.0,0.0,0.0,0.0,0.0,0.0,0.0,0.0,0.0,0.0,0.0,0.0,0.0,0.0,0.0,0.0,0.0,0.0,0.0,0.0,0.0,0.0,0.0,0.0,0.0,0.0,0.0,0.0,0.0,0.0,0.0,0.0,0.0,0.0,0.0,0.0,0.0,0.0,0.0,0.0,0.0,0.0,0.0,0.0,0.0,0.0,0.0,0.0,0.0,0.0,0.0,0.0,0.0,0.0,0.0,0.0,0.0,0.0,0.0,2.677,2.7226,2.775,2.8246,2.6696,2.5944,2.6098,0.0,0.0,0.0,0.0,0.0,0.0,0.0,0.0,0.0,0.0,0.0,0.0,0.0,0.0,0.0,0.0,0.0,0.0,0.0,0.0,0.0,0.0,0.0,0.0,0.0,0.0,0.0,0.0,0.0,0.0,0.0,0.0,0.0,0.0,0.0,0.0,0.0,0.0,0.0,0.0,0.0,0.0,0.0,0.0,0.0,0.0,0.0,0.0,0.0,0.0,0.0,0.0,0.0,0.0,0.0,0.0,0.0,0.0,0.0,0.0,0.0,0.0,0.0,0.0,0.0,0.0,0.0,0.0,0.0,0.0,0.0,0.0,0.0,0.0,0.0,0.0,0.0,0.0,0.0,0.0,0.0,0.0,0.0,0.0,0.0,0.0,0.0,0.0,0.0,0.0,0.0,0.0,0.0,0.0,0.0,0.0,0.0,0.0,0.0,0.0,0.0,0.0,0.0,0.0,0.0,0.0,0.0,0.0,2.9115,2.9133,2.9115,2.906,2.7556,2.6337,0.0,0.0,0.0,0.0,0.0,0.0,0.0,0.0,0.0,0.0,0.0,0.0,0.0,0.0,0.0,0.0,0.0,0.0,0.0,0.0,0.0,0.0,0.0,0.0,0.0,0.0,0.0,0.0,0.0,0.0,0.0,0.0,0.0,0.0,0.0,0.0,0.0,0.0,0.0,0.0,0.0,0.0,0.0,0.0,0.0,0.0,0.0,0.0,0.0,0.0,0.0,0.0,0.0,0.0,0.0,0.0,0.0,0.0,0.0,0.0,0.0,0.0,0.0,0.0,0.0,0.0,0.0,0.0,0.0,0.0,0.0,0.0,0.0,0.0,0.0,0.0,0.0,0.0,0.0,0.0,0.0,0.0,0.0,0.0,0.0,0.0,0.0,0.0,0.0,0.0,0.0,0.0,0.0,0.0,0.0,0.0,0.0,0.0,0.0,0.0,0.0,0.0,0.0,0.0,0.0,0.0,0.0,0.0,0.0,3.0687,3.076,3.0503,2.9898,2.8895,2.7721,0.0,0.0,0.0,0.0,0.0,0.0,0.0,0.0,0.0,0.0,0.0,0.0,0.0,0.0,0.0,0.0,0.0,0.0,0.0,0.0,0.0,0.0,0.0,0.0,0.0,0.0,0.0,0.0,0.0,0.0,0.0,0.0,0.0,0.0,0.0,0.0,0.0,0.0,0.0,0.0,0.0,0.0,0.0,0.0,0.0,0.0,0.0,0.0,0.0,0.0,0.0,0.0,0.0,0.0,0.0,0.0,0.0,0.0,0.0,0.0,0.0,0.0,0.0,0.0,0.0,0.0,0.0,0.0,0.0,0.0,0.0,0.0,0.0,0.0,0.0,0.0,0.0,0.0,0.0,0.0,0.0,0.0,0.0,0.0,0.0,0.0,0.0,0.0,0.0,0.0,0.0,0.0,0.0,0.0,0.0,0.0,0.0,0.0,0.0,0.0,0.0,0.0,0.0,0.0,0.0,0.0,0.0,0.0,3.0289,3.1861,3.2247,3.2027,3.1219,3.0106,2.876,0.0,0.0,0.0,0.0,0.0,0.0,0.0,0.0,0.0,0.0,0.0,0.0,0.0,0.0,0.0,0.0,0.0,0.0,0.0,0.0,0.0,0.0,0.0,0.0,0.0,0.0,0.0,0.0,0.0,0.0,0.0,0.0,0.0,0.0,0.0,0.0,0.0,0.0,0.0,0.0,0.0,0.0,0.0,0.0,0.0,0.0,0.0,0.0,0.0,0.0,0.0,0.0,0.0,0.0,0.0,0.0,0.0,0.0,0.0,0.0,0.0,0.0,0.0,0.0,0.0,0.0,0.0,0.0,0.0,0.0,0.0,0.0,0.0,0.0,0.0,0.0,0.0,0.0,0.0,0.0,0.0,0.0,0.0,0.0,0.0,0.0,0.0,0.0,0.0,0.0,0.0,0.0,0.0,0.0,0.0,0.0,0.0,0.0,0.0,0.0,0.0,0.0,0.0,0.0,0.0,0.0,0.0,0.0,3.1152,3.2564,3.3385,3.3458,3.2711,3.1256,2.9641,0.0,0.0,0.0,0.0,0.0,0.0,0.0,0.0,0.0,0.0,0.0,0.0,0.0,0.0,0.0,0.0,0.0,0.0,0.0,0.0,0.0,0.0,0.0,0.0,0.0,0.0,0.0,0.0,0.0,0.0,0.0,0.0,0.0,0.0,0.0,0.0,0.0,0.0,0.0,0.0,0.0,0.0,0.0,0.0,0.0,0.0,0.0,0.0,0.0,0.0,0.0,0.0,0.0,0.0,0.0,0.0,0.0,0.0,0.0,0.0,0.0,0.0,0.0,0.0,0.0,0.0,0.0,0.0,0.0,0.0,0.0,0.0,0.0,0.0,0.0,0.0,0.0,0.0,0.0,0.0,0.0,0.0,0.0,0.0,0.0,0.0,0.0,0.0,0.0,0.0,0.0,0.0,0.0,0.0,0.0,0.0,0.0,0.0,0.0,0.0,0.0,0.0,0.0,0.0,0.0,0.0,0.0,0.0,3.2234,3.2601,3.3385,3.3715,3.355,3.2596,3.1041,0.0,0.0,0.0,0.0,0.0,0.0,0.0,0.0,0.0,0.0,0.0,0.0,0.0,0.0,0.0,0.0,0.0,0.0,0.0,0.0,0.0,0.0,0.0,0.0,0.0,0.0,0.0,0.0,0.0,0.0,0.0,0.0,0.0,0.0,0.0,0.0,0.0,0.0,0.0,0.0,0.0,0.0,0.0,0.0,0.0,0.0,0.0,0.0,2.7857,0.0,0.0,0.0,0.0,0.0,0.0,0.0,0.0,0.0,0.0,0.0,0.0,0.0,0.0,0.0,0.0,0.0,0.0,0.0,0.0,0.0,0.0,0.0,0.0,0.0,0.0,0.0,0.0,0.0,0.0,0.0,0.0,0.0,0.0,0.0,0.0,0.0,0.0,0.0,0.0,0.0,0.0,0.0,0.0,0.0,0.0,0.0,0.0,0.0,0.0,0.0,0.0,0.0,0.0,0.0,0.0,0.0,0.0,0.0,3.3164,3.3183,3.394,3.4192,3.3807,3.3385,3.2032,0.0,0.0,0.0,0.0,0.0,0.0,0.0,0.0,0.0,0.0,0.0,0.0,0.0,0.0,0.0,0.0,0.0,0.0,0.0,0.0,0.0,0.0,0.0,0.0,0.0,0.0,0.0,0.0,0.0,0.0,0.0,0.0,0.0,0.0,0.0,0.0,0.0,0.0,0.0,0.0,0.0,0.0,0.0,0.0,0.0,0.0,0.0,0.0,0.0,0.0,0.0,0.0,0.0,0.0,0.0,0.0,0.0,0.0,0.0,0.0,0.0,0.0,0.0,0.0,0.0,0.0,0.0,0.0,0.0,0.0,0.0,0.0,0.0,0.0,0.0,0.0,0.0,0.0,0.0,0.0,0.0,0.0,0.0,0.0,0.0,0.0,0.0,0.0,0.0,0.0,0.0,0.0,0.0,0.0,0.0,0.0,0.0,0.0,0.0,0.0,0.0,0.0,0.0,0.0,0.0,0.0,0.0,3.2412,3.3862,3.4009,3.4656,3.4619,3.3844,3.3807,3.2724,3.0485,0.0,0.0,0.0,0.0,0.0,0.0,0.0,0.0,0.0,0.0,0.0,0.0,0.0,0.0,0.0,0.0,0.0,0.0,0.0,0.0,0.0,0.0,0.0,0.0,0.0,0.0,0.0,0.0,0.0,0.0,0.0,0.0,0.0,0.0,0.0,0.0,0.0,0.0,2.8159,3.0371,0.0,0.0,0.0,0.0,0.0,0.0,0.0,0.0,3.0215,0.0,0.0,0.0,0.0,0.0,0.0,0.0,0.0,0.0,0.0,0.0,0.0,0.0,0.0,0.0,0.0,0.0,0.0,0.0,0.0,0.0,0.0,0.0,0.0,0.0,0.0,0.0,0.0,0.0,0.0,0.0,0.0,0.0,0.0,0.0,0.0,0.0,0.0,0.0,0.0,0.0,0.0,0.0,0.0,0.0,0.0,0.0,0.0,0.0,0.0,0.0,0.0,0.0,0.0,0.0,0.0,3.2963,3.3532,3.4137,3.4784,3.4931,3.4601,3.3844,3.3807,3.2981,3.1268,0.0,0.0,0.0,0.0,0.0,0.0,0.0,0.0,0.0,0.0,0.0,0.0,0.0,0.0,0.0,0.0,0.0,0.0,0.0,0.0,0.0,0.0,0.0,0.0,0.0,0.0,0.0,0.0,0.0,0.0,0.0,0.0,0.0,0.0,0.0,0.0,0.0,0.0,0.0,3.1564,3.2699,0.0,0.0,0.0,0.0,0.0,0.0,0.0,0.0,3.0019,0.0,0.0,0.0,0.0,0.0,0.0,0.0,0.0,0.0,0.0,0.0,0.0,0.0,0.0,0.0,0.0,0.0,0.0,0.0,0.0,0.0,0.0,0.0,0.0,0.0,0.0,0.0,0.0,0.0,0.0,0.0,0.0,0.0,0.0,0.0,0.0,0.0,0.0,0.0,0.0,0.0,0.0,0.0,0.0,0.0,0.0,0.0,0.0,0.0,0.0,0.0,0.0,0.0,0.0,0.0,3.2467,3.4229,3.5293,3.5679,3.5665,3.5293,3.4449,3.361,3.2614,0.0,0.0,0.0,0.0,0.0,0.0,0.0,0.0,0.0,0.0,0.0,0.0,0.0,0.0,0.0,0.0,0.0,0.0,0.0,0.0,0.0,0.0,0.0,0.0,0.0,0.0,0.0,0.0,0.0,0.0,0.0,0.0,0.0,0.0,0.0,0.0,0.0,0.0,0.0,0.0,3.2795,3.3571,3.3571,0.0,0.0,0.0,0.0,0.0,0.0,3.1404,3.123,0.0,0.0,0.0,0.0,0.0,0.0,0.0,0.0,0.0,0.0,0.0,0.0,0.0,0.0,0.0,0.0,0.0,0.0,0.0,0.0,0.0,0.0,0.0,0.0,0.0,0.0,0.0,0.0,0.0,0.0,0.0,0.0,0.0,0.0,0.0,0.0,0.0,0.0,0.0,0.0,0.0,0.0,0.0,0.0,0.0,0.0,0.0,0.0,0.0,0.0,0.0,0.0,0.0,0.0,0.0,3.1892,3.4614,3.6211,3.6538,3.6376,3.5899,3.499,3.3573,3.232,0.0,0.0,0.0,0.0,0.0,0.0,0.0,0.0,0.0,0.0,0.0,0.0,0.0,0.0,0.0,0.0,0.0,0.0,0.0,0.0,0.0,0.0,0.0,0.0,0.0,0.0,0.0,0.0,0.0,0.0,0.0,0.0,0.0,0.0,0.0,0.0,0.0,0.0,0.0,0.0,0.0,3.4911,3.4757,3.4597,0.0,0.0,0.0,0.0,3.361,3.3301,0.0,0.0,0.0,0.0,0.0,0.0,0.0,0.0,0.0,0.0,0.0,0.0,0.0,0.0,0.0,0.0,0.0,0.0,0.0,0.0,0.0,0.0,0.0,0.0,0.0,0.0,0.0,0.0,0.0,0.0,0.0,0.0,0.0,0.0,0.0,0.0,0.0,0.0,0.0,0.0,0.0,0.0,0.0,0.0,0.0,0.0,0.0,0.0,0.0,0.0,0.0,0.0,0.0,0.0,0.0,0.0,3.3403,3.4582,3.5866,3.7254,3.6666,3.5881,3.5023,3.4124,3.2614,0.0,0.0,0.0,0.0,0.0,0.0,0.0,0.0,0.0,0.0,0.0,0.0,0.0,0.0,0.0,0.0,0.0,0.0,0.0,0.0,0.0,0.0,0.0,0.0,0.0,0.0,0.0,0.0,0.0,0.0,0.0,0.0,0.0,0.0,0.0,0.0,0.0,0.0,0.0,0.0,0.0,3.7339,3.6668,3.5881,3.5623,0.0,0.0,3.4517,3.5451,3.556,0.0,0.0,0.0,0.0,0.0,0.0,0.0,0.0,0.0,0.0,0.0,0.0,0.0,0.0,0.0,0.0,0.0,0.0,0.0,0.0,0.0,0.0,0.0,0.0,0.0,0.0,0.0,0.0,0.0,0.0,0.0,0.0,0.0,0.0,0.0,0.0,0.0,0.0,0.0,0.0,0.0,0.0,0.0,0.0,0.0,0.0,0.0,0.0,0.0,0.0,0.0,0.0,0.0,0.0,0.0,3.0687,3.3733,3.5532,3.7,3.8083,3.6945,3.6119,3.5734,3.4045,3.221,0.0,0.0,0.0,0.0,0.0,0.0,0.0,0.0,0.0,0.0,0.0,0.0,0.0,0.0,0.0,0.0,0.0,0.0,0.0,0.0,0.0,0.0,0.0,0.0,0.0,0.0,0.0,0.0,0.0,0.0,0.0,0.0,0.0,0.0,0.0,0.0,0.0,0.0,0.0,0.0,0.0,0.0,3.7591,3.7332,0.0,0.0,0.0,3.6339,3.7177,0.0,0.0,0.0,0.0,0.0,0.0,0.0,0.0,0.0,0.0,0.0,0.0,0.0,0.0,0.0,0.0,0.0,0.0,0.0,0.0,0.0,0.0,0.0,0.0,0.0,0.0,0.0,0.0,0.0,0.0,0.0,0.0,0.0,0.0,0.0,0.0,0.0,0.0,0.0,0.0,0.0,0.0,0.0,0.0,0.0,0.0,0.0,0.0,0.0,0.0,0.0,0.0,0.0,0.0,0.0,0.0,0.0,3.3788,3.6244,3.7896,3.8634,3.7331,3.6505,3.6266,3.41,0.0,0.0,0.0,0.0,0.0,0.0,0.0,0.0,0.0,0.0,0.0,0.0,0.0,0.0,0.0,0.0,0.0,0.0,0.0,0.0,0.0,0.0,0.0,0.0,0.0,0.0,0.0,2.5308,0.0,0.0,0.0,0.0,0.0,0.0,0.0,0.0,0.0,0.0,0.0,0.0,0.0,0.0,3.8117,3.8805,3.9097,3.9361,0.0,0.0,3.8375,3.9004,3.8102,3.6992,0.0,0.0,0.0,0.0,0.0,0.0,0.0,0.0,0.0,0.0,0.0,0.0,0.0,0.0,0.0,0.0,0.0,0.0,0.0,0.0,0.0,0.0,0.0,0.0,0.0,0.0,0.0,0.0,0.0,0.0,0.0,0.0,0.0,0.0,0.0,0.0,0.0,0.0,0.0,0.0,0.0,0.0,0.0,0.0,0.0,0.0,0.0,0.0,0.0,0.0,0.0,0.0,0.0,0.0,0.0,3.377,3.6244,3.7915,3.8652,3.7863,3.707,3.6303,3.4614,3.2284,0.0,0.0,0.0,0.0,0.0,0.0,0.0,0.0,0.0,0.0,0.0,0.0,0.0,0.0,0.0,0.0,0.0,0.0,0.0,0.0,0.0,0.0,0.0,0.0,0.0,0.0,0.0,0.0,0.0,0.0,0.0,0.0,0.0,0.0,0.0,0.0,0.0,0.0,0.0,0.0,0.0,4.0538,4.0764,4.1395,4.2184,0.0,0.0,4.0821,4.0976,4.0918,3.9766,3.6523,0.0,0.0,0.0,0.0,0.0,0.0,0.0,0.0,0.0,0.0,0.0,0.0,0.0,0.0,0.0,0.0,0.0,0.0,0.0,0.0,0.0,0.0,0.0,0.0,0.0,0.0,0.0,0.0,0.0,0.0,0.0,0.0,0.0,0.0,0.0,0.0,0.0,0.0,0.0,0.0,0.0,0.0,0.0,0.0,0.0,0.0,0.0,0.0,0.0,0.0,0.0,0.0,0.0,3.1898,3.3788,3.6725,3.8395,3.867,3.7933,3.7125,3.6303,3.5165,3.3023,0.0,0.0,0.0,0.0,0.0,0.0,0.0,0.0,0.0,0.0,0.0,0.0,0.0,0.0,0.0,0.0,0.0,0.0,0.0,0.0,0.0,0.0,0.0,0.0,0.0,0.0,0.0,0.0,2.6577,2.6909,2.6909,0.0,0.0,0.0,0.0,0.0,0.0,0.0,0.0,0.0,0.0,4.1301,4.2422,4.2884,0.0,0.0,4.3104,4.2497,4.2012,4.1523,4.0391,3.7988,3.7441,0.0,0.0,0.0,0.0,0.0,0.0,0.0,0.0,0.0,0.0,0.0,0.0,0.0,0.0,0.0,0.0,0.0,0.0,0.0,0.0,0.0,0.0,0.0,0.0,0.0,0.0,0.0,0.0,0.0,0.0,0.0,0.0,0.0,0.0,0.0,0.0,0.0,0.0,0.0,0.0,0.0,0.0,0.0,0.0,0.0,0.0,0.0,0.0,0.0,0.0,0.0,0.0,3.2192,3.3788,3.7019,3.8707,3.8707,3.8157,3.7474,3.6666,3.5573,3.361,0.0,0.0,0.0,0.0,0.0,0.0,0.0,0.0,0.0,0.0,0.0,0.0,0.0,0.0,0.0,0.0,0.0,0.0,0.0,0.0,0.0,0.0,0.0,0.0,0.0,0.0,0.0,0.0,2.7544,2.7799,2.7544,0.0,0.0,0.0,0.0,0.0,0.0,0.0,0.0,0.0,0.0,4.2316,4.3809,4.4274,4.4473,4.4473,4.4258,4.3887,4.3281,4.25,4.1445,3.998,0.0,0.0,0.0,0.0,0.0,0.0,0.0,0.0,0.0,0.0,0.0,0.0,0.0,0.0,0.0,0.0,0.0,0.0,0.0,0.0,0.0,0.0,0.0,0.0,0.0,0.0,0.0,2.5383,0.0,0.0,2.4346,0.0,0.0,0.0,0.0,0.0,0.0,0.0,0.0,0.0,0.0,0.0,0.0,0.0,0.0,0.0,0.0,0.0,0.0,0.0,0.0,0.0,0.0,3.2223,3.3825,3.7055,3.8707,3.8707,3.8689,3.8267,3.7456,3.5866,3.3848,3.1403,0.0,0.0,0.0,0.0,0.0,0.0,0.0,0.0,0.0,0.0,0.0,0.0,0.0,0.0,0.0,0.0,0.0,0.0,0.0,0.0,0.0,0.0,0.0,0.0,0.0,0.0,2.7909,2.7909,2.7607,0.0,0.0,0.0,0.0,0.0,0.0,0.0,0.0,0.0,0.0,4.1874,4.389,4.4843,4.5683,4.6152,4.6211,4.5508,4.4961,4.4902,4.418,4.334,0.0,0.0,0.0,0.0,0.0,0.0,0.0,0.0,0.0,0.0,0.0,0.0,0.0,0.0,0.0,0.0,0.0,0.0,0.0,0.0,0.0,0.0,0.0,0.0,0.0,0.0,0.0,2.9161,2.7831,0.0,0.0,0.0,0.0,0.0,0.0,0.0,0.0,0.0,0.0,0.0,3.3885,3.5771,0.0,0.0,0.0,0.0,0.0,0.0,0.0,0.0,0.0,0.0,0.0,0.0,3.2999,3.4619,3.7297,3.8707,3.8707,3.8707,3.8322,3.7511,3.6431,3.4211,3.0705,0.0,0.0,0.0,0.0,0.0,0.0,0.0,0.0,0.0,0.0,0.0,0.0,0.0,0.0,0.0,0.0,0.0,0.0,0.0,0.0,0.0,0.0,0.0,0.0,0.0,2.8929,0.0,0.0,0.0,0.0,0.0,0.0,0.0,0.0,0.0,0.0,0.0,3.9548,4.1828,4.3519,4.4841,4.5742,4.6113,4.6289,0.0,0.0,0.0,0.0,0.0,0.0,0.0,0.0,0.0,0.0,0.0,0.0,0.0,0.0,4.2637,3.9219,3.8125,3.7715,3.7734,0.0,0.0,0.0,0.0,0.0,0.0,0.0,0.0,0.0,0.0,0.0,0.0,0.0,0.0,3.1641,0.0,3.0675,0.0,0.0,0.0,0.0,0.0,0.0,0.0,0.0,3.617,3.7239,3.6784,3.8637,3.8545,0.0,3.645,3.4412,0.0,0.0,0.0,0.0,0.0,0.0,0.0,0.0,3.3408,3.5023,3.7444,3.8707,3.8707,3.8707,3.845,3.7933,3.667,3.4554,3.1448,3.0267,2.8759,0.0,0.0,0.0,0.0,0.0,0.0,0.0,0.0,0.0,0.0,0.0,0.0,0.0,0.0,0.0,0.0,0.0,0.0,0.0,0.0,0.0,0.0,0.0,2.964,0.0,0.0,0.0,0.0,0.0,0.0,0.0,0.0,0.0,3.7688,3.9513,4.161,4.3643,4.4754,4.5602,4.6211,0.0,0.0,0.0,0.0,0.0,0.0,0.0,4.5254,4.4707,4.4609,4.4512,4.4199,4.4863,4.5351,4.5058,0.0,0.0,4.1875,4.0781,4.0449,4.0781,4.0801,4.0684,4.041,4.082,4.1055,0.0,0.0,0.0,0.0,0.0,0.0,0.0,0.0,3.3908,3.4009,0.0,3.3954,0.0,0.0,0.0,0.0,0.0,3.4289,0.0,0.0,3.8799,3.9937,3.9992,4.0799,4.0728,4.0047,4.0689,3.9423,3.6248,3.2449,0.0,0.0,0.0,0.0,0.0,0.0,3.35,3.5133,3.7481,3.8707,3.8707,3.8707,3.8689,3.8591,3.665,3.491,3.3554,3.1947,3.0339,2.8766,2.7861,0.0,0.0,0.0,0.0,0.0,0.0,0.0,0.0,0.0,0.0,0.0,0.0,0.0,0.0,0.0,0.0,0.0,0.0,0.0,0.0,2.9442,0.0,0.0,0.0,0.0,0.0,0.0,0.0,0.0,0.0,0.0,3.9772,4.1718,4.3651,4.4792,0.0,0.0,0.0,0.0,4.6289,4.6289,4.6289,4.6308,4.6348,4.6308,4.6289,4.6308,0.0,0.0,4.5273,4.582,4.6152,4.5312,4.5859,4.6348,4.625,4.4766,4.3965,4.4687,4.3613,4.2891,4.3535,4.3652,4.3711,3.5876,0.0,0.0,0.0,0.0,3.6078,3.7139,3.8286,3.8188,3.7826,3.7294,3.7294,0.0,0.0,0.0,0.0,0.0,0.0,3.7514,3.8891,4.0194,4.1058,4.1625,4.2433,4.2396,4.1625,4.1846,4.0891,3.8872,3.7698,3.4651,2.9989,0.0,0.0,0.0,0.0,3.5752,3.678,3.8065,3.8707,3.8707,3.8707,3.8512,3.8118,3.6972,3.5741,3.4404,3.3289,3.202,3.0594,2.968,0.0,0.0,0.0,0.0,0.0,0.0,0.0,0.0,0.0,0.0,0.0,0.0,0.0,0.0,0.0,0.0,0.0,0.0,0.0,2.8646,3.0314,3.1718,0.0,0.0,0.0,0.0,0.0,0.0,0.0,0.0,0.0,4.3292,4.3935,4.4746,0.0,0.0,4.6248,4.6289,4.6289,4.6289,4.6289,4.6289,0.0,4.7148,4.6699,4.6523,4.7129,4.7226,4.7344,4.7734,4.7988,4.8066,4.7793,4.748,4.7226,4.7168,4.6348,4.5703,4.582,4.5488,4.5254,4.5488,4.5547,4.5527,3.8362,3.674,3.718,3.7618,3.8058,3.8672,3.9568,4.0613,4.0429,4.0267,4.012,4.0139,3.9095,3.7389,3.6765,0.0,0.0,0.0,3.9328,4.0855,4.1368,4.2029,4.2763,4.3259,4.324,4.2782,4.2763,4.2103,4.0871,4.0836,3.8395,3.3752,0.0,0.0,3.3912,3.6101,3.7643,3.8429,3.8927,3.9166,3.9184,3.8872,3.8608,3.8372,3.7686,3.702,3.6349,3.5294,3.4168,3.3003,3.179,3.0458,0.0,0.0,0.0,0.0,0.0,0.0,0.0,0.0,0.0,0.0,0.0,2.7794,2.6442,0.0,0.0,0.0,2.7928,2.9467,3.1448,3.2872,0.0,0.0,0.0,0.0,0.0,0.0,0.0,4.2403,4.3711,4.4784,4.5375,4.5456,4.563,4.6117,4.6201,4.6246,4.6289,0.0,4.6816,4.6816,4.7109,4.7519,4.8027,4.7676,4.7519,4.8008,4.8125,4.8262,4.8769,4.8887,4.8887,4.8828,4.8457,4.8105,4.8125,4.7676,4.7051,4.6445,4.6289,4.6289,4.6289,4.6289,4.6289,4.0146,4.016,3.93,3.9511,4.0419,4.051,4.0831,4.1279,4.1279,4.1699,4.2396,4.2396,4.1956,4.1095,3.9662,0.0,4.0102,4.0157,4.0983,4.2396,4.2396,4.28,4.3479,4.3479,4.3479,4.3479,4.3479,4.3112,4.2415,4.2378,4.124,3.9038,3.8319,3.786,3.7658,3.8469,3.9258,3.9992,3.9992,3.9971,3.9911,3.9157,3.8888,3.9154,3.8573,3.8363,3.867,3.7356,3.6269,3.55,3.391,3.2275,3.0673,0.0,0.0,0.0,0.0,0.0,0.0,0.0,0.0,0.0,0.0,0.0,0.0,0.0,0.0,0.0,3.0948,0.0,3.5365,3.6385,0.0,0.0,0.0,3.96,3.9788,4.1997,4.3526,4.3592,0.0,0.0,4.6289,4.6367,4.6406,4.6406,4.6257,4.6189,4.6367,4.709,4.7617,4.7676,4.8379,4.8887,4.8984,4.8945,4.8945,4.8984,4.8984,4.9043,4.918,4.918,4.9121,4.9199,4.9062,4.9004,4.8984,4.8906,4.8418,4.6875,4.6484,4.6406,4.6308,4.6289,4.6289,4.0635,4.1362,4.1147,4.1202,4.1513,4.2377,4.2806,4.291,4.2928,4.3056,4.3204,4.3222,4.2763,4.2011,4.1625,4.1552,4.1754,4.2341,4.2837,4.3185,4.3204,4.3314,4.3479,4.3479,4.3479,4.3479,4.3479,4.3404,4.3239,4.3221,4.2616,4.1534,4.1864,4.0852,3.856,3.9827,4.06,4.0836,4.0802,4.0612,4.0195,3.9407,3.9288,3.984,3.844,3.7841,3.8154,3.6652,3.5692,3.5481,3.4468,3.3417,3.2352,3.0108,0.0,0.0,0.0,0.0,0.0,0.0,0.0,0.0,0.0,3.0814,2.8121,0.0,3.1948,0.0,3.3212,3.5096,3.6308,3.7777,0.0,0.0,4.1085,4.2021,4.4026,4.4335,4.4678,4.5382,4.5966,4.6289,4.6289,4.6894,4.7285,4.7285,4.6699,4.6502,4.7187,4.7461,4.7851,4.8457,4.8808,4.9141,4.9766,4.9883,4.9883,4.9883,4.9883,5.0098,5.0703,5.0801,5.0801,5.0762,5.0273,4.9941,4.9883,4.9375,4.8848,4.832,4.7773,4.709,4.6465,4.6308,4.6289,4.0774,4.1099,4.1595,4.181,4.1895,4.3032,4.3479,4.3479,4.3479,4.3479,4.3479,4.3479,4.324,4.2837,4.2837,4.2818,4.2873,4.3296,4.3479,4.3479,4.3479,4.3479,4.3479,4.3479,4.3479,4.3479,4.3479,4.3479,4.3479,4.3479,4.3276,4.2855,4.3259,4.2616,4.0965,4.1717,4.2222,4.2361,4.2026,4.1337,4.0337,4.0042,3.9705,3.929,3.888,3.8363,3.7803,3.7033,3.6269,3.5538,3.5045,3.4218,3.2968,3.1564,3.0435,0.0,0.0,0.0,0.0,0.0,0.0,0.0,0.0,0.0,0.0,0.0,3.4173,3.4487,3.6469,3.8238,3.9431,4.0739,4.2047,4.3355,4.3489,4.4098,4.5647,4.5472,4.5457,4.6023,4.6223,4.6445,4.6836,4.7305,4.7773,4.8105,4.7773,4.7637,4.8105,4.8476,4.8945,4.9394,4.9785,5.0156,5.0683,5.0742,5.0742,5.0742,5.0742,5.0879,5.1328,5.1387,5.1387,5.1367,5.1016,5.0742,5.0723,5.0371,4.9922,4.9492,4.9101,4.832,4.7129,4.6582,4.6289,4.0866,4.044,4.1388,4.1835,4.2,4.3051,4.3479,4.3479,4.3479,4.3479,4.3479,4.3479,4.3479,4.3479,4.3479,4.3479,4.3479,4.3479,4.3479,4.3479,4.3479,4.3479,4.3479,4.3479,4.3479,4.3479,4.3548,4.3546,4.3546,4.3632,4.3647,4.3647,4.3647,4.3662,4.3712,4.3646,4.3761,4.3924,4.3182,4.2122,4.0719,4.0872,4.0239,3.8869,3.945,3.9127,3.7658,3.7736,3.7161,3.5769,3.5769,3.5077,3.3487,3.3199,3.2776,0.0,3.1833,0.0,0.0,0.0,0.0,0.0,0.0,0.0,0.0,3.6058,3.6911,3.8354,4.0008,4.1612,4.3124,4.3989,4.4786,4.5498,4.5594,4.5648,4.579,4.5871,4.5967,4.6113,4.6323,4.6777,4.7441,4.7754,4.8262,4.8945,4.918,4.9238,4.9277,4.9746,5.0117,5.0312,5.0937,5.123,5.1308,5.1348,5.1348,5.1367,5.1328,5.1387,5.1387,5.1387,5.1387,5.1387,5.1367,5.1367,5.1387,5.1367,5.1133,5.0488,5.0195,4.9512,4.7949,4.7031,4.6445,4.1409,4.1712,4.1771,4.208,4.2596,4.3232,4.3479,4.3479,4.3479,4.3479,4.3479,4.3479,4.3479,4.3479,4.3479,4.3479,4.3479,4.3479,4.3479,4.3479,4.3479,4.3479,4.3479,4.3479,4.3479,4.3513,4.3772,4.3912,4.3912,4.4237,4.4411,4.4411,4.4392,4.4527,4.4769,0.0,0.0,0.0,4.3064,4.2777,4.271,4.1745,4.1208,4.1086,3.9344,0.0,3.7909,3.7274,3.6788,3.6519,3.7161,0.0,0.0,0.0,0.0,0.0,0.0,0.0,0.0,0.0,0.0,0.0,3.7392,3.6712,3.6577,3.9,4.0731,4.1096,4.2604,4.3701,4.4047,4.4844,4.5421,4.5575,4.5594,4.5673,4.5852,4.589,4.5992,4.6245,4.6894,4.7402,4.7695,4.8808,4.9726,4.9941,5.0508,5.0879,5.0859,5.0488,5.0469,5.1035,5.1308,5.1387,5.1387,5.1387,5.1387,5.1387,5.1387,5.1387,5.1387,5.1387,5.1387,5.1387,5.1387,5.1387,5.1387,5.1387,5.1348,5.1191,5.0644,4.9687,4.7988,4.748,4.7148,4.1895,0.0,4.1886,4.2142,0.0,4.3286,4.3479,4.3479,4.3479,4.3479,4.3479,4.3479,4.3479,4.3479,4.3479,4.3479,4.3479,4.3479,4.3479,4.3479,4.3479,4.3479,4.3479,4.3479,4.3479,4.3496,4.366,4.374,4.3791,4.4102,4.4323,4.4323,4.4501,4.4682,4.4849,4.4682,4.4425,4.4035,4.3955,4.3825,4.3535,4.306,4.2263,4.12,4.0335,0.0,0.0,0.0,0.0,0.0,0.0,0.0,0.0,0.0,0.0,3.6084,3.5687,3.5834,3.6668,3.7469,3.8681,4.0392,4.0893,4.0566,3.9335,4.1566,4.3047,4.3066,4.4201,4.494,4.4951,4.5344,4.5594,4.5594,4.5648,4.5757,4.5872,4.5967,4.6236,4.6855,4.7305,4.7871,4.8789,4.957,5.0351,5.0723,5.1133,5.1387,5.1367,5.1074,5.0976,5.1348,5.1387,5.1387,5.1387,5.1387,5.1387,5.1387,5.1387,5.1387,5.1387,5.1387,5.1387,5.1387,5.1387,5.1387,5.1387,5.1387,5.1387,5.1367,5.1074,5.041,4.9121,4.8555,4.8144,4.233,4.2109,4.2017,4.2205,4.2578,4.3232,4.3479,4.3479,0.0,0.0,0.0,4.3479,4.3479,4.3479,4.3479,4.3479,4.3479,4.3479,4.3479,4.3479,4.3479,4.3479,4.3479,4.3479,4.3479,4.3496,4.3546,4.358,4.3614,4.3943,4.4132,4.4233,4.4521,4.4707,4.4769,4.4769,4.4769,4.48,4.4996,4.4742,4.4056,4.4211,4.3297,4.1227,4.1585,4.0739,3.8546,3.915,3.8777,3.7276,3.7988,3.8123,3.745,3.8046,3.8507,3.87,3.9335,3.9823,3.9969,4.1258,4.2104,4.2239,4.3662,4.3893,4.2346,4.3643,4.4528,4.4528,4.519,4.5594,4.5594,4.5594,4.5594,4.5594,4.57,4.579,4.59,4.6148,4.6663,4.7441,4.7891,4.8574,4.9922,5.0312,5.0625,5.123,5.1387,5.1387,5.1387,5.1367,5.1328,5.1387,5.1387,5.1387,5.1387,5.1387,5.1387,5.1387,5.1387,5.1387,5.1387,5.1387,5.1387,5.1387,5.1387,5.1387,5.1387,5.1387,5.1387,5.1387,5.1387,5.1211,5.0547,4.9863,4.9258,4.2864,4.2286,4.2625,4.2434,4.2,4.3051,4.3479,4.3479,4.3479,4.3479,4.3479,4.3479,4.3479,4.3479,4.3479,4.3479,4.3479,4.3479,4.3479,4.3479,4.3479,4.3479,4.3479,4.3479,4.3479,4.3513,4.3788,4.3924,4.3971,4.4323,4.467,4.4908,4.5,4.5169,4.5438,4.5476,4.5457,4.5448,4.5241,4.5039,4.4906,4.4518,4.4143,4.3739,4.247,4.1316,4.0227,4.0265,3.99,3.9015,3.97,4.0092,3.9996,4.0092,4.0496,4.12,4.1385,4.1777,4.2489,4.2797,4.322,4.3912,4.4855,4.4989,4.4085,4.4836,4.5421,4.5421,4.5518,4.5594,4.5594,4.5594,4.5594,4.5594,4.562,4.5699,4.593,4.659,4.7192,4.7695,4.8965,4.9824,5.0215,5.0781,5.1191,5.1367,5.1387,5.1387,5.1387,5.1387,5.1387,5.1387,5.1387,5.1387,5.1387,5.1387,5.1387,5.1387,5.1387,5.1387,5.1387,5.1387,5.1387,5.1387,5.1387,5.1387,5.1387,5.1387,5.1387,5.1387,5.1387,5.1308,5.1152,5.0996,5.0527,4.3389,4.3306,4.2728,4.2653,4.2933,4.3324,4.3479,4.3479,4.3479,4.3479,4.3479,4.3479,4.3479,4.3479,4.3479,4.3479,4.3479,4.3479,4.3479,4.3479,4.3479,4.3479,4.3479,4.3479,4.3479,4.3496,4.3646,4.3726,4.3775,4.4106,4.4359,4.4516,4.4889,4.518,4.5332,4.5504,4.5594,4.5586,4.5457,4.5362,4.5371,4.5129,4.4767,4.4297,4.3508,4.2758,4.1931,4.1893,4.1739,4.1373,4.172,4.1893,4.1912,4.1912,4.2104,4.2489,4.2489,4.2874,4.3701,4.419,4.4613,4.4998,4.5355,4.5441,4.5056,4.5364,4.5594,4.5594,4.5594,4.5594,4.5594,4.5594,4.5594,4.5594,4.5657,4.5964,4.6537,4.6995,4.7745,4.8828,4.9687,5.0371,5.0801,5.1172,5.1387,5.1387,5.1387,5.1387,5.1387,5.1387,5.1387,5.1387,5.1387,5.1387,5.1387,5.1387,5.1387,5.1387,5.1387,5.1387,5.1387,5.1387,5.1387,5.1387,5.1387,5.1387,5.1387,5.1387,5.1387,5.1387,5.1387,5.1387,5.1387,5.1387,5.1113,4.381,4.3976,4.3032,4.3065,4.3754,4.3433,4.3392,4.3479,4.3479,4.3479,4.3479,4.3479,4.3479,4.3479,4.3479,4.3479,4.3479,4.3479,4.3479,4.3479,4.3479,4.3479,4.3479,4.3479,4.3479,4.3479,4.3479,4.3479,4.3531,4.3756,4.3924,4.4058,4.4745,4.5115,4.5096,4.5429,4.5594,4.5594,4.5594,4.5594,4.5594,4.5594,4.5278,4.4652,4.4605,4.4201,4.3431,4.3355,4.3297,4.3104,4.3085,4.3181,4.3355,4.3374,4.347,4.3624,4.3662,4.3932,4.4547,4.5201,4.5594,4.5594,4.5594,4.5594,4.5594,4.5594,4.5594,4.5594,4.5594,4.5593,4.5643,4.566,4.5648,4.5677,4.5776,4.6194,4.7081,4.7507,4.8317,4.9883,5.0351,5.0723,5.123,5.1387,5.1387,5.1387,5.1387,5.1387,5.1387,5.1387,5.1387,5.1387,5.1387,5.1387,5.1387,5.1387,5.1387,5.1387,5.1387,5.1387,5.1387,5.1387,5.1387,5.1387,5.1387,5.1387,5.1387,5.1387,5.1387,5.1387,5.1387,5.1387,5.1387,5.1387,5.1387,4.4101,4.36,4.3872,4.3974,4.3692,4.3075,4.3087,4.3463,4.3479,4.3479,4.3479,4.3479,4.3479,4.3479,4.3479,4.3479,4.3479,4.3479,4.3479,4.3479,4.3479,4.3479,4.3479,4.3479,4.3479,4.3479,4.3479,4.3479,4.3496,4.3548,4.3693,4.4061,4.4745,4.5074,4.5137,4.5419,4.5586,4.5594,4.5594,4.5594,4.5594,4.5594,4.5556,4.5498,4.546,4.5075,4.4239,4.4182,4.3855,4.3181,4.3143,4.3451,4.4085,4.4182,4.4547,4.5267,4.5325,4.5421,4.5479,4.5556,4.5594,4.5594,4.5594,4.5594,4.5594,4.5594,4.5594,4.5594,4.5594,4.5651,4.5749,4.5782,4.5777,4.5836,4.5915,4.6283,4.7293,4.8099,4.902,5.0058,5.082,5.1328,5.1367,5.1387,5.1387,5.1387,5.1387,5.1387,5.1387,5.1387,5.1387,5.1387,5.1387,5.1387,5.1387,5.1387,5.1387,5.1387,5.1387,5.1387,5.1387,5.1387,5.1387,5.1387,5.1387,5.1387,5.1387,5.1387,5.1387,5.1387,5.1387,5.1387,5.1387,5.1387,5.1387,4.4412,4.409,4.3844,4.3395,4.2855,4.3166,4.3223,4.305,4.3375,4.3479,4.3479,4.3479,4.3479,4.3479,4.3479,4.3479,4.3479,4.3479,4.3479,4.3479,4.3479,4.3479,4.3479,4.3479,4.3479,4.3479,4.3479,4.3479,4.3479,4.3479,4.3582,4.3742,4.4204,4.4561,4.4825,4.5129,4.54,4.5586,4.5594,4.5594,4.5594,4.5594,4.5594,4.5594,4.5594,4.546,4.5133,4.5075,4.4913,4.4613,4.4594,4.4701,4.5056,4.5075,4.5229,4.5575,4.5594,4.5594,4.5594,4.5594,4.5594,4.5594,4.5594,4.5594,4.5594,4.5594,4.5594,4.5594,4.5594,4.5648,4.5789,4.5815,4.5807,4.5949,4.6331,4.7061,4.8057,4.8925,4.9842,5.0762,5.1191,5.1387,5.1387,5.1387,5.1387,5.1387,5.1387,5.1387,5.1387,5.1387,5.1387,5.1387,5.1387,5.1387,5.1387,5.1387,5.1387,5.1387,5.1387,5.1387,5.1387,5.1387,5.1387,5.1387,5.1387,5.1387,5.1387,5.1387,5.1387,5.1387,5.1387,5.1387,5.1387,5.1387,5.1387,4.4598,4.4479,4.3758,4.3219,4.3016,4.3604,4.3642,4.332,4.365,4.3699,4.3497,4.3479,4.3479,4.3479,4.3479,4.3479,4.3479,4.3479,4.3479,4.3479,4.3479,4.3479,4.3479,4.3479,4.3479,4.3479,4.3479,4.3479,4.3479,4.3479,4.3479,4.3529,4.3852,4.419,4.4593,4.495,4.5253,4.5568,4.5594,4.5594,4.5594,4.5594,4.5594,4.5594,4.5594,4.5594,4.5594,4.5594,4.5594,4.5594,4.5594,4.5594,4.5594,4.5594,4.5594,4.5594,4.5594,4.5594,4.5594,4.5594,4.5594,4.5594,4.5594,4.5594,4.5594,4.5594,4.5594,4.5594,4.5594,4.5657,4.5815,4.6046,4.6226,4.6394,4.7138,4.8062,4.9018,4.9724,5.036,5.1211,5.1367,5.1387,5.1387,5.1387,5.1387,5.1387,5.1387,5.1387,5.1387,5.1387,5.1387,5.1387,5.1387,5.1387,5.1387,5.1387,5.1387,5.1387,5.1387,5.1387,5.1387,5.1387,5.1387,5.1387,5.1387,5.1387,5.1387,5.1387,5.1387,5.1387,5.1387,5.1387,5.1387,5.1387,5.1387,4.4598,4.4468,4.3741,4.4053,4.4975,4.4382,4.4315,4.4528,4.4636,4.425,4.3608,4.3534,4.3497,4.3479,4.3479,4.3479,4.3479,4.3479,4.3479,4.3479,4.3479,4.3479,4.3479,4.3479,4.3479,4.3479,4.3479,4.3479,4.3479,4.3479,4.3479,4.3513,4.382,4.4194,4.458,4.4908,4.5272,4.5568,4.5594,4.5594,4.5594,4.5594,4.5594,4.5594,4.5594,4.5594,4.5594,4.5594,4.5594,4.5594,4.5594,4.5594,4.5594,4.5594,4.5594,4.5594,4.5594,4.5594,4.5594,4.5594,4.5594,4.5594,4.5594,4.5594,4.5594,4.5594,4.5594,4.5594,4.5594,4.5681,4.6012,4.6596,4.7157,4.7519,4.8301,4.916,4.998,5.0137,5.0566,5.1191,5.1387,5.1387,5.1387,5.1387,5.1387,5.1387,5.1387,5.1387,5.1387,5.1387,5.1387,5.1387,5.1387,5.1387,5.1387,5.1387,5.1387,5.1387,5.1387,5.1387,5.1387,5.1387,5.1387,5.1387,5.1387,5.1387,5.1387,5.1387,5.1387,5.1387,5.1387,5.1387,5.1387,5.1387,5.1387,4.4598,4.4592,4.4717,4.4724,4.4743,4.5223,4.5284,4.4995,4.5315,4.5021,4.436,4.4268,4.3975,4.3479,4.3479,4.3479,4.3479,4.3479,4.3479,4.3479,4.3479,4.3479,4.3479,4.3479,4.3479,4.3479,4.3479,4.3479,4.3479,4.3479,4.3479,4.3496,4.3612,4.3974,4.4514,4.4707,4.5033,4.5531,4.5594,4.5594,4.5594,4.5594,4.5594,4.5594,4.5594,4.5594,4.5594,4.5594,4.5594,4.5594,4.5594,4.5594,4.5594,4.5594,4.5594,4.5594,4.5594,4.5594,4.5594,4.5594,4.5594,4.5594,4.5594,4.5594,4.5594,4.5594,4.5594,4.5594,4.5594,4.5885,4.6614,4.7036,4.7528,4.8359,4.9199,4.9863,5.0215,5.0644,5.1094,5.1328,5.1387,5.1387,5.1387,5.1387,5.1387,5.1387,5.1387,5.1387,5.1387,5.1387,5.1387,5.1387,5.1387,5.1387,5.1387,5.1387,5.1387,5.1387,5.1387,5.1387,5.1387,5.1387,5.1387,5.1387,5.1387,5.1387,5.1387,5.1387,5.1387,5.1387,5.1387,5.1387,5.1387,5.1387,5.1387,4.4598,4.4654,4.5052,4.5165,4.5138,4.5922,4.6059,4.5792,4.6139,4.5828,4.5186,4.5094,4.4782,4.4268,4.3993,4.3883,4.3846,4.3643,4.3479,4.3479,4.3479,4.3479,4.3479,4.3479,4.3479,4.3479,4.3479,4.3479,4.3479,4.3479,4.3479,4.3496,4.3479,4.3791,4.4337,4.4527,4.4896,4.5352,4.555,4.5594,4.5594,4.5594,4.5594,4.5594,4.5594,4.5594,4.5594,4.5594,4.5594,4.5594,4.5594,4.5594,4.5594,4.5594,4.5594,4.5594,4.5594,4.5594,4.5594,4.5594,4.5594,4.5594,4.5594,4.5594,4.5594,4.5594,4.5594,4.5594,4.5622,4.6109,4.7261,4.7624,4.8077,4.918,5.0078,5.0566,5.0625,5.1074,5.1328,5.1387,5.1387,5.1387,5.1387,5.1387,5.1387,5.1387,5.1387,5.1387,5.1387,5.1387,5.1387,5.1387,5.1387,5.1387,5.1406,5.1406,5.1426,5.1426,5.1387,5.1387,5.1387,5.1387,5.1387,5.1387,5.1387,5.1387,5.1387,5.1387,5.1387,5.1387,5.1387,5.1387,5.1387,5.1387,5.1387,4.4598,4.4598,4.4615,4.5285,4.611,4.6395,4.6669,4.694,4.7075,4.6654,4.5975,4.592,4.5828,4.5626,4.4984,4.4709,4.4471,4.392,4.3571,4.3515,4.3479,4.3479,4.3479,4.3479,4.3479,4.3479,4.3479,4.3479,4.3479,4.3479,4.3479,4.3479,4.3479,4.3695,4.4031,4.4401,4.4757,4.5148,4.5438,4.5594,4.5594,4.5594,4.5594,4.5594,4.5594,4.5594,4.5594,4.5594,4.5594,4.5594,4.5594,4.5594,4.5594,4.5594,4.5594,4.5594,4.5594,4.5594,4.5594,4.5594,4.5594,4.5594,4.5594,4.5594,4.5594,4.5594,4.5594,4.5594,4.5747,4.6418,4.802,4.8466,4.8974,5.0039,5.084,5.123,5.1308,5.1367,5.1387,5.1387,5.1387,5.1387,5.1387,5.1387,5.1387,5.1387,5.1387,5.1387,5.1387,5.1387,5.1387,5.1406,5.1562,5.1738,5.1582,5.1426,5.1465,5.1465,5.1426,5.1387,5.1387,5.1387,5.1387,5.1387,5.1387,5.1387,5.1387,5.1387,5.1387,5.1387,5.1387,5.1387,5.1387,5.1387,5.1387,4.4598,4.4637,4.5035,4.5407,4.5908,4.6705,4.7201,4.737,4.7729,4.748,4.6819,4.6746,4.6415,4.5957,4.5608,4.5223,4.4691,4.4415,4.403,4.3571,4.3479,4.3479,4.3479,4.3479,4.3479,4.3479,4.3479,4.3479,4.3479,4.3479,4.3479,4.3479,4.3479,4.3679,4.3986,4.4406,4.4757,4.5096,4.5429,4.5594,4.5594,4.5594,4.5594,4.5594,4.5594,4.5594,4.5594,4.5594,4.5594,4.5594,4.5594,4.5594,4.5594,4.5594,4.5594,4.5594,4.5594,4.5594,4.5594,4.5594,4.5594,4.5594,4.5594,4.5594,4.5594,4.5594,4.5594,4.5671,4.6114,4.7086,4.8243,4.9069,4.9796,5.0918,5.125,5.1387,5.1387,5.1387,5.1387,5.1387,5.1387,5.1387,5.1387,5.1387,5.1387,5.1387,5.1387,5.1387,5.1387,5.1387,5.1387,5.1406,5.1777,5.2051,5.1875,5.1758,5.1777,5.1641,5.1504,5.1406,5.1387,5.1387,5.1387,5.1387,5.1387,5.1387,5.1387,5.1387,5.1387,5.1387,5.1387,5.1387,5.1387,5.1387,5.1387,4.4598,4.4654,4.4998,4.5294,4.5597,4.6635,4.7172,4.7449,4.8035,4.7993,4.7608,4.7535,4.7278,4.6801,4.6489,4.5883,4.5186,4.4838,4.4268,4.3606,4.3479,4.3479,4.3479,4.3479,4.3479,4.3479,4.3479,4.3479,4.3479,4.3479,4.3479,4.3479,4.3479,4.3597,4.3852,4.4175,4.4567,4.4908,4.5232,4.5485,4.5577,4.5594,4.5594,4.5594,4.5594,4.5594,4.5594,4.5594,4.5594,4.5594,4.5594,4.5594,4.5594,4.5594,4.5594,4.5594,4.5594,4.5594,4.5594,4.5594,4.5594,4.5594,4.5594,4.5594,4.5594,4.5594,4.5594,4.571,4.6355,4.7298,4.8318,4.926,5.0212,5.1218,5.1367,5.1387,5.1387,5.1387,5.1387,5.1387,5.1387,5.1387,5.1387,5.1387,5.1387,5.1387,5.1387,5.1387,5.1387,5.1387,5.1387,5.1445,5.166,5.1894,5.209,5.2109,5.2129,5.1875,5.1601,5.1484,5.1387,5.1387,5.1387,5.1387,5.1387,5.1387,5.1387,5.1387,5.1387,5.1387,5.1387,5.1387,5.1387,5.1387,5.1387,4.4598,4.4598,4.4598,4.4934,4.5459,4.6088,4.6687,4.7363,4.7957,4.8193,4.8213,4.8196,4.8214,4.8067,4.7296,4.6526,4.5847,4.5039,4.4268,4.3663,4.3479,4.3479,4.3479,4.3479,4.3479,4.3479,4.3479,4.3479,4.3479,4.3479,4.3479,4.3479,4.3496,4.3496,4.3595,4.3833,4.4233,4.4644,4.4954,4.5292,4.5577,4.5594,4.5594,4.5594,4.5594,4.5594,4.5594,4.5594,4.5594,4.5594,4.5594,4.5594,4.5594,4.5594,4.5594,4.5594,4.5594,4.5594,4.5594,4.5594,4.5594,4.5594,4.5594,4.5594,4.5594,4.5594,4.5671,4.5845,4.6586,4.7441,4.8398,4.9365,5.0302,5.1021,5.1321,5.1387,5.1387,5.1387,5.1387,5.1387,5.1387,5.1387,5.1387,5.1387,5.1387,5.1387,5.1387,5.1387,5.1387,5.1387,5.1387,5.1523,5.1699,5.1992,5.2285,5.2285,5.2285,5.2168,5.1797,5.1484,5.1387,5.1387,5.1387,5.1387,5.1387,5.1387,5.1387,5.1387,5.1387,5.1387,5.1387,5.1387,5.1387,5.1387,5.1387,4.4598,4.4598,4.4598,4.4709,4.4906,4.5485,4.6088,4.6728,4.7367,4.7917,4.8229,4.8324,4.8324,4.8233,4.7461,4.6654,4.5865,4.5076,4.4287,4.3589,4.3479,4.3479,4.3479,4.3479,4.3479,4.3479,4.3479,4.3479,4.3479,4.3479,4.3479,4.3479,4.3479,4.3479,4.3529,4.3818,4.419,4.458,4.4931,4.5243,4.5522,4.5594,4.5594,4.5594,4.5594,4.5594,4.5594,4.5594,4.5594,4.5594,4.5594,4.5594,4.5594,4.5594,4.5594,4.5594,4.5594,4.5594,4.5594,4.5594,4.5594,4.5594,4.5594,4.5594,4.5594,4.5594,4.5922,4.649,4.7317,4.8165,4.9149,5.0054,5.0767,5.1107,5.132,5.1387,5.1387,5.1387,5.1387,5.1387,5.1387,5.1387,5.1387,5.1387,5.1387,5.1387,5.1387,5.1387,5.1387,5.1387,5.1387,5.1641,5.1875,5.2207,5.2441,5.2441,5.2422,5.2383,5.1992,5.1445,5.1387,5.1387,5.1387,5.1387,5.1387,5.1387,5.1387,5.1387,5.1387,5.1387,5.1387,5.1387,5.1387,5.1387,5.1387,4.4598,4.4598,4.4598,4.4598,4.4665,4.5258,4.584,4.6454,4.711,4.7736,4.8209,4.8324,4.8324,4.8233,4.7461,4.6672,4.5865,4.5076,4.4287,4.3589,4.3479,4.3479,4.3479,4.3479,4.3479,4.3479,4.3479,4.3479,4.3479,4.3479,4.3479,4.3479,4.3479,4.3479,4.3496,4.3679,4.3989,4.4332,4.4707,4.5044,4.5352,4.5541,4.5594,4.5594,4.5594,4.5594,4.5594,4.5594,4.5594,4.5594,4.5594,4.5594,4.5594,4.5594,4.5594,4.5594,4.5594,4.5594,4.5594,4.5594,4.5594,4.5594,4.5594,4.5594,4.5594,4.5614,4.597,4.6797,4.7644,4.8505,4.9423,5.04,5.0971,5.1166,5.132,5.1387,5.1387,5.1387,5.1387,5.1387,5.1387,5.1387,5.1387,5.1387,5.1387,5.1387,5.1387,5.1387,5.1387,5.1387,5.1426,5.1621,5.1699,5.1894,5.1992,5.1992,5.2031,5.2051,5.1973,5.1426,5.1387,5.1387,5.1387,5.1387,5.1387,5.1387,5.1387,5.1387,5.1387,5.1387,5.1387,5.1387,5.1387,5.1387,5.1387,4.4598,4.4598,4.4598,4.4598,4.4665,4.5152,4.5681,4.6336,4.6955,4.7593,4.8075,4.8267,4.8324,4.8251,4.7461,4.6709,4.6012,4.5131,4.4268,4.3699,4.3479,4.3479,4.3479,4.3479,4.3479,4.3479,4.3479,4.3479,4.3479,4.3479,4.3479,4.3479,4.3479,4.3479,4.3496,4.3531,4.3695,4.4046,4.4359,4.4757,4.5107,4.5381,4.5504,4.5594,4.5594,4.5594,4.5594,4.5594,4.5594,4.5594,4.5594,4.5594,4.5594,4.5594,4.5594,4.5594,4.5594,4.5594,4.5594,4.5594,4.5594,4.5594,4.5594,4.5594,4.5633,4.574,4.624,4.7105,4.7778,4.872,4.9593,5.0537,5.0992,5.1171,5.1292,5.1366,5.1387,5.1387,5.1387,5.1387,5.1387,5.1387,5.1387,5.1387,5.1387,5.1387,5.1387,5.1387,5.1387,5.1387,5.1387,5.1445,5.1465,5.1426,5.1465,5.1465,5.1523,5.1562,5.1601,5.1387,5.1387,5.1387,5.1387,5.1387,5.1387,5.1387,5.1387,5.1387,5.1387,5.1387,5.1387,5.1387,5.1387,5.1387,5.1387,4.4598,4.4598,4.4598,4.4598,4.4626,4.4731,4.5125,4.5757,4.6359,4.7062,4.7614,4.8075,4.8305,4.8251,4.748,4.6984,4.6562,4.537,4.4287,4.3571,4.3479,4.3479,4.3479,4.3479,4.3479,4.3479,4.3479,4.3479,4.3479,4.3479,4.3479,4.3479,4.3479,4.3479,4.3479,4.3496,4.3679,4.3955,4.4121,4.4468,4.4943,4.5169,4.5371,4.5568,4.5594,4.5594,4.5594,4.5594,4.5594,4.5594,4.5594,4.5594,4.5594,4.5594,4.5594,4.5594,4.5594,4.5594,4.5594,4.5594,4.5594,4.5594,4.5594,4.5594,4.5671,4.624,4.6932,4.7778,4.8625,4.9375,5.0221,5.0689,5.0971,5.1116,5.1208,5.1295,5.1367,5.1387,5.1387,5.1387,5.1387,5.1387,5.1387,5.1387,5.1387,5.1387,5.1387,5.1387,5.1387,5.1387,5.1387,5.1387,5.1387,5.1387,5.1387,5.1387,5.1387,5.1387,5.1387,5.1387,5.1387,5.1387,5.1387,5.1387,5.1387,5.1387,5.1387,5.1387,5.1387,5.1387,5.1387,5.1387,5.1387,5.1387,5.1387,4.4598,4.4598,4.4598,4.4598,4.4598,4.4598,4.4934,4.552,4.6143,4.6796,4.7428,4.8035,4.8305,4.8251,4.748,4.7094,4.6727,4.5443,4.4268,4.3644,4.3479,4.3479,4.3479,4.3479,4.3479,4.3479,4.3479,4.3479,4.3479,4.3479,4.3479,4.3479,4.3479,4.3479,4.3479,4.3479,4.358,4.374,4.3924,4.4219,4.4529,4.4954,4.5253,4.5522,4.5594,4.5594,4.5594,4.5594,4.5594,4.5594,4.5594,4.5594,4.5594,4.5594,4.5594,4.5594,4.5594,4.5594,4.5594,4.5594,4.5594,4.5594,4.5594,4.5864,4.6105,4.6682,4.749,4.8432,4.9144,4.975,5.0587,5.083,5.094,5.1079,5.1154,5.1263,5.1367,5.1387,5.1387,5.1387,5.1387,5.1387,5.1387,5.1387,5.1387,5.1387,5.1387,5.1387,5.1387,5.1387,5.1387,5.1387,5.1387,5.1387,5.1387,5.1387,5.1387,5.1387,5.1387,5.1387,5.1387,5.1387,5.1387,5.1387,5.1387,5.1387,5.1387,5.1387,5.1387,5.1387,5.1387,5.1387,5.1387,5.1387,5.1387,4.4598,4.4598,4.4598,4.4598,4.4598,4.4598,4.4852,4.5399,4.6014,4.6548,4.7259,4.7879,4.8152,4.814,4.7645,4.7259,4.6709,4.57,4.458,4.3901,4.3809,4.3663,4.3589,4.3663,4.3663,4.3516,4.3479,4.3479,4.3479,4.3479,4.3479,4.3479,4.3479,4.3479,4.3479,4.3479,4.3513,4.358,4.3756,4.3955,4.4161,4.4676,4.515,4.5522,4.5594,4.5594,4.5594,4.5594,4.5594,4.5594,4.5594,4.5594,4.5594,4.5594,4.5594,4.5594,4.5594,4.5594,4.5594,4.5594,4.5594,4.5594,4.5594,4.6009,4.6624,4.7124,4.7913,4.8817,4.9606,4.9981,5.0616,5.0782,5.0911,5.1036,5.1129,5.1232,5.1323,5.1367,5.1387,5.1387,5.1387,5.1387,5.1387,5.1387,5.1387,5.1387,5.1387,5.1387,5.1387,5.1387,5.1387,5.1387,5.1387,5.1387,5.1387,5.1387,5.1387,5.1387,5.1387,5.1387,5.1387,5.1387,5.1387,5.1387,5.1387,5.1387,5.1387,5.1387,5.1387,5.1387,5.1387,5.1387,5.1387,5.1387,5.1387,4.4598,4.4598,4.4598,4.4598,4.4598,4.4598,4.4665,4.4841,4.5433,4.5989,4.6618,4.7277,4.7877,4.8117,4.8233,4.7736,4.6984,4.5975,4.5223,4.4599,4.4415,4.4176,4.392,4.4268,4.4158,4.3626,4.3534,4.3589,4.3497,4.3479,4.3479,4.3479,4.3479,4.3479,4.3479,4.3479,4.3479,4.3479,4.3579,4.3724,4.4016,4.4468,4.5,4.5466,4.5568,4.5594,4.5594,4.5594,4.5594,4.5594,4.5594,4.5594,4.5594,4.5594,4.5594,4.5594,4.5594,4.5594,4.5594,4.5594,4.5594,4.5594,4.5594,4.6056,4.6817,4.7519,4.8317,4.924,5.0048,5.0519,5.0654,5.074,5.0808,5.0925,5.1028,5.1136,5.1232,5.1308,5.1387,5.1387,5.1387,5.1387,5.1387,5.1387,5.1387,5.1387,5.1387,5.1387,5.1387,5.1387,5.1387,5.1387,5.1387,5.1387,5.1387,5.1387,5.1387,5.1387,5.1387,5.1387,5.1387,5.1387,5.1387,5.1387,5.1387,5.1387,5.1387,5.1387,5.1387,5.1387,5.1387,5.1387,5.1387,5.1387,5.1387,4.4598,4.4598,4.4598,4.4598,4.4598,4.4598,4.4598,4.4692,4.5232,4.5673,4.6161,4.6932,4.7551,4.7877,4.821,4.7828,4.7058,4.6269,4.57,4.5296,4.4911,4.4837,4.4654,4.5149,4.4764,4.4323,4.4121,4.3846,4.3551,4.3479,4.3479,4.3479,4.3479,4.3479,4.3479,4.3479,4.3479,4.3479,4.3496,4.3563,4.3788,4.428,4.4853,4.5232,4.5532,4.5586,4.5594,4.5594,4.5594,4.5594,4.5594,4.5594,4.5594,4.5594,4.5594,4.5594,4.5594,4.5594,4.5594,4.5594,4.5594,4.5594,4.5594,4.6259,4.7182,4.7971,4.874,4.9779,5.0279,5.0683,5.0693,5.0683,5.0775,5.0871,5.0959,5.1064,5.1174,5.1244,5.1321,5.1387,5.1387,5.1387,5.1387,5.1387,5.1387,5.1387,5.1387,5.1387,5.1387,5.1387,5.1387,5.1387,5.1387,5.1387,5.1387,5.1387,5.1387,5.1387,5.1387,5.1387,5.1387,5.1387,5.1387,5.1387,5.1387,5.1387,5.1387,5.1387,5.1387,5.1387,5.1387,5.1387,5.1387,5.1387,5.1387,4.4598,4.4598,4.4598,4.4598,4.4598,4.4598,4.4598,4.4692,4.5089,4.5381,4.5648,4.6519,4.7106,4.7509,4.7902,4.792,4.7259,4.6544,4.6214,4.6049,4.5608,4.5571,4.5755,4.5957,4.5626,4.4654,4.4599,4.4287,4.3626,4.3479,4.3479,4.3479,4.3479,4.3479,4.3479,4.3479,4.3479,4.3479,4.3479,4.3496,4.3742,4.4256,4.4763,4.5096,4.5438,4.5594,4.5594,4.5594,4.5594,4.5594,4.5594,4.5594,4.5594,4.5594,4.5594,4.5594,4.5594,4.5594,4.5594,4.5594,4.5594,4.5594,4.5594,4.6509,4.7759,4.8548,4.9298,5.0375,5.0683,5.0683,5.0683,5.0683,5.0739,5.083,5.0894,5.0985,5.1117,5.1223,5.1294,5.1348,5.1367,5.1387,5.1387,5.1387,5.1387,5.1387,5.1387,5.1387,5.1387,5.1387,5.1387,5.1387,5.1387,5.1387,5.1387,5.1387,5.1387,5.1387,5.1387,5.1387,5.1387,5.1387,5.1387,5.1387,5.1387,5.1387,5.1387,5.1387,5.1387,5.1387,5.1387,5.1387,5.1387,5.1387,5.1387,4.4598,4.4598,4.4598,4.4598,4.4598,4.4598,4.4598,4.4598,4.472,4.5025,4.5433,4.5732,4.6425,4.732,4.7977,4.8175,4.7883,4.7241,4.6874,4.6874,4.6672,4.6342,4.6159,4.6672,4.6122,4.5205,4.4874,4.4232,4.3736,4.3571,4.3479,4.3479,4.3479,4.3479,4.3479,4.3479,4.3479,4.3479,4.3479,4.3612,4.3927,4.435,4.4763,4.5074,4.5381,4.5594,4.5594,4.5594,4.5594,4.5594,4.5594,4.5594,4.5594,4.5594,4.5594,4.5594,4.5594,4.5594,4.5594,4.5594,4.5594,4.5594,4.5594,4.6509,4.7855,4.9394,5.024,5.0529,5.0683,5.0683,5.0683,5.0683,5.0721,5.0757,5.0811,5.0945,5.1069,5.1154,5.1225,5.1308,5.1348,5.1387,5.1387,5.1387,5.1387,5.1387,5.1387,5.1387,5.1387,5.1387,5.1387,5.1387,5.1387,5.1387,5.1387,5.1387,5.1387,5.1387,5.1387,5.1387,5.1387,5.1387,5.1387,5.1387,5.1387,5.1387,5.1387,5.1387,5.1387,5.1387,5.1387,5.1387,5.1387,5.1387,5.1387,4.4598,4.4598,4.4598,4.4598,4.4598,4.4598,4.4598,4.4598,4.4598,4.4731,4.5035,4.5381,4.6209,4.7237,4.7715,4.7977,4.8027,4.748,4.7406,4.7535,4.7369,4.7168,4.7352,4.7535,4.7058,4.6104,4.5517,4.4984,4.4305,4.3681,4.3479,4.3479,4.3479,4.3479,4.3479,4.3479,4.3479,4.3479,4.3496,4.3563,4.382,4.4247,4.4657,4.4837,4.5322,4.5531,4.5586,4.5594,4.5594,4.5594,4.5594,4.5594,4.5594,4.5594,4.5594,4.5594,4.5594,4.5594,4.5594,4.5594,4.5594,4.5614,4.571,4.6374,4.799,4.9586,5.0673,5.0683,5.0683,5.0683,5.0683,5.0683,5.0683,5.0712,5.0756,5.0856,5.0985,5.1079,5.1174,5.1258,5.1328,5.1367,5.1387,5.1387,5.1387,5.1387,5.1387,5.1387,5.1387,5.1387,5.1387,5.1387,5.1387,5.1387,5.1387,5.1387,5.1387,5.1387,5.1387,5.1387,5.1387,5.1387,5.1387,5.1387,5.1387,5.1387,5.1387,5.1387,5.1387,5.1387,5.1387,5.1387,5.1387,5.1387,5.1387,4.4598,4.4598,4.4598,4.4598,4.4598,4.4598,4.4598,4.4598,4.4598,4.4598,4.4759,4.5241,4.6112,4.6999,4.7363,4.7777,4.8232,4.7663,4.7791,4.7901,4.7828,4.7773,4.7994,4.8196,4.7681,4.6801,4.6049,4.5204,4.436,4.3828,4.3479,4.3479,4.3479,4.3479,4.3479,4.3479,4.3479,4.3479,4.3479,4.3496,4.3612,4.4106,4.4346,4.4651,4.5044,4.5485,4.5466,4.5577,4.5594,4.5594,4.5594,4.5594,4.5594,4.5594,4.5594,4.5594,4.5594,4.5594,4.5594,4.5594,4.5594,4.5652,4.5979,4.6644,4.7952,4.9548,5.0577,5.0635,5.0683,5.0683,5.0683,5.0683,5.0683,5.0683,5.0712,5.078,5.0859,5.0984,5.1096,5.1218,5.1295,5.1344,5.1367,5.1387,5.1387,5.1387,5.1387,5.1387,5.1387,5.1387,5.1387,5.1387,5.1387,5.1387,5.1387,5.1387,5.1387,5.1387,5.1387,5.1387,5.1387,5.1387,5.1387,5.1387,5.1387,5.1387,5.1387,5.1387,5.1387,5.1387,5.1387,5.1387,5.1387,5.1387,5.1387,4.4598,4.4598,4.4598,4.4598,4.4598,4.4598,4.4598,4.4598,4.4598,4.4598,4.4665,4.5241,4.5883,4.6524,4.7194,4.7736,4.8306,4.8251,4.8213,4.8251,4.8269,4.8196,4.8288,4.8049,4.7517,4.6361,4.581,4.4929,4.3975,4.3718,4.3516,4.3479,4.3479,4.3479,4.3479,4.3479,4.3479,4.3479,4.3479,4.3479,4.3597,4.3865,4.4073,4.4247,4.4713,4.5148,4.5159,4.5429,4.5594,4.5594,4.5594,4.5594,4.5594,4.5594,4.5594,4.5594,4.5594,4.5594,4.5594,4.5594,4.5594,4.5825,4.6355,4.7124,4.8048,4.8952,4.9798,5.0596,5.0664,5.0683,5.0683,5.0683,5.0683,5.0683,5.0702,5.0748,5.0811,5.0901,5.1017,5.1164,5.1238,5.1295,5.1348,5.1367,5.1387,5.1387,5.1387,5.1387,5.1387,5.1387,5.1387,5.1387,5.1387,5.1387,5.1387,5.1387,5.1387,5.1387,5.1387,5.1387,5.1387,5.1387,5.1387,5.1387,5.1387,5.1387,5.1387,5.1387,5.1387,5.1387,5.1387,5.1387,5.1387,5.1387,5.1387,4.4598,4.4598,4.4598,4.4598,4.4598,4.4598,4.4598,4.4598,4.4598,4.4598,4.4626,4.5214,4.5833,4.6454,4.7106,4.7736,4.8248,4.8324,4.8324,4.8324,4.8324,4.8324,4.8214,4.7791,4.7186,4.6434,4.5718,4.5021,4.436,4.3754,4.3516,4.3479,4.3479,4.3479,4.3479,4.3479,4.3479,4.3479,4.3479,4.3479,4.3563,4.382,4.4016,4.4058,4.4713,4.5063,4.5159,4.5448,4.5559,4.5586,4.5577,4.5586,4.5594,4.5594,4.5594,4.5633,4.5633,4.5652,4.5594,4.5594,4.5594,4.5902,4.6759,4.774,4.8144,4.9317,5.0125,5.0616,5.0683,5.0683,5.0683,5.0683,5.0683,5.0683,5.0712,5.073,5.0773,5.0835,5.0945,5.1083,5.1174,5.1236,5.1294,5.1328,5.1367,5.1387,5.1387,5.1387,5.1387,5.1387,5.1387,5.1387,5.1387,5.1387,5.1387,5.1387,5.1387,5.1387,5.1387,5.1387,5.1387,5.1387,5.1387,5.1387,5.1387,5.1387,5.1387,5.1387,5.1387,5.1387,5.1387,5.1387,5.1387,5.1387,5.1387,4.4598,4.4598,4.4598,4.4598,4.4598,4.4598,4.4598,4.4598,4.4598,4.4598,4.4654,4.5232,4.5833,4.6454,4.7088,4.7736,4.8172,4.8324,4.8324,4.8324,4.8324,4.8324,4.803,4.7571,4.6966,4.6507,4.5517,4.4635,4.4158,4.3736,4.3552,4.3479,4.3479,4.3479,4.3479,4.3497,4.3497,4.3479,4.3479,4.3479,4.3548,4.3693,4.3852,4.3896,4.4414,4.4651,4.4781,4.5011,4.5292,4.5362,4.5429,4.5504,4.5559,4.5594,4.5594,4.5671,4.5825,4.5864,4.5671,4.5594,4.5594,4.5768,4.6778,4.7625,4.8413,4.9471,5.0115,5.0654,5.0683,5.0683,5.0683,5.0683,5.0683,5.0683,5.0683,5.0712,5.073,5.0773,5.0894,5.1002,5.106,5.1121,5.121,5.1258,5.1328,5.1367,5.1387,5.1387,5.1387,5.1387,5.1387,5.1387,5.1387,5.1387,5.1387,5.1387,5.1387,5.1387,5.1387,5.1387,5.1387,5.1387,5.1387,5.1387,5.1387,5.1387,5.1387,5.1387,5.1387,5.1387,5.1387,5.1387,5.1387,5.1387,5.1387,4.4598,4.4598,4.4581,4.4564,4.4598,4.4598,4.4598,4.4598,4.4598,4.4598,4.4692,4.5267,4.5865,4.6478,4.7172,4.7836,4.8209,4.8324,4.8324,4.8324,4.8324,4.8324,4.7994,4.7462,4.6599,4.5883,4.4984,4.4158,4.3644,4.3552,4.3497,4.3479,4.3479,4.3552,4.3497,4.3533,4.3533,4.3516,4.3571,4.3589,4.3496,4.3565,4.358,4.3695,4.3986,4.4228,4.4327,4.4612,4.4943,4.515,4.5201,4.5332,4.5568,4.5586,4.5594,4.5614,4.6374,4.6355,4.5759,4.5652,4.5652,4.5883,4.6951,4.7605,4.8202,4.9067,4.9971,5.0635,5.0683,5.0683,5.0683,5.0683,5.0683,5.0683,5.0683,5.0693,5.0702,5.0721,5.0819,5.0939,5.0939,5.0959,5.1074,5.1174,5.1281,5.1328,5.1387,5.1387,5.1387,5.1387,5.1387,5.1387,5.1387,5.1387,5.1387,5.1387,5.1387,5.1387,5.1387,5.1387,5.1387,5.1387,5.1387,5.1387,5.1387,5.1387,5.1387,5.1387,5.1387,5.1387,5.1387,5.1387,5.1387,5.1387,5.1387,4.4598,4.4564,4.4028,4.4096,4.4564,4.4598,4.4598,4.4598,4.4598,4.4598,4.4797,4.5622,4.6167,4.6664,4.7431,4.8055,4.8248,4.8324,4.8324,4.8324,4.8269,4.8324,4.7939,4.6985,4.6159,4.5608,4.4709,4.3864,4.3516,4.3479,4.3479,4.3479,4.3718,4.3809,4.4158,4.4287,4.4305,4.4305,4.4268,4.4085,4.3589,4.3552,4.3588,4.3624,4.3913,4.403,4.406,4.443,4.467,4.4988,4.5052,4.5232,4.5513,4.5594,4.5614,4.5787,4.6413,4.6778,4.6317,4.6105,4.5913,4.6451,4.7144,4.7971,4.8875,4.974,5.0346,5.0596,5.0683,5.0683,5.0683,5.0683,5.0683,5.0683,5.0683,5.0683,5.0702,5.0702,5.0747,5.0856,5.0923,5.0972,5.1058,5.1116,5.1199,5.1292,5.1344,5.1387,5.1387,5.1387,5.1387,5.1387,5.1387,5.1387,5.1387,5.1387,5.1387,5.1387,5.1387,5.1387,5.1387,5.1387,5.1387,5.1387,5.1387,5.1387,5.1387,5.1387,5.1387,5.1387,5.1387,5.1387,5.1387,5.1387,5.1387,4.4598,4.453,4.4028,4.4096,4.4485,4.4327,4.4316,4.4547,4.4598,4.4598,4.4797,4.5648,4.6216,4.6641,4.7428,4.8209,4.8267,4.8324,4.8324,4.8269,4.7976,4.7846,4.7333,4.6379,4.559,4.5112,4.4342,4.3479,4.3479,4.3479,4.3681,4.3956,4.4195,4.4929,4.5186,4.515,4.4819,4.4947,4.5076,4.4947,4.458,4.4433,4.4433,4.4375,4.4361,4.4267,4.4252,4.433,4.4479,4.4807,4.5026,4.518,4.5438,4.5594,4.5748,4.6144,4.649,4.6885,4.6682,4.6047,4.6182,4.7212,4.7855,4.849,4.9336,5.0087,5.0471,5.0664,5.0683,5.0683,5.0683,5.0683,5.0683,5.0683,5.0683,5.0683,5.0693,5.0693,5.0712,5.0814,5.0851,5.0925,5.1016,5.1089,5.1145,5.1221,5.1308,5.1348,5.1387,5.1387,5.1387,5.1387,5.1387,5.1387,5.1387,5.1387,5.1387,5.1387,5.1387,5.1387,5.1387,5.1387,5.1387,5.1387,5.1387,5.1387,5.1387,5.1387,5.1387,5.1387,5.1387,5.1387,5.1387,5.1445,5.1523,4.4598,4.4598,4.4553,4.4513,4.4384,4.3775,4.3893,4.4581,4.4598,4.4598,4.4637,4.5267,4.5815,4.6407,4.7088,4.7625,4.7988,4.8083,4.8049,4.7865,4.7297,4.7149,4.6599,4.5608,4.5094,4.4562,4.3975,4.3479,4.3497,4.3718,4.4085,4.4709,4.5223,4.5993,4.6214,4.5938,4.5553,4.5792,4.592,4.5755,4.5443,4.5553,4.5461,4.5332,4.5109,4.4869,4.4736,4.4539,4.4487,4.4626,4.4802,4.5132,4.5381,4.5586,4.6144,4.6624,4.6865,4.6923,4.699,4.6317,4.6797,4.7913,4.8182,4.8702,4.9433,5.0289,5.0567,5.0683,5.0683,5.0683,5.0683,5.0683,5.0683,5.0683,5.0683,5.0683,5.0683,5.0693,5.0693,5.0721,5.073,5.0791,5.0886,5.0979,5.1069,5.1174,5.126,5.1348,5.1387,5.1387,5.1387,5.1387,5.1387,5.1387,5.1387,5.1387,5.1387,5.1387,5.1387,5.1387,5.1387,5.1387,5.1387,5.1387,5.1387,5.1387,5.1387,5.1387,5.1387,5.1406,5.1523,5.1504,5.1523,5.1699,5.1738,4.4598,4.4547,4.3995,4.3775,4.3724,4.3504,4.3859,4.4547,4.4598,4.4598,4.4626,4.5232,4.5501,4.5858,4.6887,4.7027,4.7104,4.7104,4.6928,4.6709,4.6452,4.6305,4.5865,4.5223,4.48,4.4415,4.3956,4.3497,4.3663,4.3938,4.4764,4.5535,4.5938,4.6783,4.7131,4.6911,4.6727,4.6654,4.6727,4.6507,4.6195,4.6122,4.6104,4.5957,4.5792,4.5571,4.5442,4.5517,4.5506,4.542,4.5709,4.5899,4.5522,4.5633,4.599,4.6759,4.6942,4.7077,4.7567,4.7509,4.7778,4.8606,4.8933,4.949,5.0106,5.0481,5.0683,5.0683,5.0683,5.0683,5.0683,5.0683,5.0683,5.0683,5.0683,5.0683,5.0683,5.0683,5.0683,5.0683,5.0683,5.0721,5.0797,5.0901,5.1008,5.1116,5.1224,5.1312,5.1367,5.1387,5.1387,5.1387,5.1387,5.1387,5.1387,5.1387,5.1387,5.1387,5.1387,5.1387,5.1387,5.1387,5.1387,5.1387,5.1387,5.1387,5.1387,5.1387,5.1387,5.166,5.1777,5.1719,5.1719,5.1992,5.2031,4.4401,4.4079,4.3623,4.3403,4.3325,4.3115,4.3555,4.4462,4.4598,4.4479,4.4185,4.4465,4.4777,4.5001,4.5655,4.6056,4.6198,4.6449,4.6397,4.614,4.5553,4.5461,4.5168,4.469,4.4268,4.4011,4.3828,4.3479,4.3809,4.4654,4.5516,4.5865,4.6324,4.7333,4.7847,4.7736,4.7609,4.7553,4.7498,4.726,4.6985,4.6783,4.6856,4.6728,4.6581,4.6397,4.6379,4.6615,4.6397,4.6345,4.6611,4.6572,4.6233,4.6163,4.622,4.6942,4.7308,4.7558,4.7932,4.8019,4.8567,4.9144,4.9452,4.9856,5.0279,5.0644,5.0683,5.0683,5.0683,5.0683,5.0683,5.0683,5.0683,5.0683,5.0683,5.0683,5.0683,5.0683,5.0683,5.0683,5.0683,5.0683,5.0757,5.0835,5.094,5.1074,5.1187,5.1286,5.1348,5.1387,5.1387,5.1387,5.1387,5.1387,5.1387,5.1387,5.1387,5.1387,5.1387,5.1387,5.1406,5.1426,5.1465,5.1445,5.1387,5.1484,5.1641,5.1445,5.1426,5.1777,5.2012,5.1855,5.209,5.2656,5.2539,4.3978,4.3318,4.324,4.3156,4.32,4.254,4.3041,4.4344,4.4276,4.4028,4.3504,4.3352,4.3666,4.409,4.4488,4.4997,4.532,4.5663,4.5645,4.5663,4.4911,4.4617,4.4397,4.392,4.3773,4.3589,4.3516,4.3608,4.4085,4.5076,4.6049,4.6104,4.737,4.8177,4.8196,4.8214,4.8086,4.8067,4.8085,4.8012,4.8104,4.8196,4.8306,4.8067,4.7608,4.7186,4.7132,4.7021,4.6836,4.714,4.7419,4.7505,4.6964,4.6567,4.6635,4.7096,4.7538,4.8038,4.8394,4.8625,4.899,4.9375,4.9548,5.001,5.0481,5.0683,5.0683,5.0683,5.0683,5.0683,5.0683,5.0683,5.0683,5.0683,5.0683,5.0683,5.0683,5.0683,5.0683,5.0683,5.0683,5.0693,5.0712,5.0808,5.0863,5.1031,5.1141,5.1245,5.1308,5.1367,5.1387,5.1387,5.1387,5.1387,5.1387,5.1387,5.1387,5.1387,5.1426,5.1641,5.1816,5.1738,5.1562,5.1855,5.2168,5.1933,5.1914,5.2012,5.2168,5.2246,5.2344,5.2031,5.2402,5.3359,5.3105,4.2726,4.2489,4.1965,4.2049,4.2422,4.1779,4.1982,4.2828,4.2828,4.3047,4.325,4.2864,4.286,4.3358,4.3759,4.4178,4.4367,4.4821,4.4581,4.4378,4.392,4.3975,4.3846,4.3644,4.3479,4.3479,4.3552,4.3773,4.4378,4.5663,4.6746,4.6819,4.7773,4.8177,4.8196,4.8233,4.8324,4.8324,4.8324,4.8324,4.8324,4.8324,4.8306,4.8269,4.7957,4.792,4.8034,4.8476,4.8228,4.8196,4.8689,4.8183,4.7019,4.6355,4.6355,4.6894,4.7759,4.8413,4.9067,4.949,4.9913,5.0125,5.0337,5.0481,5.0616,5.0673,5.0683,5.0683,5.0683,5.0683,5.0683,5.0683,5.0683,5.0683,5.0683,5.0683,5.0683,5.0683,5.0683,5.0683,5.0683,5.0693,5.0712,5.0758,5.0822,5.0932,5.1053,5.1152,5.1249,5.1308,5.1348,5.1367,5.1387,5.1387,5.1387,5.1387,5.1387,5.1484,5.1543,5.1836,5.2266,5.2363,5.2441,5.2851,5.3086,5.2812,5.2832,5.332,5.3398,5.3105,5.3183,5.3105,5.3769,5.4707,5.4004,4.21,4.1745,4.1018,4.1136,4.161,4.1018,4.1288,4.2049,4.1636,4.1728,4.2337,4.2044,4.2107,4.255,4.297,4.3519,4.3609,4.3998,4.3975,4.3662,4.3479,4.3534,4.3479,4.3479,4.3479,4.3479,4.3533,4.3828,4.4525,4.515,4.5938,4.6342,4.7113,4.7773,4.7828,4.803,4.8288,4.8324,4.8324,4.8324,4.8324,4.8324,4.8324,4.8324,4.8324,4.8324,4.8568,4.9029,4.9126,4.8929,4.919,4.8692,4.7731,4.7163,4.7086,4.7548,4.8279,4.9048,4.9817,5.0337,5.0683,5.0683,5.0683,5.0654,5.0654,5.0683,5.0683,5.0683,5.0683,5.0683,5.0683,5.0683,5.0683,5.0683,5.0683,5.0683,5.0683,5.0683,5.0683,5.0683,5.0683,5.0693,5.0702,5.0702,5.0782,5.0879,5.1004,5.1058,5.1156,5.1252,5.1292,5.1323,5.1345,5.1387,5.1387,5.1387,5.1387,5.1504,5.1816,5.2461,5.3066,5.3203,5.3398,5.3711,5.3828,5.3594,5.375,5.4199,5.4062,5.3652,5.3984,5.4355,5.5117,5.5625,5.4961,4.161,4.0984,4.0383,4.0485,4.0916,4.0417,4.0807,4.1653,4.0705,4.0502,4.1068,4.1085,4.1312,4.1585,4.1853,4.2581,4.3196,4.3576,4.3535,4.3533,4.3479,4.3479,4.3479,4.3479,4.3479,4.3589,4.3699,4.3901,4.4305,4.5002,4.5461,4.5333,4.5993,4.6984,4.7278,4.7681,4.8085,4.8269,4.8324,4.8324,4.8324,4.8324,4.8324,4.8324,4.8324,4.8324,4.8569,4.8898,4.9341,4.9365,4.921,4.8809,4.8366,4.7886,4.8067,4.8355,4.8798,4.9644,5.0356,5.0587,5.0683,5.0683,5.0683,5.0683,5.0683,5.0683,5.0683,5.0683,5.0683,5.0683,5.0683,5.0683,5.0683,5.0683,5.0683,5.0683,5.0683,5.0683,5.0683,5.0683,5.0683,5.0683,5.0683,5.0683,5.0748,5.0844,5.0918,5.0979,5.1053,5.1148,5.121,5.126,5.1275,5.1328,5.1543,5.166,5.1758,5.2324,5.2773,5.3359,5.3848,5.4043,5.4258,5.4492,5.4512,5.4394,5.4512,5.4863,5.459,5.4414,5.4883,5.5332,5.5332,5.5742,5.5664,4.0451,4.0273,4.0146,4.0214,4.0299,4.0163,4.0282,4.0451,4.0282,4.0214,4.035,4.0366,4.0583,4.111,4.1621,4.2226,4.2771,4.3196,4.3444,4.3479,4.3479,4.3479,4.3479,4.3479,4.3479,4.3644,4.4011,4.4727,4.4433,4.5076,4.5902,4.6287,4.5828,4.647,4.7076,4.748,4.781,4.8104,4.8324,4.8324,4.8324,4.8324,4.8324,4.8324,4.8324,4.8324,4.8439,4.8761,4.8947,4.9005,4.9026,4.8895,4.8701,4.8518,4.8683,4.8913,4.9375,4.9913,5.0452,5.0664,5.0683,5.0683,5.0683,5.0683,5.0683,5.0683,5.0683,5.0683,5.0683,5.0683,5.0683,5.0683,5.0683,5.0683,5.0683,5.0683,5.0683,5.0683,5.0683,5.0683,5.0683,5.0683,5.0683,5.0683,5.0693,5.0791,5.0844,5.0896,5.0932,5.1023,5.1137,5.1203,5.124,5.1816,5.2266,5.2285,5.2461,5.3086,5.3691,5.4238,5.4668,5.4961,5.5176,5.5351,5.541,5.5332,5.5488,5.5566,5.5762,5.5723,5.6035,5.6289,5.6094,5.5957,5.5996]}]]